[[{"header":{"parameterUnit":"m.s-1","parameterCategory":1,"la1":30.6,"la2":29.2853,"lo1":-89.7004,"lo2":-87.6739,"dy":0.0162,"dx":0.0183,"nx":112,"ny":82,"refTime":"2023-08-29T12:00:00:Z","depth":0,"parameterNumber":2,"parameterNumberName":"U-component_of_WINDS"},"data":[0.0,0.0,0.0,0.0,0.0,0.0,0.0,0.0,0.0,0.0,0.0,0.0,0.0,0.0,0.0,0.0,0.0,0.0,0.0,0.0,0.0,0.0,0.0,0.0,0.0,0.0,0.0,0.0,0.0,0.0,0.0,0.0,0.0,0.0,0.0,0.0,0.0,0.0,0.0,0.0,0.0,0.0,0.0,0.0,0.0,0.0,0.0,0.0,0.0,0.0,0.0,0.0,0.0,0.0,0.0,0.0,0.0,0.0,0.0,0.0,0.0,0.0,0.0,0.0,0.0,0.0,0.0,0.0,0.0,0.0,0.0,0.0,0.0,0.0,0.0,0.0,0.0,0.0,0.0,0.0,0.0,0.0,0.0,0.0,0.0,0.0,0.0,0.0,0.0,0.0,0.9728,0.899,0.9221,0.9452,0.9484,0.9516,0.9708,1.0149,0.0,0.0,0.0,0.0,0.0,0.0,0.0,0.0,0.0,0.0,0.0,0.0,0.0,0.0,0.0,0.0,0.0,0.0,0.0,0.0,0.0,0.0,0.0,0.0,0.0,0.0,0.0,0.0,0.0,0.0,0.0,0.0,0.0,0.0,0.0,0.0,0.0,0.0,0.0,0.0,0.0,0.0,0.0,0.0,0.0,0.0,0.0,0.0,0.0,0.0,0.0,0.0,0.0,0.0,0.0,0.0,0.0,0.0,0.0,0.0,0.0,0.0,0.0,0.0,0.0,0.0,0.0,0.0,0.0,0.0,0.0,0.0,0.0,0.0,0.0,0.0,0.0,0.0,0.0,0.0,0.0,0.0,0.0,0.0,0.0,0.0,0.0,0.0,0.0,0.0,0.0,0.0,0.0,0.0,0.0,0.0,0.0,0.0,0.0,0.0,0.0,0.0,0.0,0.0,0.8738,0.8576,0.8861,0.9183,0.9484,0.9516,0.9548,0.9612,0.0,0.0,0.0,0.0,0.0,0.0,0.0,0.0,0.0,0.0,0.0,0.0,0.0,0.0,0.0,0.0,0.0,0.0,0.0,0.0,0.0,0.0,0.0,0.0,0.0,0.0,0.0,0.0,0.0,0.0,0.0,0.0,0.0,0.0,0.0,0.0,0.0,0.0,0.0,0.0,0.0,0.0,0.0,0.0,0.0,0.0,0.0,0.0,0.0,0.0,0.0,0.0,0.0,0.0,0.0,0.0,0.0,0.0,0.0,0.0,0.0,0.0,0.0,0.0,0.0,0.0,0.0,0.0,0.0,0.0,0.0,0.0,0.0,0.0,0.0,0.0,0.0,0.0,0.0,0.0,0.0,0.0,0.0,0.0,0.0,0.0,0.0,0.0,0.0,0.0,0.0,0.0,0.0,0.0,0.0,0.0,0.0,0.0,0.0,0.0,0.0,0.0,0.0,0.8861,0.8517,0.8517,0.8914,0.9288,0.9425,0.9753,0.9937,0.9937,1.0036,0.0,0.0,0.0,0.0,0.0,0.0,0.0,0.0,0.0,0.0,0.0,0.0,0.0,0.0,0.0,0.0,0.0,0.0,0.0,0.0,0.0,0.0,0.0,0.0,0.0,0.0,0.0,0.0,0.0,0.0,0.0,0.0,0.0,0.0,0.0,0.0,0.0,0.0,0.0,0.0,0.0,0.0,0.0,0.0,0.0,0.0,0.0,0.0,0.0,0.0,0.0,0.0,0.0,0.0,0.0,0.0,0.0,0.0,0.0,0.0,0.0,0.0,0.0,0.0,0.0,0.0,0.0,0.0,0.0,0.0,0.0,0.0,0.0,0.0,0.0,0.0,0.0,0.0,0.0,0.0,0.0,0.0,0.0,0.0,0.0,0.0,0.0,0.0,0.0,0.0,0.0,0.0,0.0,0.0,0.0,0.0,0.0,0.0,0.0,0.0,0.0,0.0,0.8559,0.8389,0.8508,0.8935,0.9237,0.9338,0.9828,1.0159,1.0159,1.0071,0.0,0.0,0.0,0.0,0.0,0.0,0.0,0.0,0.0,0.0,0.0,0.0,0.0,0.0,0.0,0.0,0.0,0.0,0.0,0.0,0.0,0.0,0.0,0.0,0.0,0.0,0.0,0.0,0.0,0.0,0.0,0.0,0.0,0.0,0.0,0.0,0.0,0.0,0.0,0.0,0.0,0.0,0.0,0.0,0.0,0.0,0.0,0.0,0.0,0.0,0.0,0.0,0.0,0.0,0.0,0.0,0.0,0.0,0.0,0.0,0.0,0.0,0.0,0.0,0.0,0.0,0.0,0.0,0.0,0.0,0.0,0.0,0.0,0.0,0.0,0.0,0.0,0.0,0.0,0.0,0.0,0.0,0.0,0.0,0.0,0.0,0.0,0.0,0.0,0.0,0.0,0.0,0.0,0.0,0.0,0.0,0.0,0.0,0.0,0.0,0.0,0.0,0.8054,0.804,0.8549,0.8619,0.8799,0.9104,0.9515,0.9741,0.9741,1.0072,0.0,0.0,0.0,0.0,0.0,0.0,0.0,0.0,0.0,0.0,0.0,0.0,0.0,0.0,0.0,0.0,0.0,0.0,0.0,0.0,0.0,0.0,0.0,0.0,0.0,0.0,0.0,0.0,0.0,0.0,0.0,0.0,0.0,0.0,0.0,0.0,0.0,0.0,0.0,0.0,0.0,0.0,0.0,0.0,0.0,0.0,0.0,0.0,0.0,0.0,0.0,0.0,0.0,0.0,0.0,0.0,0.0,0.0,0.0,0.0,0.0,0.0,0.0,0.0,0.0,0.0,0.0,0.0,0.0,0.0,0.0,0.0,0.0,0.0,0.0,0.0,0.0,0.0,0.0,0.0,0.0,0.0,0.0,0.0,0.0,0.0,0.0,0.0,0.0,0.0,0.0,0.0,0.0,0.0,0.0,0.0,0.0,0.0,0.0,0.0,0.0,0.0,0.8384,0.8279,0.8287,0.8628,0.8887,0.9031,0.953,0.9946,1.0166,0.0,0.0,0.0,0.0,0.0,0.0,0.0,0.0,0.0,0.0,0.0,0.0,0.0,0.0,0.0,0.0,0.0,0.0,0.0,0.0,0.0,0.0,0.0,0.0,0.0,0.0,0.0,0.0,0.0,0.0,0.0,0.0,0.0,0.0,0.0,0.0,0.0,0.0,0.0,0.0,0.0,0.0,0.0,0.0,0.0,0.0,0.0,0.0,0.0,0.0,0.0,0.0,0.0,0.0,0.0,0.0,0.0,0.0,0.0,0.0,0.0,0.0,0.0,0.0,0.0,0.0,0.0,0.0,0.0,0.0,0.0,0.0,0.0,0.0,0.0,0.0,0.0,0.0,0.0,0.0,0.0,0.0,0.0,0.0,0.0,0.0,0.0,0.0,0.0,0.0,0.0,0.0,0.0,0.0,0.0,0.0,0.0,0.0,0.0,0.0,0.0,0.0,0.8552,0.8541,0.8458,0.8305,0.8663,0.8899,0.8899,0.9413,0.9846,1.0105,0.0,0.0,0.0,0.0,0.0,0.0,0.0,0.0,0.0,0.0,0.0,0.0,0.0,0.0,0.0,0.0,0.0,0.0,0.0,0.0,0.0,0.0,0.0,0.0,0.0,0.0,0.0,0.0,0.0,0.0,0.0,0.0,0.0,0.0,0.0,0.0,0.0,0.0,0.0,0.0,0.0,0.0,0.0,0.0,0.0,0.0,0.0,0.0,0.0,0.0,0.0,0.0,0.0,0.0,0.0,0.0,0.0,0.0,0.0,0.0,0.0,0.0,0.0,0.0,0.0,0.0,0.0,0.0,0.0,0.0,0.0,0.0,0.0,0.0,0.0,0.0,0.0,0.0,0.0,0.0,0.0,0.0,0.0,0.0,0.0,0.0,0.0,0.0,0.0,0.0,0.0,0.0,0.0,0.0,0.0,0.0,0.0,0.0,0.0,0.0,0.0,0.0,0.8414,0.8406,0.8481,0.868,0.8703,0.8703,0.8703,0.9051,0.9284,0.0,0.0,0.0,0.0,0.0,0.0,0.0,0.0,0.0,0.0,0.0,0.0,0.0,0.0,0.0,0.0,0.0,0.0,0.0,0.0,0.0,0.0,0.0,0.0,0.0,0.0,0.0,0.0,0.0,0.0,0.0,0.0,0.0,0.0,0.0,0.0,0.0,0.0,0.0,0.0,0.0,0.0,0.0,0.0,0.0,0.0,0.0,0.0,0.0,0.0,0.0,0.0,0.0,0.0,0.0,0.0,0.0,0.0,0.0,0.0,0.0,0.0,0.0,0.0,0.0,0.0,0.0,0.0,0.0,0.0,0.0,0.0,0.0,0.0,0.0,0.0,0.0,0.0,0.0,0.0,0.0,0.0,0.0,0.0,0.0,0.0,0.0,0.0,0.0,0.0,0.0,0.0,0.0,0.0,0.0,0.0,0.0,0.0,0.0,0.0,0.0,0.0,0.0,0.7983,0.7967,0.7989,0.8046,0.8432,0.8703,0.8703,0.8818,0.9013,0.9284,0.0,0.0,0.0,0.0,0.0,0.0,0.0,0.0,0.0,0.0,0.0,0.0,0.0,0.0,0.0,0.0,0.0,0.0,0.0,0.0,0.0,0.0,0.0,0.0,0.0,0.0,0.0,0.0,0.0,0.0,0.0,0.0,0.0,0.0,0.0,0.0,0.0,0.0,0.0,0.0,0.0,0.0,0.0,0.0,0.0,0.0,0.0,0.0,0.0,0.0,0.0,0.0,0.0,0.0,0.0,0.0,0.0,0.0,0.0,0.0,0.0,0.0,0.0,0.0,0.0,0.0,0.0,0.0,0.0,0.0,0.0,0.0,0.0,0.0,0.0,0.0,0.0,0.0,0.0,0.0,0.0,0.0,0.0,0.0,0.0,0.0,0.0,0.0,0.0,0.0,0.0,0.0,0.0,0.0,0.0,0.0,0.0,0.0,0.0,0.0,0.0,0.0,0.777,0.7591,0.7437,0.7437,0.7783,0.8089,0.8318,0.8356,0.8551,0.9013,0.0,0.0,0.0,0.0,0.0,0.0,0.0,0.0,0.0,0.0,0.0,0.0,0.0,0.0,0.0,0.0,0.0,0.0,0.0,0.0,0.0,0.0,0.0,0.0,0.0,0.0,0.0,0.0,0.0,0.0,0.0,0.0,0.0,0.0,0.0,0.0,0.0,0.0,0.0,0.0,0.0,0.0,0.0,0.0,0.0,0.0,0.0,0.0,0.0,0.0,0.0,0.0,0.0,0.0,0.0,0.0,0.0,0.0,0.0,0.0,0.0,0.0,0.0,0.0,0.0,0.0,0.0,0.0,0.0,0.0,0.0,0.0,0.0,0.0,0.0,0.0,0.0,0.0,0.0,0.0,0.0,0.0,0.0,0.0,0.0,0.0,0.0,0.0,0.0,0.0,0.0,0.0,0.0,0.0,0.0,0.0,0.0,0.0,0.0,0.0,0.0,0.0,0.7706,0.7169,0.6784,0.6788,0.6865,0.713,0.7668,0.7706,0.7974,0.8589,0.0,0.0,0.0,0.0,0.0,0.0,0.0,0.0,0.0,0.0,0.0,0.0,0.0,0.0,0.0,0.0,0.0,0.0,0.0,0.0,0.0,0.0,0.0,0.0,0.0,0.0,0.0,0.0,0.0,0.0,0.0,0.0,0.0,0.0,0.0,0.0,0.0,0.0,0.0,0.0,0.0,0.0,0.0,0.0,0.0,0.0,0.0,0.0,0.0,0.0,0.0,0.0,0.0,0.0,0.0,0.0,0.0,0.0,0.0,0.0,0.507,0.0,0.0,0.0,0.0,0.0,0.0,0.0,0.0,0.0,0.0,0.0,0.0,0.0,0.0,0.0,0.0,0.0,0.0,0.0,0.0,0.0,0.0,0.0,0.0,0.0,0.0,0.0,0.0,0.0,0.0,0.0,0.0,0.0,0.0,0.0,0.0,0.0,0.0,0.0,0.0,0.0,0.7053,0.6237,0.5774,0.6093,0.6595,0.6942,0.7092,0.7092,0.7361,0.7936,0.7629,0.0,0.0,0.0,0.0,0.0,0.0,0.0,0.0,0.0,0.0,0.0,0.0,0.0,0.0,0.0,0.0,0.0,0.0,0.0,0.0,0.0,0.0,0.0,0.0,0.0,0.0,0.0,0.0,0.0,0.0,0.0,0.0,0.0,0.0,0.0,0.0,0.0,0.0,0.0,0.0,0.0,0.0,0.0,0.0,0.0,0.0,0.0,0.0,0.0,0.0,0.0,0.0,0.0,0.0,0.0,0.0,0.0,0.0,0.0,0.0,0.4591,0.0,0.0,0.0,0.0,0.0,0.0,0.0,0.0,0.0,0.0,0.0,0.0,0.0,0.0,0.0,0.0,0.0,0.0,0.0,0.0,0.0,0.0,0.0,0.0,0.0,0.0,0.0,0.0,0.0,0.0,0.0,0.0,0.0,0.0,0.0,0.0,0.0,0.0,0.0,0.0,0.5812,0.5115,0.4652,0.4851,0.5392,0.5815,0.6121,0.6321,0.671,0.7322,0.7053,0.0,0.0,0.0,0.0,0.0,0.0,0.0,0.0,0.0,0.0,0.0,0.0,0.0,0.0,0.0,0.0,0.0,0.0,0.0,0.0,0.0,0.0,0.0,0.0,0.0,0.0,0.0,0.0,0.0,0.0,0.0,0.0,0.0,0.0,0.0,0.0,0.0,0.0,0.0,0.0,0.0,0.0,0.0,0.0,0.0,0.0,0.0,0.0,0.0,0.0,0.0,0.0,0.0,0.2878,0.2914,0.3245,0.3109,0.2846,0.2477,0.3056,0.3456,0.3799,0.3926,0.0,0.0,0.0,0.0,0.0,0.0,0.0,0.0,0.0,0.0,0.0,0.0,0.0,0.0,0.0,0.0,0.0,0.0,0.0,0.0,0.0,0.0,0.0,0.0,0.3668,0.3424,0.433,0.0,0.0,0.0,0.0,0.0,0.0,0.0,0.0,0.0,0.0,0.0,0.4686,0.4109,0.3724,0.3802,0.4112,0.4499,0.4999,0.5354,0.586,0.6588,0.6514,0.6591,0.0,0.0,0.0,0.0,0.0,0.0,0.0,0.0,0.0,0.0,0.0,0.0,0.0,0.0,0.0,0.0,0.0,0.0,0.0,0.0,0.0,0.0,0.0,0.0,0.0,0.0,0.0,0.0,0.0,0.0,0.0,0.0,0.3168,0.3259,0.0,0.0,0.0,0.0,0.0,0.0,0.0,0.0,0.0,0.0,0.0,0.0,0.0,0.1016,0.1554,0.1075,0.1092,0.1561,0.0367,0.0368,0.1411,0.0772,0.0839,0.1478,0.1566,0.0,0.2887,0.3088,0.0,0.0,0.0,0.0,0.0,0.0,0.0,0.0,0.0,0.0,0.0,0.0,0.0,0.0,0.0,0.0,0.0,0.0,0.0,0.0,0.0,0.0,0.2072,0.2147,0.2257,0.2408,0.0,0.3842,0.5121,0.5478,0.5544,0.0,0.0,0.0,0.0,0.0,0.0,0.0,0.4649,0.38,0.3335,0.3765,0.3841,0.3919,0.3995,0.4036,0.4499,0.5461,0.5002,0.5389,0.6822,0.6402,0.0,0.0,0.0,0.0,0.0,0.0,0.0,0.0,0.0,0.0,0.0,0.0,0.0,0.0,0.0,0.0,0.0,0.0,0.0,0.0,0.0,0.0,0.0,0.0,0.0,0.0,0.0,0.0,0.0,0.3514,0.3239,0.2811,0.2539,0.2287,0.0,0.0,0.0,0.0,0.0,0.0,0.0,0.0,0.0,-0.1005,-0.0808,-0.0591,-0.0328,-0.0465,-0.0401,-0.0167,-0.0705,-0.0672,-0.0134,-0.047,-0.0403,-0.0034,-0.0034,0.0168,0.0638,0.1746,0.2385,0.2649,0.0,0.0,0.0,0.0,0.3849,0.4112,0.3749,0.3621,0.3566,0.319,0.0,0.0,0.0,0.0,0.0,0.0,0.0,0.0,0.0,0.0,0.0579,0.1004,0.0855,0.0901,0.1845,0.229,0.2775,0.0,0.3867,0.3791,0.3522,0.0,0.0,0.0,0.0,0.3251,0.3444,0.3057,0.2824,0.3059,0.3256,0.3413,0.3413,0.3645,0.3995,0.4419,0.4229,0.4501,0.5467,0.5544,0.5931,0.0,0.0,0.0,0.0,0.0,0.0,0.0,0.0,0.0,0.0,0.0,0.0,0.0,0.0,0.0,0.0,0.0,0.0,0.0,0.0,0.0,0.0,0.0,0.0,0.0,0.0,0.0,0.0,0.2931,0.2484,0.1843,0.1312,0.0922,0.0,0.0,0.0,0.0,0.0,0.0,-0.2291,-0.2264,-0.2334,-0.2562,-0.2484,-0.2344,-0.2178,-0.2011,-0.1843,-0.1642,-0.1745,-0.1578,-0.1243,-0.1411,-0.1411,-0.1209,-0.1176,-0.1142,-0.1041,0.0403,0.0975,0.0975,0.1041,0.1382,0.1829,0.1829,0.2142,0.2492,0.1984,0.1805,0.173,0.1238,0.108,0.1104,0.1104,0.0,0.0,0.0,0.0,0.0,-0.0624,-0.0784,-0.0627,-0.0039,-0.0274,-0.0353,0.0903,0.0706,0.0705,0.0,0.2393,0.2431,0.2431,0.0,0.0,0.0,0.2511,0.2511,0.2511,0.2511,0.2511,0.2511,0.2787,0.2943,0.2943,0.3255,0.3528,0.3608,0.3608,0.3802,0.4229,0.4691,0.5118,0.5586,0.0,0.0,0.0,0.0,0.0,0.0,0.0,0.0,0.0,0.0,0.0,0.0,0.0,0.0,0.0,0.0,0.0,0.0,0.0,0.0,0.0,0.0,0.0,0.0,0.0,0.0,0.0,0.0,0.0,-0.0252,-0.0783,0.0,0.0,0.0,0.0,-0.1468,-0.1611,-0.2362,-0.389,-0.3736,-0.3995,-0.4908,-0.4746,-0.4317,-0.3689,-0.3692,-0.3322,-0.2653,-0.3322,-0.2917,-0.1609,-0.2316,-0.2249,-0.1575,-0.1374,-0.1274,-0.1274,-0.0839,-0.0672,-0.0672,-0.0469,-0.0443,-0.0522,-0.0522,-0.0531,-0.0579,-0.0615,-0.0616,-0.0616,-0.0653,-0.0627,-0.0565,-0.0565,-0.0536,0.0,0.0,-0.0821,-0.09,-0.1175,-0.1254,-0.1254,-0.1214,-0.1058,-0.0862,-0.0784,-0.0627,-0.0039,0.0,0.208,0.2196,0.2196,0.0,0.2511,0.2511,0.2511,0.2511,0.2511,0.2511,0.2511,0.2511,0.2511,0.2511,0.2511,0.255,0.2746,0.31,0.3141,0.3335,0.3802,0.3841,0.4151,0.4766,0.5151,0.0,0.0,0.0,0.0,0.0,0.0,0.0,0.0,0.0,0.0,0.0,0.0,0.0,0.0,0.0,0.0,0.0,0.0,0.0,0.0,0.0,0.0,0.0,0.0,0.0,0.0,0.0,0.0,-0.1119,-0.1258,0.0,-0.2322,-0.27,-0.3209,-0.3888,-0.4353,-0.489,-0.5542,-0.5501,-0.5599,-0.5939,-0.5873,-0.5705,-0.5474,-0.5345,-0.5147,-0.4878,-0.5201,-0.4801,-0.3815,-0.4196,-0.3951,-0.3217,-0.3146,-0.3041,-0.2898,-0.2792,-0.2066,-0.1072,-0.1018,-0.103,-0.1075,-0.1075,-0.1117,-0.1127,-0.1127,-0.1139,-0.1121,-0.1139,-0.1113,-0.1083,-0.1083,-0.105,-0.1175,-0.1763,-0.1921,-0.2078,-0.2743,-0.2899,-0.2782,-0.2195,-0.243,-0.2468,-0.1371,-0.1489,-0.1489,-0.0392,0.0549,0.1333,0.1924,0.2081,0.2159,0.2275,0.2314,0.2353,0.247,0.2511,0.2511,0.2511,0.2511,0.2511,0.2511,0.2511,0.255,0.2707,0.2707,0.2904,0.3335,0.3335,0.3606,0.4109,0.4265,0.4768,0.0,0.0,0.0,0.0,0.0,0.0,0.0,0.0,0.0,0.0,0.0,0.0,0.0,0.0,0.0,0.0,0.0,0.0,0.0,0.0,0.0,0.0,0.0,0.0,0.0,-0.0808,-0.1482,-0.2266,-0.2439,-0.2897,-0.3925,-0.4335,-0.4833,-0.5562,-0.6018,-0.6398,-0.6752,-0.6761,-0.6761,-0.6761,-0.6761,-0.6662,-0.64,-0.6365,-0.633,-0.633,-0.6462,-0.6232,-0.5717,-0.5852,-0.561,-0.5081,-0.4759,-0.4543,-0.4398,-0.4074,-0.3285,-0.2231,-0.2103,-0.2047,-0.2062,-0.2062,-0.211,-0.2125,-0.2125,-0.2149,-0.2146,-0.2143,-0.2155,-0.2155,-0.2155,-0.2155,-0.2272,-0.2784,-0.2942,-0.3059,-0.3645,-0.3802,-0.3645,-0.3059,-0.3372,-0.3487,-0.239,-0.2547,-0.2705,-0.1882,-0.0744,0.0274,0.0863,0.102,0.1177,0.1607,0.1411,0.1489,0.2198,0.2118,0.2078,0.2353,0.247,0.2511,0.2511,0.2511,0.2511,0.2511,0.2511,0.2628,0.2904,0.2904,0.3061,0.3372,0.3489,0.3956,0.4805,0.0,0.0,0.0,0.0,0.0,0.0,0.0,0.0,0.0,0.0,0.0,0.0,0.0,0.0,0.0,0.0,0.0,0.0,0.0,0.0,0.0,0.0,0.0,-0.1789,-0.2293,-0.3053,-0.3874,-0.4474,-0.5151,-0.5954,-0.615,-0.6253,-0.6289,-0.6395,-0.6793,-0.7489,-0.7521,-0.7521,-0.7521,-0.7531,-0.7199,-0.647,-0.673,-0.686,-0.686,-0.7074,-0.7158,-0.7122,-0.713,-0.713,-0.7059,-0.6093,-0.5666,-0.5568,-0.4752,-0.4392,-0.4307,-0.3763,-0.3558,-0.363,-0.363,-0.3687,-0.3802,-0.3802,-0.3802,-0.3802,-0.3802,-0.3802,-0.3802,-0.3802,-0.3802,-0.3802,-0.3802,-0.3802,-0.3802,-0.3802,-0.3802,-0.3802,-0.3802,-0.3802,-0.3802,-0.3802,-0.3802,-0.3567,-0.2705,-0.1685,-0.0979,-0.094,-0.0744,-0.0352,0.0431,-0.0117,0.0,0.1611,0.1255,0.1215,0.208,0.2356,0.2474,0.2514,0.2514,0.2512,0.2511,0.2511,0.2511,0.2511,0.2511,0.2511,0.2511,0.2904,0.3335,0.3763,0.0,0.0,0.0,0.0,0.0,0.0,0.0,0.0,0.0,0.0,0.0,0.0,0.0,0.0,0.0,0.0,0.0,0.0,0.0,0.0,0.0,-0.4223,-0.4556,-0.3226,-0.3809,-0.4572,-0.5128,-0.5479,-0.6044,-0.6995,-0.7128,-0.7416,-0.8036,-0.82,-0.8269,-0.8214,-0.8376,-0.8376,-0.8214,-0.8409,-0.8425,-0.822,-0.8442,-0.8548,-0.8553,-0.8781,-0.8592,-0.797,-0.8157,-0.7926,-0.7355,-0.7092,-0.6904,-0.6723,-0.6505,-0.6291,-0.5975,-0.465,-0.4164,-0.4187,-0.4187,-0.4128,-0.3999,-0.3843,-0.3802,-0.3841,-0.396,-0.3999,-0.4038,-0.419,-0.4229,-0.4192,-0.4077,-0.3999,-0.3999,-0.3841,-0.3802,-0.3802,-0.3802,-0.3802,-0.3802,-0.3802,-0.3802,-0.3724,-0.3489,-0.3214,-0.2624,-0.141,-0.1136,-0.0979,-0.0548,-0.0666,0.0,0.0,0.0196,0.0513,0.1244,0.1689,0.2092,0.2536,0.2576,0.2557,0.2514,0.2511,0.2511,0.2511,0.2511,0.2511,0.2511,0.2904,0.318,0.0,0.0,0.0,0.0,0.0,0.0,0.0,0.0,0.0,0.0,0.0,0.0,0.0,0.0,0.0,0.0,0.0,0.0,0.0,0.0,0.0,0.0,-0.5497,-0.5942,-0.5652,-0.5482,-0.569,-0.649,-0.6613,-0.7123,-0.843,-0.8552,-0.8865,-0.9665,-0.9799,-0.9703,-0.9364,-0.9582,-0.9604,-0.9334,-0.9639,-0.987,-1.0018,-1.0241,-1.0331,-1.0331,-1.0599,-1.0248,-0.9363,-0.9504,-0.9188,-0.8499,-0.8156,-0.7927,-0.7817,-0.7468,-0.7234,0.0,0.0,0.0,0.0,0.0,-0.4307,-0.4194,-0.4075,-0.4036,-0.4075,-0.4192,-0.4233,-0.4231,-0.4384,-0.4384,-0.4384,-0.427,-0.4233,-0.4192,-0.4075,-0.4036,-0.4036,-0.4036,-0.3997,-0.3921,-0.3921,-0.3843,-0.3802,-0.3802,-0.3802,0.0,-0.2507,-0.235,-0.2155,-0.1646,-0.1881,-0.1802,-0.0979,-0.0901,-0.063,0.012,0.068,0.124,0.1841,0.2082,0.0,0.0,0.0,0.2511,0.2511,0.2511,0.0,0.0,0.0,0.2865,0.2865,0.0,0.0,0.0,0.3645,0.3802,0.0,0.0,0.0,0.0,0.0,0.0,0.0,0.0,0.0,0.0,0.0,0.0,0.0,0.0,0.0,0.0,-0.6673,-0.7307,-0.8545,-0.7409,-0.6866,-0.7994,-0.7933,-0.8399,-0.999,-1.0142,-1.0388,-1.0986,-1.1048,-1.0937,-1.0631,-1.0909,0.0,0.0,0.0,-1.1323,-1.1703,-1.1849,-1.1962,-1.1962,-1.2151,-1.1761,-1.0887,-1.0812,-1.0519,-0.9954,-0.916,-0.8818,-0.878,-0.8075,-0.777,-0.7727,-0.7111,-0.6461,-0.5738,-0.5004,-0.4732,-0.4693,-0.4691,0.0,0.0,-0.4693,-0.4732,-0.4732,-0.473,-0.473,-0.473,-0.4732,-0.4732,-0.4693,-0.4691,-0.4652,-0.4654,-0.4538,-0.4387,-0.4233,-0.4118,-0.396,-0.3841,-0.3802,-0.3802,-0.3802,-0.3802,-0.3802,-0.3528,-0.2744,-0.3294,-0.3253,-0.1762,-0.2,-0.2006,-0.1145,0.0,0.0,0.0674,0.1229,0.1741,0.2167,0.2316,0.2431,0.2511,0.2511,0.2511,0.2511,0.2511,0.2511,0.2511,0.2511,0.2511,0.2511,0.3294,0.3645,0.0,0.0,0.0,0.0,0.0,0.0,0.0,0.0,0.0,0.0,0.0,0.0,0.0,0.0,0.0,-0.7891,-0.9012,-1.0028,-1.0504,-1.0201,-0.9976,-1.0134,-0.9768,-0.992,-1.0954,-1.1055,-1.1118,-1.1236,-1.1329,-1.1413,-1.1388,-1.1557,-1.1699,-1.1795,-1.2061,-1.2263,-1.2326,-1.226,-1.2221,-1.2221,0.0,0.0,-1.1521,-1.1037,-1.0738,-1.0588,-0.9954,-0.9652,-0.9652,-0.9501,-0.942,-0.9301,-0.7923,-0.7268,-0.708,-0.6777,-0.6661,-0.6623,-0.6423,-0.6342,-0.6384,-0.6584,-0.6661,-0.67,-0.685,-0.6888,0.0,-0.67,-0.6661,-0.6623,-0.6384,-0.6342,-0.6192,-0.5503,-0.5354,-0.5082,-0.4272,-0.4079,-0.3999,-0.3841,-0.3802,-0.3802,-0.3802,-0.3802,-0.3763,-0.3567,-0.3684,-0.3684,-0.337,-0.3187,-0.2799,-0.2024,-0.1599,-0.1148,-0.051,0.051,0.0921,0.0444,0.1267,0.1999,0.247,0.2511,0.2511,0.2511,0.2511,0.2511,0.2511,0.2511,0.2511,0.2511,0.2668,0.2744,0.0,0.0,0.0,0.0,0.0,0.0,0.0,0.0,0.0,0.0,0.0,-0.7148,-0.7963,0.0,-0.9537,-0.9686,-1.0371,-1.1122,-1.1722,-1.1457,-1.1191,-1.1099,-1.0833,-1.0986,-1.1826,-1.1888,-1.2043,-1.2389,-1.2451,-1.2539,-1.2612,-1.282,-1.3022,-1.3169,-1.342,-1.3657,-1.3853,-1.3763,-1.3665,-1.3455,-1.3244,-1.2806,-1.215,-1.1855,-1.1372,-1.0775,-1.0481,-1.018,-0.9884,-0.9884,-0.9884,-0.9803,-0.9036,-0.8461,-0.8042,-0.7544,-0.7353,-0.731,-0.7191,-0.7153,-0.7191,-0.731,-0.7353,-0.7349,-0.7464,-0.7502,-0.7464,-0.7387,-0.7353,-0.731,-0.7191,-0.7153,-0.7038,-0.6657,-0.6468,-0.6202,-0.5467,-0.5004,-0.4616,-0.4309,-0.3997,-0.3802,-0.3802,-0.3841,-0.3855,-0.381,-0.3841,-0.3832,-0.3832,-0.3747,-0.3526,-0.3144,-0.2755,-0.2303,-0.1705,-0.0597,-0.0127,-0.0495,0.0245,0.0848,0.1197,0.1436,0.1548,0.1531,0.1883,0.2038,0.2038,0.2353,0.2353,0.2038,0.2353,0.2511,0.0,0.0,0.0,0.0,0.0,0.0,0.0,-0.7605,-0.8509,-0.9079,-0.9286,-0.9535,-1.0119,-1.0626,-1.103,-1.1263,-1.145,-1.1827,-1.2594,-1.232,-1.2012,-1.2012,-1.1734,-1.1826,-1.2634,-1.2696,-1.2917,-1.345,-1.3579,-1.367,-1.3797,-1.4145,-1.4362,-1.4525,-1.4714,-1.4985,-1.5311,-1.524,-1.5026,-1.4713,-1.4641,-1.3985,-1.2893,-1.2776,-1.215,-1.1149,-1.0887,-1.0513,-1.0067,-0.9954,-0.9884,-0.9884,-0.9884,-0.9501,-0.8851,-0.8194,-0.7961,-0.7961,-0.7961,-0.7961,-0.7961,-0.7961,-0.7961,-0.7961,-0.7961,-0.7961,-0.7961,-0.7961,-0.7961,-0.7961,-0.7961,-0.7961,-0.7923,-0.777,-0.7621,-0.7314,-0.6773,-0.6118,-0.5538,-0.5198,-0.4579,-0.4157,-0.4099,-0.401,-0.3915,-0.3841,-0.3867,-0.3926,-0.3926,-0.4006,-0.4021,-0.4021,-0.3777,-0.3274,-0.255,-0.1819,-0.1265,-0.0885,-0.0631,-0.0416,-0.0245,0.0204,0.0446,0.0438,0.1069,0.142,0.142,0.1887,0.1887,0.142,0.1894,0.2127,-0.94,-0.9651,-0.9844,-1.0106,-0.9847,-0.9511,0.0,-0.9412,-0.966,-1.013,-1.0279,-1.048,-1.0909,-1.1498,-1.1948,-1.1988,-1.2677,-1.3278,-1.3381,-1.3692,-1.3911,-1.3911,-1.2978,-1.2634,-1.3321,-1.3381,-1.3411,-1.3472,-1.3827,-1.4204,-1.4565,-1.4881,-1.5257,-1.5614,-1.5666,-1.5683,-1.5726,-1.539,-1.5169,-1.5133,-1.4776,-1.4382,-1.3912,-1.339,-1.2842,-1.2342,-1.126,-1.0775,-1.0663,-1.0105,-0.9884,-0.9884,-0.9884,-0.9841,-0.9771,-0.9652,-0.9614,-0.9614,-0.9614,-0.9614,-0.9614,-0.9614,-0.9614,-0.9614,-0.9614,-0.9614,-0.9614,-0.9614,-0.9614,-0.9614,-0.9614,-0.9614,-0.9458,-0.8737,-0.8546,-0.8275,-0.7314,-0.7046,-0.6892,-0.6612,-0.5925,-0.5347,-0.526,-0.4615,-0.4102,-0.3925,-0.3963,-0.3978,-0.3978,-0.4102,-0.4157,-0.4157,-0.418,-0.3735,-0.2578,-0.2929,-0.2506,-0.0906,-0.1314,-0.1382,-0.0835,-0.0376,-0.0125,-0.0125,0.0449,0.0727,0.0727,0.0793,0.0793,0.0727,0.0768,0.08,-1.2009,-1.1852,-1.1567,-1.171,-1.1791,-1.1836,-1.1803,-1.2117,-1.2399,-1.2342,-1.2547,-1.2732,-1.2634,-1.3225,-1.3735,-1.3735,-1.4055,-1.4321,-1.4321,-1.4478,-1.4597,-1.4597,-1.4192,-1.4013,-1.4291,-1.4321,-1.4201,-1.3941,-1.4272,-1.4551,-1.4699,-1.5018,-1.5394,-1.5788,-1.5805,-1.5805,-1.5805,-1.562,-1.5426,-1.5204,-1.5026,-1.474,-1.4389,-1.3941,-1.3324,-1.2562,-1.1706,-1.1335,-1.1298,-1.1037,-1.0738,-1.0406,-1.0406,-1.0218,-0.9884,-0.9884,-0.9884,-0.9884,-0.9884,-0.9884,-0.9884,-0.9884,-0.9884,-0.9884,-0.9884,-0.9884,-0.9884,-0.9884,-0.9884,-0.9884,-0.9884,-0.9884,-0.9803,-0.9463,-0.9387,-0.9236,-0.8546,-0.8161,-0.7808,-0.7468,-0.6811,-0.6317,-0.6434,-0.5763,-0.5144,-0.5084,-0.4509,-0.4116,-0.4116,-0.4191,-0.4246,-0.4246,-0.4277,-0.4074,-0.3582,-0.382,-0.3624,-0.287,-0.2848,-0.2732,-0.2439,-0.1968,-0.1702,-0.1724,-0.1123,-0.0786,-0.0786,-0.0451,-0.0328,-0.0373,-0.0041,-0.0082,-1.4464,-1.4112,-1.3578,-1.3493,-1.3666,-1.3859,-1.3858,-1.4148,-1.4298,-1.3959,-1.4251,-1.444,-1.4096,-1.452,-1.4893,-1.4893,-1.4893,-1.4893,-1.4893,-1.504,-1.5128,-1.5128,-1.5216,-1.5303,-1.5303,-1.5069,-1.4715,-1.4249,-1.4687,-1.4879,-1.4699,-1.512,-1.5575,-1.5991,-1.5867,-1.5867,-1.6035,-1.5867,-1.5655,-1.539,-1.539,-1.5133,-1.474,-1.431,-1.3622,-1.2826,-1.2224,-1.1966,-1.1929,-1.1781,-1.1446,-1.1037,-1.1037,-1.0775,-1.0368,-1.0218,-1.003,-0.9884,-0.9884,-0.9884,-0.9884,-0.9884,-0.9884,-0.9884,-0.9884,-0.9884,-0.9884,-0.9884,-0.9884,-0.9884,-0.9884,-0.9884,-0.9884,-0.9884,-0.9884,-0.9809,-0.9544,-0.9117,-0.8727,-0.8428,-0.7812,-0.7417,-0.7645,-0.6933,-0.6363,-0.6414,-0.5499,-0.4683,-0.4295,-0.4261,-0.43,-0.43,-0.43,-0.43,-0.43,-0.43,-0.43,-0.43,-0.3989,-0.3783,-0.3725,-0.3283,-0.3001,-0.3042,-0.238,-0.2073,-0.2073,-0.1641,-0.1473,-0.1568,-0.1102,-0.1234,-1.6832,-1.6597,-1.6359,-1.62,-1.5706,-1.5253,-1.5243,-1.4812,-1.4411,-1.4383,-1.4648,-1.4874,-1.4874,-1.4883,-1.4893,-1.4893,-1.4893,-1.4893,-1.4893,-1.5342,-1.5672,-1.5672,-1.6087,-1.6345,-1.6345,-1.5478,-1.4715,-1.4249,-1.4917,-1.518,-1.4717,-1.5386,-1.6026,-1.6568,-1.607,-1.6035,-1.6568,-1.607,-1.5797,-1.577,-1.577,-1.5576,-1.5169,-1.4418,-1.3884,-1.3455,-1.282,-1.2562,-1.2526,-1.1929,-1.1706,-1.1669,-1.1669,-1.1669,-1.1558,-1.0999,-1.04,-0.9884,-0.9884,-0.9884,-0.9884,-0.9884,-0.9884,-0.9884,-0.9884,-0.9884,-0.9884,-0.9884,-0.9884,-0.9884,-0.9884,-0.9884,-0.9884,-0.9884,-0.9884,-0.9884,-0.9884,-0.9884,-0.9841,-0.9841,-0.9193,-0.8672,-0.8819,-0.8115,-0.7613,-0.7716,-0.6933,-0.5838,-0.4472,-0.4297,-0.43,-0.43,-0.43,-0.43,-0.43,-0.43,-0.43,-0.43,-0.43,-0.4297,-0.4293,-0.3807,-0.3583,-0.358,-0.3024,-0.2774,-0.2774,-0.2762,-0.2763,-0.2729,-0.2729,-0.2761,-1.9181,-1.893,-1.8572,-1.8145,-1.7612,-1.7214,-1.7167,-1.7016,-1.6648,-1.5941,-1.6131,-1.633,-1.6005,-1.5931,-1.5999,-1.6368,-1.6132,-1.5904,-1.5904,-1.6048,-1.6173,-1.6173,-1.6288,-1.6413,-1.6413,-1.6077,-1.581,-1.562,-1.6098,-1.6315,-1.6173,-1.6606,-1.6934,-1.7132,-1.6612,-1.6403,-1.6603,-1.607,-1.5805,-1.5805,-1.5541,-1.5177,-1.4784,-1.431,-1.3884,-1.3492,-1.3309,-1.32,-1.32,-1.2973,-1.2673,-1.2305,-1.2305,-1.204,-1.1669,-1.1484,-1.126,-1.0962,-1.018,-0.9884,-0.9884,-0.9884,-0.9884,-0.9884,-0.9884,-0.9884,-0.9884,-0.9884,-0.9884,-0.9884,-0.9884,-0.9884,-0.9884,-0.9884,-0.9884,-0.9884,-0.9884,-0.9884,-0.9884,-0.9884,-0.969,-0.9561,-0.979,-0.9183,-0.8538,-0.8123,-0.699,-0.5802,-0.4701,-0.4389,-0.43,-0.43,-0.43,-0.43,-0.43,-0.43,-0.43,-0.43,-0.43,-0.43,-0.43,-0.4166,-0.4076,-0.4076,-0.387,-0.3811,-0.3811,-0.3784,-0.3654,-0.3326,-0.3326,-0.316,-2.0459,-2.034,-2.0239,-1.9648,-1.9258,-1.9006,-1.8976,-1.865,-1.8194,-1.749,-1.7457,-1.7424,-1.7124,-1.7056,-1.7039,-1.7185,-1.6916,-1.6609,-1.6441,-1.6413,-1.6413,-1.6413,-1.6413,-1.6413,-1.6413,-1.6529,-1.6531,-1.6317,-1.6672,-1.6885,-1.6897,-1.7214,-1.7486,-1.7725,-1.7201,-1.689,-1.689,-1.6342,-1.6,-1.5805,-1.539,-1.5062,-1.4812,-1.431,-1.3956,-1.371,-1.3564,-1.3492,-1.3492,-1.3492,-1.3273,-1.2936,-1.2936,-1.2673,-1.2335,-1.2114,-1.2003,-1.1855,-1.0625,-1.0218,-1.018,-0.996,-0.9884,-0.9884,-0.9884,-0.9884,-0.9884,-0.9884,-0.9884,-0.9884,-0.9884,-0.9884,-0.9884,-0.9884,-0.9884,-0.9884,-0.9884,-0.9884,-0.9884,-0.9884,-0.9884,-1.0003,-1.025,-1.0064,-0.9599,-0.8832,-0.792,-0.6817,-0.5366,-0.5053,-0.4786,-0.4342,-0.43,-0.43,-0.43,-0.43,-0.43,-0.43,-0.43,-0.43,-0.43,-0.43,-0.43,-0.43,-0.43,-0.43,-0.43,-0.43,-0.4166,-0.3853,-0.3853,-0.3674,-2.0846,-2.1032,-2.1377,-2.0844,-2.0673,-2.0617,-2.0568,-1.9762,-1.9008,-1.8982,-1.8555,-1.8201,-1.8174,-1.8147,-1.7929,-1.7368,-1.723,-1.7017,-1.6563,-1.6431,-1.6402,-1.6431,-1.6413,-1.6413,-1.6444,-1.6769,-1.6848,-1.6437,-1.6753,-1.6978,-1.6992,-1.7292,-1.775,-1.8337,-1.7759,-1.7442,-1.7442,-1.689,-1.6342,-1.5805,-1.539,-1.5204,-1.5169,-1.4453,-1.4129,-1.4093,-1.371,-1.3528,-1.3492,-1.3492,-1.3492,-1.3492,-1.3492,-1.3492,-1.3419,-1.2856,-1.2636,-1.2489,-1.1298,-1.085,-1.0738,-1.0143,-0.9954,-0.996,-0.9922,-0.9884,-0.9884,-0.9884,-0.9884,-0.9884,-0.9884,-0.9884,-0.9884,-0.9884,-0.9884,-0.9884,-0.9884,-0.9884,-0.9884,-0.9884,-0.9884,-1.0003,-1.025,-1.0659,-1.0658,-0.9788,-0.9662,-0.8821,-0.6508,-0.6157,-0.5714,-0.4565,-0.4389,-0.4342,-0.4342,-0.4344,-0.43,-0.43,-0.43,-0.43,-0.43,-0.43,-0.43,-0.43,-0.43,-0.43,-0.43,-0.43,-0.43,-0.43,-0.43,-0.43,-2.2715,-2.2915,-2.2906,-2.2374,-2.2227,-2.2025,-2.1342,-2.0953,-2.0644,-2.0193,-1.9749,-1.94,-1.931,-1.8729,-1.8298,-1.8509,-1.7793,-1.7313,-1.7611,-1.6948,-1.6563,-1.6944,-1.6637,-1.6508,-1.681,-1.6944,-1.7225,-1.7821,-1.7953,-1.8177,-1.8504,-1.8636,-1.8731,-1.8908,-1.8361,-1.8066,-1.8066,-1.7088,-1.6342,-1.5805,-1.539,-1.5204,-1.5169,-1.4705,-1.4353,-1.4093,-1.3985,-1.3775,-1.3492,-1.3492,-1.3492,-1.3492,-1.3492,-1.3492,-1.3499,-1.3346,-1.3273,-1.3156,-1.2415,-1.1855,-1.1372,-1.0775,-1.0556,-1.0475,-1.003,-0.9884,-0.9884,-0.9884,-0.9884,-0.9884,-0.9884,-0.9884,-0.9884,-0.9884,-0.9884,-0.9884,-0.9884,-0.9884,-0.9884,-0.9884,-0.9884,-1.0003,-1.025,-1.039,-1.0509,-1.0637,-1.0653,-0.9928,-0.7943,-0.7166,-0.6725,-0.6416,-0.563,-0.5104,-0.5104,-0.4612,-0.43,-0.43,-0.43,-0.43,-0.43,-0.43,-0.43,-0.43,-0.43,-0.43,-0.43,-0.43,-0.43,-0.43,-0.43,-0.43,-2.3349,-2.3667,-2.3803,-2.3282,-2.3194,-2.3039,-2.2235,-2.1931,-2.169,-2.1363,-2.089,-2.0483,-2.0232,-1.9736,-1.9321,-1.9133,-1.8525,-1.8108,-1.819,-1.7584,-1.7151,-1.7202,-1.7109,-1.7038,-1.6986,-1.7368,-1.7833,-1.8372,-1.8414,-1.8611,-1.9077,-1.9108,-1.9108,-1.9108,-1.8808,-1.8539,-1.8303,-1.7157,-1.6438,-1.6132,-1.5488,-1.5275,-1.5426,-1.4856,-1.4597,-1.4561,-1.4418,-1.4173,-1.3992,-1.3992,-1.3992,-1.3964,-1.3819,-1.3828,-1.3918,-1.3778,-1.3799,-1.3864,-1.3376,-1.2991,-1.2546,-1.1521,-1.1186,-1.1074,-1.0481,-1.0293,-1.0255,-0.996,-0.9884,-0.9884,-0.9884,-0.9884,-0.9884,-0.9884,-0.9884,-0.9884,-0.9884,-0.9884,-0.9884,-0.9884,-0.9884,-0.9965,-1.0105,-1.0223,-1.0385,-1.0643,-1.0853,-1.0605,-0.9562,-0.8696,-0.7998,-0.7467,-0.664,-0.616,-0.616,-0.5586,-0.5099,-0.479,-0.479,-0.4656,-0.43,-0.43,-0.43,-0.43,-0.43,-0.43,-0.43,-0.43,-0.43,-0.43,-0.43,-0.43,-2.3451,-2.3962,-2.4287,-2.3809,-2.3846,-2.3782,-2.3112,-2.2709,-2.2475,-2.2443,-2.1964,-2.1441,-2.1066,-2.0919,-2.0547,-1.9566,-1.9279,-1.9042,-1.8608,-1.8298,-1.7918,-1.7424,-1.7656,-1.7704,-1.7159,-1.7895,-1.8434,-1.8497,-1.8507,-1.8683,-1.9088,-1.9108,-1.9108,-1.9108,-1.9108,-1.8831,-1.8303,-1.7329,-1.6742,-1.6603,-1.5762,-1.5532,-1.577,-1.5078,-1.4927,-1.5169,-1.4812,-1.4641,-1.4605,-1.4605,-1.4629,-1.4632,-1.438,-1.4361,-1.4547,-1.4268,-1.43,-1.446,-1.4137,-1.3982,-1.3773,-1.2287,-1.1818,-1.1706,-1.1111,-1.085,-1.07,-1.018,-0.996,-0.9884,-0.9884,-0.9884,-0.9884,-0.9884,-0.9884,-0.9884,-0.9884,-0.9884,-0.9884,-0.9884,-0.9884,-0.9884,-0.9884,-1.01,-1.0256,-1.0288,-1.0638,-1.0902,-1.0934,-1.0261,-0.9314,-0.8297,-0.7691,-0.7342,-0.7342,-0.682,-0.6251,-0.568,-0.5547,-0.5235,-0.461,-0.4565,-0.452,-0.4433,-0.4433,-0.4389,-0.43,-0.43,-0.43,-0.43,-0.43,-0.43,-2.4335,-2.48,-2.4855,-2.4374,-2.4558,-2.4578,-2.348,-2.3341,-2.3391,-2.3157,-2.2694,-2.2244,-2.2058,-2.1537,-2.0993,-2.0597,-1.9786,-1.937,-1.9811,-1.8845,-1.8108,-1.8124,-1.7996,-1.7804,-1.7605,-1.8081,-1.8569,-1.8953,-1.8984,-1.9015,-1.9098,-1.9108,-1.9108,-1.9108,-1.9108,-1.8831,-1.8303,-1.809,-1.7545,-1.6603,-1.6429,-1.6158,-1.5805,-1.5655,-1.5434,-1.5204,-1.5133,0.0,-1.4605,-1.4605,-1.4808,-1.5099,-1.5017,-1.5014,-1.4988,-1.495,-1.4724,-1.446,-1.4137,-1.3982,-1.3818,-1.2776,-1.2452,-1.2342,-1.1744,-1.1186,-1.0775,-1.0663,-1.0293,-0.9884,-0.9884,-0.9884,-0.9884,-0.9884,-0.9884,-0.9884,-0.9884,-0.9884,-0.9884,-0.9884,-0.9884,-0.9884,-0.9884,-0.996,-1.0056,-1.0261,-1.0363,-1.0482,-1.063,-1.0515,-1.0371,-1.0149,-0.9192,-0.858,-0.858,-0.761,-0.6949,-0.6817,-0.6425,-0.6166,-0.603,-0.603,-0.5766,-0.5238,-0.5193,-0.4924,-0.43,-0.43,-0.43,-0.43,-0.43,-0.43,-2.4944,-2.5419,-2.54,-2.4938,-2.5052,-2.4974,-2.3858,-2.3767,-2.3809,-2.3473,-2.315,-2.2822,-2.2558,-2.2025,-2.1479,-2.1066,-2.0384,-1.9952,-2.0182,-1.9618,-1.9056,-1.8724,-1.8557,-1.8382,-1.8178,-1.8302,-1.86,-1.9067,-1.9108,-1.9108,-1.9108,-1.9108,-1.9108,-1.9108,-1.9108,-1.8975,-1.8707,-1.8438,-1.7852,-1.7019,-1.6742,-1.6307,-1.5805,-1.5805,-1.5691,-1.5505,-1.5505,-1.5399,-1.5221,-1.5221,-1.5463,-1.5786,-1.561,-1.571,-1.5952,-1.5764,-1.5525,-1.528,-1.4943,-1.4563,-1.4141,-1.355,-1.3218,-1.2973,-1.2342,-1.1966,-1.1595,-1.0962,-1.0588,-1.0293,-0.9992,-0.9884,-0.9884,-0.9884,-0.9884,-0.9884,-0.9884,-0.9884,-0.9884,-0.9884,-0.9884,-0.9884,-0.9884,-0.9884,-0.996,-1.0083,-1.0213,-1.0336,-1.0444,-1.0552,-1.0637,-1.0794,-1.0177,-0.9806,-0.9806,-0.9061,-0.836,-0.7705,-0.7445,-0.7048,-0.6432,-0.6384,-0.6254,-0.5944,-0.5902,-0.5766,-0.5408,-0.5408,-0.5233,-0.4879,-0.4879,-0.4656,-2.5134,-2.558,-2.5611,-2.5313,-2.5381,-2.5266,-2.4214,-2.4105,-2.4084,-2.3625,-2.3429,-2.3253,-2.2934,-2.2503,-2.2016,-2.1455,-2.097,-2.0574,-2.0334,-2.0258,-1.9914,-1.9212,-1.9202,-1.9091,-1.869,-1.8625,-1.8751,-1.9067,-1.9108,-1.9108,-1.9108,-1.9108,-1.9108,-1.9108,-1.9108,-1.9108,-1.9108,-1.8674,-1.8168,-1.7588,-1.7028,-1.6473,-1.5973,-1.5832,-1.5805,-1.5805,-1.5805,-1.5805,-1.5805,-1.5805,-1.6071,-1.6473,-1.6141,-1.6395,-1.6875,-1.6557,-1.6378,-1.6157,-1.5851,-1.5289,-1.4658,-1.4258,-1.3829,-1.3419,-1.2936,-1.2709,-1.2415,-1.1446,-1.0999,-1.07,-1.0218,-0.9997,-0.9884,-0.9884,-0.9884,-0.9884,-0.9884,-0.9884,-0.9884,-0.9884,-0.9884,-0.9884,-0.9884,-0.9884,-0.9884,-0.9884,-1.0089,-1.0213,-1.0213,-1.0417,-1.0632,-1.0816,-1.0747,-1.0694,-1.0694,-1.0351,-0.9685,-0.8636,-0.8508,-0.7977,-0.6918,-0.6874,-0.6786,-0.665,-0.665,-0.6561,-0.6384,-0.6384,-0.6121,-0.5594,-0.5594,-0.5235,-2.4452,-2.4898,-2.5047,-2.5312,-2.5661,-2.5645,-2.4513,-2.4461,-2.443,-2.3745,-2.3538,-2.3466,-2.3444,-2.3083,-2.2618,-2.203,-2.1479,-2.1031,-2.0699,-2.0385,-2.0042,-1.9593,-1.9824,-1.9685,-1.8847,-1.9162,-1.9318,-1.9133,-1.9108,-1.9108,-1.9108,-1.9108,-1.9108,-1.9108,-1.9108,-1.9108,-1.9108,-1.9031,-1.8731,-1.8202,-1.7613,-1.7063,-1.6508,-1.6035,-1.5805,-1.5805,-1.5805,-1.5805,0.0,-1.5805,-1.6225,-1.6867,-1.6791,-1.7019,-1.7342,-1.7302,-1.7033,-1.6601,-1.6253,-1.5872,-1.5391,-1.4744,-1.4089,-1.3492,-1.3419,-1.3046,-1.2562,-1.2489,-1.1632,-1.0775,-1.0738,-1.0331,-0.9884,-0.9884,-0.9884,-0.9884,-0.9884,-0.9884,-0.9884,-0.9884,-0.9884,-0.9884,-0.9884,-0.9884,-0.9884,-0.9884,-0.9938,-0.9954,-0.9954,-1.0169,-1.0336,-1.0353,-1.071,-1.0973,-1.0973,-1.0696,-1.0332,-0.9864,-0.9432,-0.8955,-0.8432,-0.8388,-0.8072,-0.7401,-0.7401,-0.7048,-0.6384,-0.6384,-0.6387,-0.6299,-0.6299,-0.5944,-2.4573,-2.5251,-2.5716,-2.585,-2.6007,-2.5936,-2.5176,-2.4906,-2.4684,-2.4141,-2.3782,-2.3545,-2.3545,-2.3201,-2.2731,-2.2142,-2.1636,-2.1142,-2.0662,-2.0524,-2.0359,-2.0003,-1.9883,-1.9752,-1.9645,-1.9482,-1.939,-1.941,-1.9407,-1.9308,-1.9098,-1.9108,-1.9108,-1.9108,-1.9108,-1.9108,-1.9108,-1.9108,-1.8841,-1.8303,-1.8066,-1.7476,-1.6603,-1.6368,-1.6105,-1.5805,-1.5805,-1.5805,0.0,-1.5805,-1.6105,-1.6602,-1.6833,-1.7128,-1.7485,-1.7673,-1.7473,-1.705,-1.6684,-1.6181,-1.5537,-1.4789,-1.4221,-1.3811,-1.3564,-1.3346,-1.3083,-1.2709,-1.2268,-1.1781,-1.1446,-1.0887,-1.0368,-0.9992,-0.9884,-0.9884,-0.9884,-0.9884,-0.9884,-0.9884,-0.9884,-0.9884,-0.9884,-0.9884,-0.9884,-0.9884,-0.9884,-0.9884,-0.9884,-1.0008,-1.0067,-1.0067,-1.0492,-1.0772,-1.0772,-1.082,-1.0529,-0.9809,-0.9755,-0.9393,-0.8612,-0.8612,-0.8476,-0.816,-0.816,-0.8028,-0.772,-0.772,-0.7496,-0.7048,-0.7048,-0.6473,-2.438,-2.5057,-2.5639,-2.6086,-2.6202,-2.6079,-2.5612,-2.5275,-2.4922,-2.4405,-2.4036,-2.3745,-2.3616,-2.3334,-2.2957,-2.242,-2.1945,-2.1423,-2.0848,-2.0724,-2.0599,-2.0398,-2.0105,-2.0067,-2.0442,-2.0169,-1.9924,-1.9781,-1.9889,-1.9758,-1.9264,-1.9241,-1.9208,-1.9108,-1.9108,-1.9108,-1.9108,-1.9108,-1.8908,-1.8539,-1.8371,-1.7886,-1.7088,-1.6925,-1.6542,-1.6035,-1.6035,-1.5938,0.0,-1.5805,-1.6055,-1.6416,-1.6644,-1.6978,-1.7338,-1.7612,-1.7508,-1.7196,-1.6921,-1.6393,-1.5779,-1.5081,-1.4659,-1.4304,-1.3805,-1.3601,-1.3419,-1.2973,-1.2746,-1.2452,-1.1855,-1.126,-1.07,-1.0255,-1.003,-0.9884,-0.9884,-0.9884,-0.9884,-0.9884,-0.9884,-0.9884,-0.9884,-0.9884,-0.9884,-0.9884,-0.9884,-0.9884,-0.9884,-0.9884,-0.9884,-0.9884,-1.0184,-1.0415,-1.0485,-1.0623,-1.0408,-0.9644,-0.9652,-0.9369,-0.8652,-0.8612,-0.8612,-0.8612,-0.8612,-0.8612,-0.8612,-0.8612,-0.834,-0.7845,-0.7845,-0.7183,-2.3539,-2.3968,-2.4381,-2.5838,-2.6202,-2.6079,-2.5612,-2.5503,-2.5275,-2.4472,-2.4302,-2.4156,-2.3696,-2.3595,-2.3443,-2.2979,-2.2495,-2.1996,-2.1471,-2.0997,-2.0699,-2.0699,-2.0687,-2.0798,-2.1067,-2.1386,-2.1164,-2.0161,-2.057,-2.0516,-1.9638,-1.9605,-1.944,-1.9098,-1.9108,-1.9108,-1.9108,-1.9108,-1.9108,-1.9108,-1.8539,-1.8303,-1.8269,-1.7647,-1.7097,-1.6603,-1.6603,-1.6307,0.0,-1.5805,-1.6055,-1.639,-1.639,-1.6622,-1.6927,-1.6889,-1.6898,-1.6898,-1.6889,-1.6623,-1.6253,-1.5889,-1.5462,-1.4991,-1.4309,-1.3811,-1.3492,-1.3492,-1.3046,-1.2452,-1.1855,-1.126,-1.0812,-1.0775,-1.0331,-0.9884,-0.9884,-0.9884,-0.9884,-0.9884,-0.9884,-0.9884,-0.9884,-0.9884,-0.9884,-0.9884,-0.9884,-0.9884,-0.9884,-0.9884,-0.9884,-0.9884,-0.9889,-1.003,-1.0277,-1.0138,-0.9911,-0.9634,-0.9217,-0.8884,-0.8604,-0.8612,-0.8612,-0.8612,-0.8612,-0.8612,-0.8612,-0.8612,-0.8612,-0.8568,-0.8568,-0.8208,-2.3987,-2.4529,-2.5029,-2.6235,-2.6381,-2.6168,-2.6008,-2.5721,-2.5351,-2.4803,-2.4492,-2.4156,-2.3696,-2.3595,-2.3443,-2.2979,-2.2777,-2.2503,-2.1955,-2.1482,-2.118,-2.118,-2.1264,-2.1353,-2.1421,-2.1952,-2.207,-2.151,-2.1333,-2.1028,-2.0516,-1.9922,-1.944,-1.9098,-1.9108,-1.9108,-1.9108,-1.9108,-1.9108,-1.9108,-1.8942,-1.864,-1.8303,-1.81,-1.7681,-1.7132,-1.7132,-1.6855,-1.6342,-1.6342,-1.621,-1.6038,-1.6287,-1.6458,-1.6513,-1.6787,-1.688,-1.6846,-1.6573,-1.6405,-1.6198,-1.5574,-1.5306,-1.5065,-1.4601,-1.4201,-1.3848,-1.3564,-1.3346,-1.3083,-1.2489,-1.215,-1.1818,-1.0999,-1.0663,-1.04,-0.9992,-0.9884,-0.9884,-0.9884,-0.9884,-0.9884,-0.9884,-0.9884,-0.9884,-0.9884,-0.9884,-0.9884,-0.9884,-0.9884,-0.9884,-0.9884,-0.9884,-0.9954,-1.003,-1.0144,-0.9911,-0.9219,-0.9322,-0.9126,-0.8416,-0.8543,-0.8612,-0.8612,-0.8612,-0.8612,-0.8612,-0.8612,-0.8612,-0.8568,-0.8072,-0.7713,-2.3972,-2.4496,-2.4979,-2.6218,-2.6346,-2.6202,-2.6202,-2.5972,-2.5591,-2.502,-2.4699,-2.4333,-2.3702,-2.3595,-2.3508,-2.3224,-2.3024,-2.2694,-2.2175,-2.1708,-2.1326,-2.1155,-2.1394,-2.1573,-2.1612,-2.2333,-2.2683,-2.2304,-2.2021,-2.1628,-2.1123,-2.0366,-1.9824,-1.9495,-1.9231,-1.9164,-1.9274,-1.9164,-1.9108,-1.9108,-1.9108,-1.8942,-1.8607,-1.8607,-1.8293,-1.7759,-1.7759,-1.7407,0.0,-1.6673,-1.6403,-1.6096,-1.6161,-1.6139,-1.6129,-1.6405,-1.6499,-1.6465,-1.6216,-1.6095,-1.606,-1.5572,-1.5311,-1.5161,-1.4883,-1.4489,-1.4021,-1.3601,-1.3492,-1.3419,-1.3046,-1.2783,-1.2342,-1.1372,-1.0962,-1.0625,-1.003,-0.9884,-0.9884,-0.9884,-0.9884,-0.9884,-0.9884,-0.9884,-0.9884,-0.9884,-0.9884,-0.9884,-0.9884,-0.9884,-0.9884,-0.9884,-0.9884,-0.9884,-0.9884,-0.9909,-0.9725,-0.9252,-0.9185,-0.8976,-0.8535,-0.8484,-0.8539,-0.8608,-0.8612,-0.8612,-0.8612,-0.8612,-0.8612,-0.8568,-0.8116,-0.7937,0.0,-2.3967,-2.4348,-2.5825,-2.6188,-2.6202,-2.6202,-2.6202,0.0,-2.5134,-2.4922,-2.4643,-2.3809,-2.3616,-2.3595,-2.3595,-2.3224,-2.2777,-2.2267,-2.1779,-2.1277,-2.0799,-2.1184,-2.1562,-2.1684,-2.2607,-2.3061,-2.2737,-2.2695,-2.2298,-2.1545,-2.0955,-2.0506,-2.0193,-1.9528,-1.9308,-1.9605,-1.9274,-1.9108,-1.9108,-1.9108,-1.9108,-1.9108,-1.9108,-1.8841,0.0,-1.8371,-1.8032,-1.7442,-1.6915,-1.6673,-1.6533,-1.6035,-1.5832,-1.5805,-1.5805,-1.5805,-1.5805,-1.5805,-1.5805,-1.5805,-1.5805,-1.5541,-1.524,-1.5204,-1.4661,-1.4021,-1.3637,-1.3528,-1.3492,-1.3492,-1.3083,-1.2526,-1.1892,-1.1335,-1.0738,-1.0105,-0.996,-0.9954,-0.9922,-0.9884,-0.9884,-0.9884,-0.9884,-0.9884,-0.9884,-0.9884,-0.9884,-0.9884,-0.9884,-0.9884,-0.9884,-0.9884,-0.9884,-0.9884,-0.9544,-0.9407,-0.9571,-0.8888,-0.8586,-0.8877,-0.8535,-0.842,-0.8608,-0.8612,-0.8612,-0.8612,-0.8612,-0.8612,-0.8612,-0.8612,-0.8612,-2.3209,0.0,-2.433,-2.5704,-2.6118,-2.6202,0.0,-2.6202,-2.6043,-2.5481,-2.5102,-2.4744,-2.4224,-2.3846,-2.3595,-2.3595,-2.3508,-2.3399,-2.3275,-2.2498,-2.1766,-2.1302,-2.1375,-2.1826,-2.2671,-2.3023,-2.3345,-2.3725,-2.3407,-2.2944,-2.2359,-2.1628,-2.1146,-2.0967,-2.0237,-1.9791,-1.9605,-1.9506,-1.9341,-1.9108,-1.9108,-1.9108,-1.9108,-1.9108,-1.9031,-1.8908,-1.8908,-1.8607,-1.8066,-1.7964,-1.7398,-1.6603,-1.6473,-1.6167,-1.5805,-1.5805,-1.5805,-1.5805,-1.5805,-1.5805,-1.5805,-1.5805,-1.5726,-1.5611,-1.5275,-1.4661,-1.4093,-1.3992,-1.3739,-1.3492,-1.3492,-1.3382,-1.3119,-1.2526,-1.2268,-1.1892,-1.0812,-1.0588,-1.0443,-0.9992,-0.9884,-0.9884,-0.9884,-0.9884,-0.9884,-0.9884,-0.9884,-0.9884,-0.9884,-0.9884,-0.9884,-0.9884,-0.9884,-0.9884,-0.9884,-0.9809,-0.964,-0.9392,-0.9354,-0.9129,-0.8689,-0.8711,-0.8713,-0.8608,-0.8612,-0.8612,-0.8612,-0.8612,-0.8612,-0.8612,-0.8612,-0.8612,-2.2699,-2.3463,-2.444,-2.5497,-2.5984,-2.6202,-2.6202,-2.6202,-2.6061,-2.5594,-2.5179,-2.4823,-2.4634,-2.4042,-2.3659,-2.3888,-2.3739,-2.3508,-2.3312,-2.2589,-2.2025,-2.1756,-2.1814,-2.219,-2.3028,-2.3174,-2.3443,-2.4044,-2.3671,-2.3168,-2.2634,-2.197,-2.1482,-2.1221,-2.0796,-2.0377,-1.9824,-1.9671,-1.944,-1.9108,-1.9108,-1.9108,-1.9108,-1.9108,-1.9108,-1.9108,-1.9108,-1.8942,-1.864,-1.8405,-1.7954,-1.7364,-1.7097,-1.6647,-1.6167,-1.6167,-1.6,-1.5805,-1.5805,-1.5805,-1.5805,-1.5805,-1.5805,-1.5761,-1.5541,-1.507,-1.4517,-1.4201,-1.3811,-1.3492,-1.3492,-1.3492,-1.3346,-1.2746,-1.2599,-1.2268,-1.1074,-1.0812,-1.0625,-1.003,-0.9884,-0.9884,-0.9884,-0.9884,-0.9884,-0.9884,-0.9884,-0.9884,-0.9884,-0.9884,-0.9884,-0.9884,-0.9884,-0.9884,-0.9884,-0.9884,-0.9809,-0.9582,-0.9504,-0.9365,-0.92,-0.9142,-0.9048,-0.8907,-0.87,-0.8612,-0.8612,-0.8612,-0.8612,-0.8612,-0.8612,-0.8612,-2.2261,-2.3323,-2.4548,-2.519,-2.5765,-2.6202,-2.6202,-2.6202,-2.6079,-2.5703,-2.5291,-2.5001,-2.5001,-2.4338,-2.3915,-2.424,-2.3909,-2.3443,-2.2979,-2.2512,-2.2221,-2.2221,-2.2187,-2.2441,-2.3145,-2.3136,-2.3367,-2.4031,-2.373,-2.3288,-2.2768,-2.2279,-2.1784,-2.1316,-2.1221,-2.086,-2.0172,-1.9889,-1.9572,-1.9175,-1.9175,-1.9142,-1.9108,-1.9108,-1.9108,-1.9108,-1.9108,0.0,-1.9065,-1.8607,-1.8371,-1.8236,-1.7759,-1.7166,-1.6603,-1.6603,-1.6272,-1.5805,-1.5805,-1.5805,-1.5805,-1.5805,-1.5805,-1.5805,-1.5805,-1.5541,-1.5062,-1.4446,-1.3956,-1.3601,-1.3601,-1.3564,-1.3382,-1.2856,-1.2746,-1.2415,-1.1335,-1.0999,-1.0775,-1.0143,-0.996,-0.9884,-0.9884,-0.9884,-0.9884,-0.9884,-0.9884,-0.9884,-0.9884,-0.9884,-0.9884,-0.9884,-0.9884,-0.9884,-0.9884,-0.9884,-0.9884,-0.9884,-0.9587,-0.9562,-0.9887,-0.9512,-0.9293,-0.9297,-0.8828,-0.8612,-0.8612,-0.8612,-0.8612,-0.8612,-0.8612,-0.8612,-2.2554,-2.3482,-2.4429,-2.4547,-2.538,-2.6202,-2.6202,-2.6202,-2.6168,-2.6114,-2.5738,-2.5408,-2.5408,-2.5024,-2.4603,-2.4343,-2.3909,-2.3443,-2.2979,-2.2822,-2.2777,-2.2777,-2.2052,-2.2128,-2.362,-2.3017,-2.2977,-2.4005,-2.4024,-2.3776,-2.33,-2.2768,-2.2267,-2.1827,-2.14,-2.0999,-2.0539,-2.0474,-2.015,-1.9506,-1.9506,-1.9374,-1.9108,-1.9108,-1.9108,-1.9108,0.0,-1.9108,-1.9098,-1.9008,-1.8697,-1.8303,-1.8202,-1.7501,-1.6603,-1.6603,-1.6272,-1.5805,-1.5805,-1.5805,-1.5805,-1.5805,-1.5805,-1.5805,-1.5805,-1.5541,-1.5169,-1.5054,-1.4525,-1.4029,-1.4029,-1.3775,-1.3499,-1.3382,-1.3346,-1.3156,-1.2489,-1.1929,-1.1372,-1.0775,-1.0255,-0.9884,-0.9884,-0.9884,-0.9884,-0.9884,-0.9884,-0.9884,-0.9884,-0.9884,-0.9884,-0.9884,-0.9884,-0.9884,-0.9884,-0.9884,-0.9884,-0.9884,-0.9846,-0.9828,-0.9887,-0.9503,-0.9287,-0.9301,-0.8828,-0.8612,-0.8612,-0.8612,-0.8612,-0.8612,-0.8612,-0.8612,-2.2443,-2.3494,-2.4549,-2.4257,-2.5196,-2.6202,-2.6202,-2.6202,-2.6202,-2.6202,-2.583,-2.5594,-2.583,-2.5346,-2.4779,-2.4364,-2.3909,-2.3508,-2.3312,-2.329,-2.329,-2.329,-2.2919,-2.2887,-2.3361,-2.3049,-2.2882,-2.3158,-2.3184,-2.2961,-2.2452,-2.2196,-2.1731,-2.1063,-2.0835,-2.0526,-2.012,-2.0109,-2.0026,-1.9889,-1.9889,-1.9693,-1.9374,-1.9374,-1.9274,-1.9108,0.0,-1.9108,-1.9108,-1.9108,-1.8931,-1.8741,-1.8741,-1.8056,-1.6959,-1.6377,-1.6,-1.5805,-1.5805,-1.5805,-1.5805,-1.5805,-1.5805,-1.5805,-1.5805,-1.5691,-1.5541,-1.5541,-1.4856,-1.4093,-1.4093,-1.3811,-1.3492,-1.3492,-1.3492,-1.3346,-1.2716,-1.212,-1.1521,-1.0925,-1.0331,-0.9884,-0.9884,-0.9884,-0.9884,-0.9884,-0.9884,-0.9884,-0.9884,-0.9884,-0.9884,-0.9884,-0.9884,-0.9976,-1.011,-1.0121,-1.0121,-1.0121,-1.0239,-1.0341,-1.0481,-0.9919,-0.9646,-0.9694,-0.8955,-0.8612,-0.8612,-0.8612,-0.8612,-0.8612,-0.8612,-0.8612,-2.2402,-2.348,-2.4549,-2.413,-2.511,-2.6202,-2.6202,-2.6202,-2.6202,-2.6202,-2.5901,-2.5775,-2.6132,-2.557,-2.4902,-2.4513,-2.4057,-2.3739,-2.3616,-2.3595,-2.3595,-2.3595,-2.359,-2.343,-2.3041,-2.2953,-2.2763,-2.2427,-2.2414,-2.2225,-2.1803,-2.1665,-2.1291,-2.0624,-2.0406,-2.014,-1.9854,-1.9748,-1.9754,-1.9864,-1.9864,-1.9683,-1.9383,-1.9392,-1.9271,-1.9041,-1.909,-1.9108,-1.9108,-1.9108,-1.9108,-1.9108,-1.9108,-1.8395,-1.727,-1.6351,-1.5903,-1.5805,-1.5805,-1.5805,-1.5805,-1.5805,-1.5805,-1.5805,-1.5805,-1.5805,-1.5805,-1.5805,-1.5106,-1.4346,-1.4238,-1.392,-1.3637,-1.3528,-1.3492,-1.3382,-1.29,-1.2342,-1.1781,-1.1298,-1.0625,-1.0105,-1.0105,-0.9992,-0.9884,-0.9884,-0.9884,-0.9884,-0.9884,-0.9884,-0.9943,-1.0003,-1.0008,-1.0105,-1.0353,-1.0374,-1.0396,-1.0455,-1.0622,-1.0799,-1.0977,-1.0391,-1.0033,-0.9994,-0.9174,-0.87,-0.8612,-0.8612,-0.8612,-0.8612,-0.8612,-0.8612,-2.2673,-2.3499,-2.4146,-2.4098,-2.5161,-2.6202,-2.6202,-2.6202,-2.6202,-2.6202,-2.6168,-2.615,-2.6185,-2.5793,-2.5332,-2.4922,-2.4513,-2.4114,-2.3659,-2.3595,-2.3595,-2.3595,-2.3223,-2.2974,-2.2985,-2.2619,-2.2386,-2.2388,-2.2413,-2.2387,-2.2321,-2.1858,-2.1569,-2.1514,-2.071,-2.0291,-2.0274,-1.9901,-1.9533,-1.9167,-1.9167,-1.8997,-1.8666,-1.8795,-1.8829,-1.8818,-1.901,-1.9108,-1.9108,-1.9108,-1.9108,-1.9108,-1.9108,-1.8395,-1.7348,-1.6751,-1.6237,-1.5805,-1.5805,-1.5805,-1.5805,-1.5805,-1.5805,-1.5805,-1.5805,-1.5805,-1.5805,-1.5805,-1.5461,-1.5026,-1.4677,-1.4317,-1.3956,-1.3601,-1.3492,-1.3492,-1.3455,-1.2973,-1.2526,-1.2489,-1.1521,-1.0738,-1.0738,-1.0255,-0.9884,-0.9884,-0.9884,-0.9884,-0.9884,-0.9884,-1.0008,-1.0245,-1.0266,-1.0358,-1.0549,-1.0571,-1.0662,-1.0918,-1.095,-1.0966,-1.0982,-1.0691,-1.0376,-0.9994,-0.9519,-0.9047,-0.8612,-0.8612,-0.8612,-0.8612,-0.8612,-0.8612,-2.311,-2.3828,-2.4467,-2.497,-2.5815,-2.6452,-2.6257,-2.6202,-2.6202,-2.6202,-2.6202,-2.6202,-2.6202,-2.5811,-2.537,-2.4962,-2.4574,-2.4135,-2.3659,-2.3595,-2.3595,-2.3595,-2.3443,-2.3223,-2.2956,-2.2776,-2.2544,-2.2235,-2.1951,-2.1788,-2.1775,-2.1302,-2.09,-2.0625,-2.028,-1.9863,-1.9369,-1.9227,-1.892,-1.8487,-1.9152,-1.9268,-1.8909,-1.9085,-1.904,-1.8797,-1.9022,-1.9108,-1.9108,-1.9108,-1.9108,-1.9031,-1.8327,-1.7784,-1.727,-1.6412,-1.5964,-1.5805,-1.5805,-1.5805,-1.5805,-1.5805,-1.5805,-1.5805,-1.5805,-1.5805,-1.5805,-1.5805,-1.5691,-1.547,-1.5062,-1.4525,-1.4057,-1.392,-1.3674,-1.3492,-1.3492,-1.3046,-1.2599,-1.2599,-1.1632,-1.0812,-1.0812,-1.0293,-0.9884,-0.9884,-0.9884,-0.9884,-0.9884,-1.0056,-1.0186,-1.0283,-1.0552,-1.0762,-1.0842,-1.0951,-1.1075,-1.1166,-1.1069,-1.1052,-1.1166,-1.0811,-1.0419,-0.9994,-0.9519,-0.9087,-0.8612,-0.8612,-0.8612,-0.8612,-0.8612,-0.8612,-2.3036,-2.386,-2.4637,-2.5084,-2.598,-2.664,-2.6292,-2.6292,-2.6329,-2.6221,-2.6202,-2.6202,-2.6202,-2.5954,-2.5591,-2.5157,-2.4759,-2.4328,-2.3888,-2.3681,-2.3595,-2.3595,-2.3595,-2.3421,-2.2957,-2.2889,-2.2672,-2.2128,-2.1789,-2.1554,-2.1423,-2.1106,-2.0711,-2.0245,-2.0067,-1.9747,-1.9172,-1.9052,-1.8759,-1.834,-1.906,-1.9183,-1.8796,-1.8983,-1.9006,-1.8898,-1.8965,-1.9095,-1.9241,-1.9131,-1.9108,-1.9008,-1.8226,-1.7716,-1.7314,-1.6586,-1.6079,-1.5805,-1.5805,-1.5805,-1.5805,-1.5805,-1.5805,-1.5805,-1.5805,-1.5805,-1.5805,-1.5805,-1.5805,-1.5726,-1.5461,-1.4919,-1.4418,-1.4274,-1.3956,-1.3674,-1.3674,-1.3266,-1.2863,-1.2863,-1.2077,-1.1372,-1.1372,-1.07,-1.018,-1.018,-1.003,-0.9884,-0.9884,-1.0137,-1.0347,-1.0498,-1.0864,-1.1101,-1.1101,-1.1214,-1.1305,-1.1305,-1.115,-1.1176,-1.13,-1.0992,-1.0554,-0.9994,-0.9694,-0.9218,-0.8612,-0.8612,-0.8612,-0.8612,-0.8612,-0.8612,-2.2334,-2.348,-2.4518,-2.421,-2.5462,-2.6691,-2.631,-2.6452,-2.6607,-2.6274,-2.6202,-2.6202,-2.6202,-2.6202,-2.6043,-2.5594,-2.516,-2.4764,-2.4364,-2.3909,-2.3595,-2.3595,-2.3595,-2.3421,-2.2957,-2.2912,-2.2694,-2.2151,-2.2105,-2.1908,-2.1434,-2.1399,-2.118,-2.0699,-2.0232,-1.9991,-1.9991,-1.9617,-1.921,-1.8798,-1.8798,-1.8556,-1.8107,-1.8312,-1.8661,-1.9089,-1.8888,-1.9115,-1.9572,-1.9231,-1.9108,-1.9108,-1.9098,-1.8395,-1.7417,-1.7407,-1.6726,-1.5805,-1.5805,-1.5805,-1.5805,-1.5805,-1.5805,-1.5805,-1.5805,-1.5805,-1.5805,-1.5805,-1.5805,-1.5805,-1.5805,-1.5505,-1.5098,-1.4713,-1.4346,-1.4093,-1.4093,-1.3775,-1.3492,-1.3492,-1.301,-1.2599,-1.2599,-1.1595,-1.0812,-1.0775,-1.0293,-0.9884,-0.9889,-1.0143,-1.0476,-1.0939,-1.116,-1.1305,-1.1305,-1.1305,-1.1305,-1.1305,-1.1305,-1.1305,-1.1305,-1.1305,-1.0873,-1.0038,-0.9994,-0.9519,-0.8612,-0.8612,-0.8612,-0.8612,-0.8612,-0.8612,-2.3498,-2.4059,-2.4618,-2.5826,-2.6436,-2.6708,-2.664,-2.6486,-2.6311,-2.6221,-2.6202,-2.6202,-2.6202,-2.6202,-2.6043,-2.5594,-2.5408,-2.5079,-2.4405,-2.4177,-2.3973,-2.3653,-2.3595,-2.3551,-2.3399,-2.3399,-2.3334,-2.3165,-2.2852,-2.2443,-2.1931,-2.1578,-2.118,-2.0699,-2.0574,-2.0321,-1.9991,-1.9875,-1.963,-1.921,-1.8931,-1.8556,-1.8107,-1.8312,-1.8661,-1.9089,-1.8888,-1.9233,-1.9911,-1.9605,-1.9308,-1.9065,-1.8674,-1.8337,-1.7998,-1.7545,-1.6959,-1.6368,-1.6368,-1.6105,-1.5805,-1.5805,-1.5805,-1.5805,-1.5805,-1.5805,-1.5805,-1.5805,-1.5805,-1.5805,-1.5805,-1.5726,-1.5505,-1.5133,-1.474,-1.4389,-1.4165,-1.4029,-1.3848,-1.3564,-1.301,-1.2489,-1.204,-1.1335,-1.0663,-1.0218,-0.9992,-1.0002,-1.034,-1.0632,-1.0902,-1.1166,-1.1268,-1.1305,-1.1305,-1.1305,-1.1305,-1.1305,-1.1305,-1.1305,-1.1305,-1.0992,-1.0554,-0.9994,-0.9694,-0.9218,-0.8612,-0.8612,-0.8612,-0.8612,-0.8612,-0.8612,-2.3488,-2.407,-2.462,-2.5915,-2.6488,-2.6725,-2.6624,-2.64,-2.6222,-2.6203,-2.6202,-2.6202,-2.6202,-2.6202,-2.6114,-2.5811,-2.5612,-2.5332,-2.4843,-2.4492,-2.4198,-2.3909,-2.3702,-2.3595,-2.3595,-2.3595,-2.3595,-2.3595,-2.3334,-2.2957,-2.2443,-2.2156,-2.1684,-2.0997,-2.0997,-2.0761,-2.0296,-2.0296,-2.0067,-1.963,-1.9408,-1.896,-1.8379,-1.8305,-1.856,-1.9028,-1.904,-1.9276,-1.9682,-1.9462,-1.9274,-1.9075,-1.8731,-1.8506,-1.8269,-1.7896,-1.727,-1.6603,-1.6603,-1.6237,-1.5805,-1.5805,-1.5805,-1.5805,-1.5805,-1.5805,-1.5805,-1.5805,-1.5805,-1.5805,-1.5805,-1.5805,-1.5726,-1.5505,-1.5133,-1.4776,-1.4597,-1.431,-1.4029,-1.3775,-1.3302,-1.2826,-1.2489,-1.1706,-1.1037,-1.0663,-1.0307,-1.0207,-1.0544,-1.0837,-1.1079,-1.1284,-1.1305,-1.1305,-1.1305,-1.1305,-1.1305,-1.1305,-1.1305,-1.1219,-1.1041,-1.0771,-1.0419,-0.9994,-0.9519,-0.9087,-0.8612,-0.8612,-0.8612,-0.8612,-0.8612,-0.8612,-2.2821,-2.3737,-2.4582,-2.5079,-2.6,-2.6674,-2.6366,-2.6295,-2.6294,-2.6203,-2.6202,-2.6202,-2.6202,-2.6202,-2.6202,-2.6202,-2.583,-2.554,-2.5503,-2.4863,-2.4405,-2.4364,-2.3952,-2.3659,-2.3659,-2.3616,-2.3595,-2.3595,-2.3595,-2.3399,-2.2934,-2.2889,-2.2434,-2.1423,-2.1399,-2.118,-2.0699,-2.0699,-2.0485,-2.0067,-2.0016,-1.9618,-1.8893,-1.8383,-1.8437,-1.8925,-1.9321,-1.9394,-1.9198,-1.9198,-1.9164,-1.9131,-1.9098,-1.8808,-1.8371,-1.8371,-1.7681,-1.6742,-1.6673,-1.6307,-1.5867,-1.5841,-1.5805,-1.5805,-1.5805,-1.5805,-1.5805,-1.5805,-1.5805,-1.5805,-1.5805,-1.5805,-1.5805,-1.5805,-1.5541,-1.524,-1.5204,-1.4625,-1.4129,-1.4093,-1.3775,-1.3499,-1.3419,-1.2452,-1.1669,-1.1558,-1.0835,-1.0401,-1.0571,-1.0859,-1.1101,-1.1284,-1.1305,-1.1305,-1.1305,-1.1305,-1.1305,-1.1305,-1.1305,-1.1084,-1.0636,-1.0549,-1.0337,-0.9951,-0.9476,-0.9043,-0.8612,-0.8612,-0.8612,-0.8612,-0.8612,-0.8612,-2.3577,-2.4044,-2.4478,-2.5729,-2.6231,-2.64,-2.6313,-2.6295,-2.6294,-2.6203,-2.6202,-2.6202,-2.6202,-2.6202,-2.6202,-2.6202,-2.6132,-2.5919,-2.554,-2.5351,-2.5121,-2.4819,-2.4395,-2.4156,-2.4156,-2.3824,-2.3595,-2.3595,-2.3595,-2.3399,-2.2934,-2.2889,-2.2434,-2.1423,-2.1399,-2.118,-2.0699,-2.0699,-2.0649,-2.0549,-2.0182,-1.9914,-1.9721,-1.8987,-1.88,-1.9093,-1.9863,-2.005,-1.9879,-1.9879,-1.9715,-1.9473,-1.9208,-1.9031,-1.8942,-1.8942,-1.8496,-1.7852,-1.7407,-1.689,-1.6368,-1.5938,-1.5805,-1.5805,-1.5805,-1.5805,-1.5805,-1.5805,-1.5805,-1.5805,-1.5805,-1.5805,-1.5805,-1.5805,-1.5726,-1.5576,-1.5275,-1.4812,-1.4418,-1.4165,-1.3775,-1.3346,-1.2863,-1.2194,-1.1372,-1.0438,-1.0439,-1.0538,-1.0587,-1.0967,-1.1246,-1.13,-1.1305,-1.1305,-1.1305,-1.1305,-1.1305,-1.1305,-1.1305,-1.1084,-1.0636,-1.0294,-0.9907,-0.9476,-0.9003,-0.8696,-0.8612,-0.8612,-0.8612,-0.8612,-0.8612,-0.8612,-2.3845,-2.4364,-2.488,-2.6098,-2.6347,-2.6313,-2.6382,-2.6347,-2.6294,-2.6203,-2.6202,-2.6202,-2.6202,-2.6202,-2.6202,-2.6202,-2.6202,-2.6097,-2.5883,-2.5631,-2.5427,-2.5218,-2.4659,-2.4302,-2.4302,-2.3867,-2.3595,-2.3595,-2.3595,-2.3486,-2.3246,-2.3246,-2.2875,-2.2133,-2.1874,-2.1506,-2.1033,-2.0799,-2.0699,-2.0699,-2.046,-2.0207,-1.9965,-1.9172,-1.8896,-1.9066,-1.9576,-1.9767,-1.9758,-1.9825,-1.9758,-1.9572,-1.9241,-1.9108,-1.9108,-1.9108,-1.8774,-1.8202,-1.7613,-1.7063,-1.6508,-1.5964,-1.5805,-1.5805,-1.5805,-1.5805,-1.5805,-1.5805,-1.5805,-1.5805,-1.5805,-1.5805,-1.5805,-1.5805,-1.5805,-1.5726,-1.5541,-1.5034,-1.4569,-1.4382,-1.3884,-1.3382,-1.3083,-1.2298,-1.1298,-1.0067,-1.0292,-1.0597,-1.0597,-1.101,-1.1305,-1.1305,-1.1305,-1.1305,-1.1305,-1.1305,-1.1305,-1.1305,-1.1305,-1.0997,-1.0337,-1.012,-0.9777,-0.9305,-0.8828,-0.8612,-0.8612,-0.8612,-0.8612,-0.8612,-0.8612,-0.8612,-2.393,-2.4697,-2.5476,-2.63,-2.6399,-2.6312,-2.6468,-2.6399,-2.6259,-2.6203,-2.6202,-2.6202,-2.6202,-2.6202,-2.6202,-2.6202,-2.6202,-2.6202,-2.6202,-2.5883,-2.5612,-2.5612,-2.4899,-2.439,-2.439,-2.3931,-2.3595,-2.3595,-2.3595,-2.3595,-2.3595,-2.3595,-2.3377,-2.2912,-2.2397,-2.186,-2.1385,-2.0923,-2.0699,-2.0699,-2.0699,-2.0485,-2.0105,-1.9277,-1.8963,-1.9078,-1.9161,-1.9326,-1.9577,-1.9641,-1.9704,-1.9638,-1.9231,-1.9108,-1.9108,-1.9108,-1.8808,-1.8337,-1.7759,-1.727,-1.6786,-1.614,-1.5938,-1.5938,-1.5832,-1.5805,-1.5805,-1.5805,-1.5805,-1.5805,-1.5805,-1.5805,-1.5805,-1.5805,-1.5805,-1.5805,-1.5805,-1.5185,-1.4605,-1.4605,-1.3992,-1.3455,-1.3346,-1.2415,-1.1335,-1.0218,-1.0365,-1.0597,-1.0597,-1.101,-1.1305,-1.1305,-1.1305,-1.1305,-1.1305,-1.1305,-1.1305,-1.1305,-1.1305,-1.0954,-1.0125,-1.0038,-0.9777,-0.9305,-0.8828,-0.8612,-0.8612,-0.8612,-0.8612,-0.8612,-0.8612,-0.8612,-2.4009,-2.5096,-2.6123,-2.6434,-2.6363,-2.6257,-2.645,-2.6345,-2.6203,-2.6203,-2.6202,-2.6202,-2.6202,-2.6202,-2.6202,-2.6202,-2.6202,-2.6202,-2.6202,-2.615,-2.6114,-2.6114,-2.5362,-2.4803,-2.4803,-2.4069,-2.3595,-2.3595,-2.3595,-2.3595,-2.3595,-2.3595,-2.3377,-2.2912,-2.2397,-2.186,-2.1385,-2.0923,-2.0699,-2.0699,-2.0699,-2.0674,-2.0574,-1.9694,-1.9356,-1.9431,-1.9564,-1.9874,-2.0262,-2.0103,-2.0042,-1.9977,-1.933,-1.9108,-1.9108,-1.9108,-1.9031,-1.8931,-1.8371,-1.8134,-1.7886,-1.6846,-1.6508,-1.6403,-1.5938,-1.5805,-1.5805,-1.5805,-1.5805,-1.5805,-1.5805,-1.5805,-1.5805,-1.5805,-1.5805,-1.5805,-1.5805,-1.5185,-1.4605,-1.4605,-1.3992,-1.3346,-1.2826,-1.215,-1.1484,-1.0775,-1.0634,-1.0597,-1.0597,-1.101,-1.1305,-1.1305,-1.1305,-1.1305,-1.1305,-1.1305,-1.1305,-1.1305,-1.1305,-1.1084,-1.0549,-1.0207,-0.9777,-0.9305,-0.8828,-0.8612,-0.8612,-0.8612,-0.8612,-0.8612,-0.8612,-0.8612,-2.5029,-2.5777,-2.6293,-2.6381,-2.6312,-2.6277,-2.6381,-2.6276,-2.6202,-2.6202,-2.6202,-2.6202,-2.6202,-2.6202,-2.6202,-2.6202,-2.6202,-2.6202,-2.6202,-2.6202,-2.6202,-2.6202,-2.5626,-2.5141,-2.4922,-2.4354,-2.3888,-2.3616,-2.3595,-2.3595,-2.3595,-2.3595,-2.3508,-2.3312,-2.2807,-2.2443,-2.2249,-2.1482,-2.0972,-2.0699,-2.0699,-2.0699,-2.0687,-1.981,-1.9411,-1.9453,-1.9295,-1.9539,-2.0014,-1.9988,-2.0016,-2.0042,-1.9561,-1.9274,-1.9108,-1.9108,-1.9108,-1.9008,-1.8506,-1.8303,-1.81,-1.6985,-1.6603,-1.6508,-1.5973,-1.5805,-1.5805,-1.5805,-1.5805,-1.5805,-1.5805,-1.5805,-1.5805,-1.5805,-1.5805,-1.5805,-1.5805,-1.5355,-1.4812,-1.4389,-1.4065,-1.3557,-1.2746,-1.2114,-1.1484,-1.0887,-1.0679,-1.0597,-1.0597,-1.101,-1.1305,-1.1305,-1.1305,-1.1305,-1.1305,-1.1305,-1.1305,-1.1305,-1.1305,-1.1084,-1.0636,-1.0207,-0.9777,-0.9305,-0.8828,-0.8612,-0.8612,-0.8612,-0.8612,-0.8612,-0.8612,-0.8612,-2.5892,-2.6259,-2.6295,-2.6295,-2.6295,-2.6295,-2.6295,-2.6258,-2.6202,-2.6202,-2.6202,-2.6202,-2.6202,-2.6202,-2.6202,-2.6202,-2.6202,-2.6202,-2.6202,-2.6202,-2.6202,-2.6202,-2.5793,-2.5389,-2.5079,-2.4594,-2.4156,-2.3803,-2.3659,-2.3595,-2.3595,-2.3595,-2.3595,-2.3595,-2.3135,-2.2889,-2.2889,-2.1898,-2.1155,-2.0699,-2.0699,-2.0699,-2.0674,-1.9901,-1.9486,-1.9366,-1.9057,-1.9126,-1.951,-1.9802,-1.9941,-2.0029,-1.9716,-1.944,-1.9208,-1.9131,-1.9108,-1.9042,-1.864,-1.8506,-1.8337,-1.7157,-1.6811,-1.6682,-1.6008,-1.5805,-1.5805,-1.5805,-1.5805,-1.5805,-1.5805,-1.5805,-1.5805,-1.5805,-1.5805,-1.5761,-1.5691,-1.5426,-1.5026,-1.4346,-1.4165,-1.3876,-1.3112,-1.2409,-1.1769,-1.1202,-1.0948,-1.0816,-1.0713,-1.1048,-1.1305,-1.1305,-1.1305,-1.1305,-1.1305,-1.1305,-1.1305,-1.1305,-1.1305,-1.1127,-1.0771,-1.0299,-0.9825,-0.9476,-0.8915,-0.8612,-0.8612,-0.8612,-0.8612,-0.8612,-0.8612,-0.8612,-2.6095,-2.6295,-2.6295,-2.6295,-2.6295,-2.6295,-2.6295,-2.6258,-2.6202,-2.6202,-2.6202,-2.6202,-2.6202,-2.6202,-2.6202,-2.6202,-2.6202,-2.6202,-2.6202,-2.6202,-2.6202,-2.6202,-2.5793,-2.5503,-2.5484,-2.4759,-2.4281,-2.4261,-2.3846,-2.3595,-2.3595,-2.3595,-2.3595,-2.3595,-2.3135,-2.2889,-2.2889,-2.1898,-2.1155,-2.0699,-2.0699,-2.0699,-2.0674,-2.0182,-1.9759,-1.9366,-1.9057,-1.8908,-1.8983,-1.9655,-1.9907,-1.9881,-1.9684,-1.9572,-1.9539,-1.9208,-1.9108,-1.9108,-1.9075,-1.9075,-1.8865,-1.7716,-1.7373,-1.7166,-1.6114,-1.5805,-1.5805,-1.5805,-1.5805,-1.5805,-1.5805,-1.5805,-1.5805,-1.5805,-1.5805,-1.5691,-1.5311,-1.5204,-1.5098,-1.4677,-1.431,-1.4093,-1.4021,-1.3222,-1.2429,-1.2094,-1.1688,-1.1358,-1.1017,-1.115,-1.1305,-1.1305,-1.1305,-1.1305,-1.1305,-1.1305,-1.1305,-1.1305,-1.1305,-1.1305,-1.1262,-1.0429,-0.9994,-0.9951,-0.9043,-0.8612,-0.8612,-0.8612,-0.8612,-0.8612,-0.8612,-0.8612,-2.6086,-2.6259,-2.6295,-2.6295,-2.6295,-2.6295,-2.6295,-2.6258,-2.6202,-2.6202,-2.6202,-2.6202,-2.6202,-2.6202,-2.6202,-2.6202,-2.6202,-2.6202,-2.6202,-2.6202,-2.6202,-2.6202,-2.6061,-2.583,-2.5521,-2.5237,-2.4962,-2.4699,-2.4287,-2.4051,-2.4051,-2.3745,-2.3595,-2.3595,-2.3443,-2.3031,-2.2397,-2.2025,-2.1468,-2.0699,-2.0699,-2.0699,-2.0674,-2.0207,-1.9773,-1.938,-1.8988,-1.8876,-1.8954,-1.9536,-1.9699,-1.9609,-1.9835,-1.966,-1.9274,-1.9131,-1.9108,-1.9108,-1.9108,-1.9108,-1.8975,-1.8226,-1.7998,-1.775,-1.6647,-1.6307,-1.6237,-1.5903,-1.5805,-1.5805,-1.5805,-1.5805,-1.5805,-1.5805,-1.5805,-1.5761,-1.5611,-1.5576,-1.5399,-1.4748,-1.4497,-1.4281,-1.3819,-1.3119,-1.2472,-1.2152,-1.1772,-1.1364,-1.1033,-1.1198,-1.1305,-1.1305,-1.1305,-1.1305,-1.1305,-1.1305,-1.1305,-1.1305,-1.1305,-1.1305,-1.1305,-1.0733,-1.025,-0.9994,-0.9388,-0.8915,-0.8612,-0.8612,-0.8612,-0.8612,-0.8612,-0.8612,-2.6099,-2.6311,-2.6365,-2.6365,-2.6382,-2.6365,-2.6313,-2.6259,-2.6239,-2.6203,-2.6202,-2.6202,-2.6202,-2.6202,-2.6202,-2.6202,-2.6202,-2.6202,-2.6202,-2.6202,-2.6202,-2.6202,-2.6202,-2.6079,-2.5775,-2.5594,-2.5389,-2.5121,-2.4599,-2.4302,-2.4302,-2.3846,-2.3595,-2.3595,-2.3595,-2.312,-2.2105,-2.2119,-2.166,-2.0699,-2.0699,-2.0699,-2.0687,-2.0372,-2.0016,-1.9591,-1.9184,-1.8853,-1.8678,-1.9206,-1.9444,-1.9512,-1.9755,-1.9673,-1.9429,-1.9164,-1.9108,-1.9108,-1.9108,-1.9108,-1.9008,-1.8472,-1.8303,-1.81,-1.695,-1.6603,-1.6508,-1.5938,-1.5805,-1.5805,-1.5805,-1.5805,-1.5805,-1.5805,-1.5805,-1.5805,-1.5805,-1.5805,-1.5655,-1.5114,-1.4784,-1.4425,-1.3956,-1.3149,-1.2472,-1.2152,-1.1772,-1.1364,-1.1033,-1.1198,-1.1305,-1.1305,-1.1305,-1.1305,-1.1305,-1.1305,-1.1305,-1.1305,-1.1305,-1.1305,-1.1305,-1.0733,-1.025,-0.9994,-0.9393,-0.8915,-0.8612,-0.8612,-0.8612,-0.8612,-0.8612,-0.8612,0.0,0.0,0.0,-2.6502,-2.6554,-2.6555,-2.6348,-2.6313,-2.6294,-2.6221,-2.6203,-2.6203,-2.6202,-2.6202,-2.6202,-2.6202,-2.6202,-2.6202,-2.6202,-2.6202,-2.6202,-2.6202,-2.6202,-2.6202,-2.6202,-2.5793,-2.5521,-2.5521,-2.4779,-2.4323,-2.4323,-2.3867,-2.3595,-2.3595,-2.3595,-2.312,-2.2128,-2.2156,-2.1712,-2.0724,-2.0699,-2.0699,-2.0699,-2.0699,-2.0422,-1.9965,-1.9565,-1.8907,-1.8157,-1.869,-1.9206,-1.9623,-1.9481,-1.966,-1.9987,-1.9353,-1.9108,-1.9108,-1.9108,-1.9108,-1.8998,-1.8506,-1.8303,-1.81,-1.6985,-1.6603,-1.6508,-1.5973,-1.5805,-1.5805,-1.5805,-1.5805,-1.5805,-1.5805,-1.5805,-1.5805,-1.5805,-1.5805,-1.5805,-1.577,-1.515,-1.4605,-1.4605,-1.3513,-1.2516,-1.2152,-1.1772,-1.1393,-1.1033,-1.115,-1.13,-1.1305,-1.1305,-1.1305,-1.1305,-1.1305,-1.1305,-1.1305,-1.1305,-1.1305,-1.1305,-1.0477,-1.0038,-0.9994,-0.9087,-0.8612,-0.8612,-0.8612,-0.8612,-0.8612,-0.8612,-0.8612,-2.5956,0.0,0.0,0.0,0.0,0.0,-2.652,-2.6486,-2.6416,-2.6294,-2.6277,-2.6276,-2.6203,-2.6202,-2.6202,-2.6202,-2.6202,-2.6202,-2.6202,-2.6202,-2.6202,-2.6202,-2.6202,-2.6202,-2.6202,-2.6079,-2.6008,0.0,-2.5497,-2.504,-2.4759,-2.4006,-2.3595,-2.3595,-2.3595,-2.3312,-2.2672,-2.2305,-2.1827,-2.1204,-2.0848,-2.0699,-2.0699,-2.0699,-2.0422,-1.9965,-1.9565,-1.9105,-1.8619,-1.883,-1.8834,-1.8812,-1.9214,-1.9295,-1.9137,-1.9105,-1.9108,-1.9108,-1.9108,-1.9108,-1.9075,-1.8942,-1.8875,-1.8664,-1.7501,-1.7166,-1.6994,-1.6079,-1.5805,-1.5805,-1.5805,-1.5805,-1.5805,-1.5805,-1.5805,-1.5805,-1.5805,-1.5805,-1.5726,-1.5426,-1.5204,-1.4848,-1.4346,-1.3912,-1.3322,-1.2266,-1.199,-1.1702,-1.1095,-1.1042,-1.1155,-1.1289,-1.1305,-1.1305,-1.1305,-1.1305,-1.1305,-1.1305,-1.1305,-1.1305,-1.1305,-1.1089,-1.0651,-0.9994,-0.9733,-0.9262,-0.8612,-0.8612,-0.8612,-0.8612,-0.8612,-0.8612,0.0,0.0,0.0,-2.6623,0.0,0.0,-2.6313,-2.6399,-2.6399,-2.6048,-2.6136,-2.6258,-2.6203,-2.6202,-2.6202,-2.6202,-2.6202,-2.6202,-2.6202,-2.6202,-2.6202,-2.6202,-2.6202,-2.6202,-2.6202,-2.6202,-2.6202,-2.6202,-2.5626,-2.4985,-2.44,-2.3894,-2.3595,-2.3595,-2.3595,-2.3377,-2.2912,-2.2374,-2.186,-2.1399,-2.0923,-2.0699,-2.0699,-2.0699,-2.0549,-2.0271,-1.9668,-1.9368,-1.9263,-1.8779,-1.8515,-1.8449,-1.869,-1.88,-1.885,-1.8812,-1.8942,-1.9108,-1.9108,-1.9108,-1.9108,-1.9108,-1.9108,-1.8908,-1.775,-1.7407,-1.7176,-1.6114,-1.5805,-1.5805,-1.5805,-1.5805,-1.5805,-1.5805,-1.5805,-1.5805,-1.5805,-1.5805,-1.5726,-1.5505,-1.5177,-1.4812,-1.4382,-1.3651,-1.2831,-1.2036,-1.1591,-1.12,-1.0781,-1.0864,-1.1036,-1.1139,-1.1246,-1.1305,-1.1305,-1.1305,-1.1305,-1.1305,-1.1305,-1.1305,-1.1305,-1.1127,-1.0776,-1.025,-0.9907,-0.9349,-0.8612,-0.8612,-0.8612,-0.8612,-0.8612,-0.8612,0.0,0.0,0.0,0.0,-2.6657,0.0,-2.5961,-2.6189,-2.6329,-2.5687,-2.5919,-2.6239,-2.6221,-2.6221,-2.6221,-2.6221,-2.6221,-2.6203,-2.6202,-2.6202,-2.6202,-2.6202,-2.6202,-2.6202,-2.6202,-2.6202,-2.6202,-2.6202,-2.54,-2.4563,-2.3788,-2.3659,-2.3595,-2.3595,-2.3595,-2.3399,-2.2979,-2.2452,-2.1955,-2.1458,-2.1008,-2.0749,-2.0699,-2.0699,-2.0699,-2.0649,-1.9784,-1.9617,-1.985,-1.8614,-1.8264,-1.8475,-1.81,-1.8313,-1.8828,-1.8553,-1.8704,-1.9108,-1.9108,-1.9108,-1.9108,-1.9108,-1.9075,-1.8831,-1.7818,-1.7407,-1.7097,-1.6079,-1.5805,-1.5805,-1.5805,-1.5805,-1.5805,-1.5805,-1.5805,-1.5805,-1.5805,-1.5805,-1.5805,-1.5805,-1.5185,-1.4641,-1.4605,-1.3098,-1.1818,-1.1706,-1.0942,-1.0339,-1.0288,-1.0676,-1.0955,-1.0982,-1.116,-1.1305,-1.1305,-1.1305,-1.1305,-1.1305,-1.1305,-1.1305,-1.1305,-1.0906,-1.0636,-1.0593,-0.9733,-0.9087,-0.87,-0.8612,-0.8612,-0.8612,-0.8612,-0.8612,0.0,0.0,0.0,0.0,-2.6418,0.0,-2.6068,-2.6367,-2.6521,-2.6012,-2.6241,-2.6502,-2.645,-2.6433,-2.6433,-2.6433,-2.6346,-2.6259,-2.6203,-2.6202,-2.6202,-2.6202,-2.6202,-2.6202,-2.6202,-2.6202,-2.6202,-2.6202,-2.54,-2.4823,-2.4664,-2.3985,-2.3595,-2.3595,-2.3595,-2.3551,-2.3465,-2.2965,-2.2489,-2.1955,-2.1482,-2.1057,-2.0699,-2.0699,-2.0699,-2.0649,-1.9784,-1.9447,-1.9434,-1.8479,-1.836,-1.8717,-1.8408,-1.8456,-1.8669,-1.8712,-1.8888,-1.9108,-1.9108,-1.9108,-1.9108,-1.9108,-1.8808,-1.8405,-1.8202,-1.7476,-1.6612,-1.5973,-1.5805,-1.5805,-1.5805,-1.5805,-1.5805,-1.5805,-1.5805,-1.5805,-1.5805,-1.5805,-1.5805,-1.5805,-1.539,-1.4991,-1.4677,-1.3644,-1.2615,-1.1818,-1.1122,-1.0591,-1.0344,-1.0536,-1.0772,-1.0966,-1.116,-1.1305,-1.1305,-1.1305,-1.1305,-1.1305,-1.1305,-1.1305,-1.1305,-1.1219,-1.0992,-1.0593,-0.9733,-0.9262,-0.9174,-0.8784,-0.8612,-0.8612,-0.8612,-0.8612,0.0,0.0,0.0,-2.6013,-2.5924,0.0,0.0,-2.5744,-2.5906,-2.5419,-2.5626,-2.5885,-2.5864,-2.6045,-2.6205,-2.6205,-2.6082,-2.6082,-2.631,-2.6257,-2.6202,-2.6202,-2.599,-2.5848,-2.5848,-2.5663,-2.5457,-2.5282,-2.5036,-2.4704,-2.4277,-2.3852,-2.3595,-2.3595,-2.3595,-2.3595,-2.3595,-2.3135,-2.2626,-2.2081,-2.1612,-2.1155,-2.0699,-2.0699,-2.0699,-2.0649,-1.9784,-1.9512,-1.963,-1.8533,-1.8383,-1.8741,-1.8243,-1.8038,-1.8074,-1.8382,-1.8627,-1.8787,-1.9025,-1.9108,-1.9108,-1.9108,-1.8741,-1.8236,-1.793,-1.7063,-1.6132,-1.5867,-1.5805,-1.5805,-1.5805,-1.5805,-1.5805,-1.5805,-1.5805,-1.5805,-1.5805,-1.5805,-1.5805,-1.5805,-1.5328,-1.4848,-1.4641,-1.3426,-1.2291,-1.1781,-1.0925,-1.03,-1.0127,-1.0315,-1.0552,-1.0789,-1.1025,-1.1177,-1.1295,-1.1305,-1.1305,-1.1305,-1.1305,-1.1305,-1.1305,-1.1305,-1.0997,-1.0294,-0.9864,-0.9437,-0.8959,-0.87,-0.8612,-0.8612,-0.8612,-0.8612,0.0,0.0,0.0,0.0,0.0,-2.5291,0.0,0.0,0.0,-2.4755,-2.4977,-2.5253,-2.5253,-2.557,-2.5813,-2.5737,-2.573,-2.5888,-2.625,-2.6279,0.0,-2.6257,-2.5811,-2.554,-2.5633,-2.5349,-2.4977,-2.4574,-2.4759,-2.4563,-2.3767,-2.3638,-2.3595,-2.3595,-2.3595,-2.3595,-2.3595,-2.3224,-2.2717,-2.2105,-2.1708,-2.1253,-2.0699,-2.0699,-2.0699,-2.0649,-1.9784,-1.9591,-1.9798,-1.8575,-1.8329,-1.861,-1.8002,-1.7732,-1.772,-1.8107,-1.8342,-1.853,-1.8904,-1.9058,-1.9065,-1.8975,-1.8563,-1.7998,-1.7314,-1.6551,-1.5938,-1.5832,-1.5805,-1.5805,-1.5805,-1.5805,-1.5805,-1.5805,-1.5805,-1.5805,-1.5805,-1.5805,-1.5805,-1.5805,-1.507,-1.4418,-1.4418,-1.2915,-1.1669,-1.1558,-1.0594,-0.9884,-0.9884,-1.0137,-1.0385,-1.0571,-1.0842,-1.1085,-1.1289,-1.1305,-1.1305,-1.1305,-1.1305,-1.1305,-1.1305,-1.1305,-1.0959,-1.0255,-1.0081,-0.9607,-0.8872,-0.8696,-0.8612,-0.8612,-0.8612,-0.8612,0.0,0.0,0.0,0.0,-2.546,0.0,-2.4902,0.0,-2.537,-2.4942,0.0,-2.5465,-2.5465,0.0,0.0,-2.5138,-2.5582,-2.5869,-2.5648,-2.6101,-2.6484,-2.6484,-2.5886,-2.5705,-2.6155,-2.6117,-2.5846,-2.5389,-2.5079,-2.4699,-2.424,-2.3824,-2.3595,-2.3595,-2.3595,-2.3595,-2.3595,-2.3551,-2.3054,-2.2105,-2.2035,-2.1565,-2.0699,-2.0699,-2.0699,-2.0649,-1.9784,-1.942,-1.9394,-1.8479,-1.8139,-1.8166,-1.8084,-1.8154,-1.8289,-1.8344,-1.8531,-1.8754,-1.8807,-1.8941,-1.9008,-1.8539,-1.7998,-1.7314,-1.6281,-1.6237,-1.6403,-1.5938,-1.5805,-1.5805,-1.5805,-1.5805,-1.5805,-1.5805,-1.5805,-1.5805,-1.5805,-1.5805,-1.5805,-1.5805,-1.4732,-1.3781,-1.3781,-1.2615,-1.1521,-1.0962,-1.0331,-0.9884,-0.9884,-1.0137,-1.0385,-1.0571,-1.0842,-1.1085,-1.1289,-1.1305,-1.1305,-1.1305,-1.1305,-1.1305,-1.1305,-1.1305,-1.1262,-1.1132,-1.0391,-0.9951,-0.9825,-0.8999,-0.8612,-0.8612,-0.8612,-0.8612,0.0,0.0,0.0,0.0,0.0,0.0,-2.4614,0.0,-2.4759,0.0,0.0,0.0,0.0,0.0,0.0,0.0,-2.4783,-2.4862,-2.5428,-2.4911,-2.497,-2.6331,0.0,0.0,-2.5559,-2.5775,-2.5607,-2.4859,-2.4902,-2.4664,-2.3931,-2.3717,-2.3595,-2.3595,-2.3595,-2.3595,-2.3595,-2.3595,-2.3098,-2.2105,-2.2105,-2.1599,-2.0699,-2.0699,-2.0699,-2.0649,-2.0016,-1.9604,-1.9342,-1.8759,-1.8356,-1.8084,-1.8084,-1.8056,-1.8031,-1.8293,-1.8239,-1.8138,-1.8627,-1.8753,-1.8582,-1.7978,-1.7623,-1.721,-1.6114,-1.5973,-1.6105,-1.5867,-1.5805,-1.5805,-1.5805,-1.5805,-1.5805,-1.5805,-1.5805,-1.5805,-1.5805,-1.5805,-1.5805,-1.5805,-1.5133,-1.4286,-1.3375,-1.21,-1.1074,-1.085,-1.0293,-0.9884,-0.9884,-1.0013,-1.0169,-1.0412,-1.0643,-1.088,-1.1117,-1.1225,-1.1305,-1.1305,-1.1305,-1.1305,-1.1305,-1.1305,-1.1176,-1.0906,-1.0299,-0.9864,-0.9607,-0.8915,-0.8612,-0.8612,-0.8612,-0.8612,-2.6263,0.0,0.0,0.0,0.0,0.0,0.0,0.0,0.0,0.0,0.0,0.0,0.0,0.0,0.0,0.0,0.0,-2.403,-2.4798,-2.3891,-2.3904,-2.5966,-2.6012,0.0,0.0,-2.5721,-2.5516,-2.4558,-2.4808,-2.4592,-2.3659,-2.3595,-2.3595,-2.3595,-2.3595,-2.3595,-2.3595,-2.3595,-2.3165,-2.2314,-2.2175,-2.167,-2.0898,-2.0749,-2.0699,-2.0674,-2.0207,-1.9773,-1.9368,-1.8984,-1.853,-1.8084,-1.8084,-1.7975,-1.7855,-1.8199,-1.8081,-1.7822,-1.8367,-1.8386,-1.8131,-1.7741,-1.7442,-1.7028,-1.6246,-1.5903,-1.5805,-1.5805,-1.5805,-1.5805,-1.5805,-1.5805,-1.5805,-1.5805,-1.5805,-1.5805,-1.5805,-1.5805,-1.5805,-1.5805,-1.5346,-1.4573,-1.3339,-1.2057,-1.1068,-1.0625,-1.018,-0.9884,-0.9884,-0.9884,-1.0013,-1.0266,-1.0444,-1.0665,-1.0955,-1.1149,-1.1236,-1.13,-1.1305,-1.1305,-1.1305,-1.1305,-1.1127,-1.0814,-1.0255,-0.982,-0.9476,-0.8872,-0.8612,-0.8612,-0.8612,-0.8612,0.0,0.0,0.0,-2.5577,0.0,0.0,0.0,0.0,-2.4302,0.0,0.0,0.0,0.0,0.0,0.0,0.0,0.0,0.0,0.0,-2.3481,-2.3985,-2.5378,-2.5811,0.0,0.0,-2.6468,-2.6064,-2.5047,-2.4989,-2.4592,-2.3659,-2.3595,-2.3595,-2.3595,-2.3595,-2.3595,-2.3595,-2.3595,-2.3355,-2.2867,-2.2337,-2.1837,-2.135,-2.0923,-2.0699,-2.0674,-2.0207,-1.9773,-1.9368,-1.8984,-1.853,-1.8084,-1.8084,-1.8084,-1.8084,-1.8107,-1.8232,-1.8347,-1.8039,-1.78,-1.7717,-1.8131,-1.7501,-1.6603,-1.6568,-1.6202,-1.5805,-1.5805,-1.5805,-1.5805,-1.5805,-1.5805,-1.5805,-1.5805,-1.5805,-1.5805,-1.5805,-1.5805,-1.5805,-1.5805,-1.5018,-1.4199,-1.3738,-1.2894,-1.1718,-1.0175,-0.9922,-0.9884,-0.9884,-0.9884,-1.0013,-1.0266,-1.0299,-1.0492,-1.0945,-1.0993,-1.1095,-1.1295,-1.1305,-1.1305,-1.1305,-1.1305,-1.1305,-1.1262,-1.0434,-0.9994,-0.9994,-0.9043,-0.8612,-0.8612,-0.8612,-0.8612,0.0,0.0,-2.6401,-2.5998,0.0,0.0,0.0,0.0,0.0,0.0,0.0,0.0,0.0,0.0,0.0,0.0,0.0,0.0,0.0,-2.2967,-2.297,-2.3686,-2.4903,-2.5899,0.0,-2.6259,-2.5758,-2.5047,-2.4752,-2.4307,-2.3638,-2.3595,-2.3595,-2.3595,-2.3595,-2.3595,-2.3595,-2.3595,-2.3355,-2.2889,-2.2717,-2.2203,-2.1399,-2.1229,-2.0997,-2.0687,-2.0536,-2.022,-1.9798,-1.9643,-1.9198,-1.8556,-1.8556,-1.8356,-1.8084,-1.8084,-1.8034,-1.7918,-1.7897,-1.8105,-1.836,-1.8157,-1.7677,-1.7063,-1.6716,-1.6237,-1.5805,-1.5805,-1.5805,-1.5805,-1.5805,-1.5805,-1.5805,-1.5805,-1.5805,-1.5805,-1.5805,-1.5805,-1.5805,-1.5805,-1.5541,-1.4947,-1.389,-1.3448,-1.2602,-1.0775,-1.085,-1.0812,-0.9997,-1.0255,-1.0364,-1.0073,-1.0196,-1.0358,-1.0514,-1.081,-1.109,-1.1289,-1.1305,-1.1305,-1.1305,-1.1305,-1.1305,-1.1305,-1.0733,-1.025,-0.9994,-0.9388,-0.8915,-0.8612,-0.8612,-0.8612,-2.6874,-2.6791,0.0,-2.621,-2.6104,0.0,-2.5256,0.0,-2.4863,0.0,0.0,0.0,0.0,0.0,0.0,0.0,0.0,0.0,0.0,-2.2307,-2.223,-2.2505,-2.3761,-2.4893,-2.5708,-2.5635,-2.5338,-2.4835,-2.4732,-2.4369,-2.3638,-2.3595,-2.3595,-2.3595,-2.3595,-2.3595,-2.3595,-2.3595,-2.3443,-2.3157,-2.2979,-2.2572,-2.1921,-2.1732,-2.1468,-2.1191,-2.1008,-2.0698,-2.027,-2.0067,-1.9618,-1.8999,-1.8999,-1.8744,-1.834,-1.8166,-1.7931,-1.7751,-1.7986,-1.8311,-1.8543,-1.8341,-1.8015,-1.7623,-1.7063,-1.6517,-1.6035,-1.5832,-1.5805,-1.5805,-1.5805,-1.5805,-1.5805,-1.5805,-1.5805,-1.5805,-1.5805,-1.5805,-1.5805,-1.5805,-1.5805,-1.5434,-1.4222,-1.4006,-1.3346,-1.1403,-1.1446,-1.1335,-1.0368,-1.055,-1.0556,-0.996,-1.0062,-1.0196,-1.0288,-1.0643,-1.0961,-1.116,-1.1177,-1.1219,-1.1305,-1.1305,-1.1343,-1.1429,-1.0899,-1.0459,-1.0104,-0.9551,-0.9043,-0.8612,-0.834,-0.8208]},{"header":{"parameterUnit":"m.s-1","parameterCategory":1,"la1":30.6,"la2":29.2853,"lo1":-89.7004,"lo2":-87.6739,"dy":0.0162,"dx":0.0183,"nx":112,"ny":82,"refTime":"2023-08-29T12:00:00:Z","depth":0,"parameterNumber":3,"parameterNumberName":"V-component_of_WINDS"},"data":[0.0,0.0,0.0,0.0,0.0,0.0,0.0,0.0,0.0,0.0,0.0,0.0,0.0,0.0,0.0,0.0,0.0,0.0,0.0,0.0,0.0,0.0,0.0,0.0,0.0,0.0,0.0,0.0,0.0,0.0,0.0,0.0,0.0,0.0,0.0,0.0,0.0,0.0,0.0,0.0,0.0,0.0,0.0,0.0,0.0,0.0,0.0,0.0,0.0,0.0,0.0,0.0,0.0,0.0,0.0,0.0,0.0,0.0,0.0,0.0,0.0,0.0,0.0,0.0,0.0,0.0,0.0,0.0,0.0,0.0,0.0,0.0,0.0,0.0,0.0,0.0,0.0,0.0,0.0,0.0,0.0,0.0,0.0,0.0,0.0,0.0,0.0,0.0,0.0,0.0,2.9286,2.9521,2.947,2.9417,2.9407,2.9396,2.9334,2.9163,0.0,0.0,0.0,0.0,0.0,0.0,0.0,0.0,0.0,0.0,0.0,0.0,0.0,0.0,0.0,0.0,0.0,0.0,0.0,0.0,0.0,0.0,0.0,0.0,0.0,0.0,0.0,0.0,0.0,0.0,0.0,0.0,0.0,0.0,0.0,0.0,0.0,0.0,0.0,0.0,0.0,0.0,0.0,0.0,0.0,0.0,0.0,0.0,0.0,0.0,0.0,0.0,0.0,0.0,0.0,0.0,0.0,0.0,0.0,0.0,0.0,0.0,0.0,0.0,0.0,0.0,0.0,0.0,0.0,0.0,0.0,0.0,0.0,0.0,0.0,0.0,0.0,0.0,0.0,0.0,0.0,0.0,0.0,0.0,0.0,0.0,0.0,0.0,0.0,0.0,0.0,0.0,0.0,0.0,0.0,0.0,0.0,0.0,0.0,0.0,0.0,0.0,0.0,0.0,2.9617,2.9664,2.956,2.9461,2.9407,2.9396,2.9386,2.9365,0.0,0.0,0.0,0.0,0.0,0.0,0.0,0.0,0.0,0.0,0.0,0.0,0.0,0.0,0.0,0.0,0.0,0.0,0.0,0.0,0.0,0.0,0.0,0.0,0.0,0.0,0.0,0.0,0.0,0.0,0.0,0.0,0.0,0.0,0.0,0.0,0.0,0.0,0.0,0.0,0.0,0.0,0.0,0.0,0.0,0.0,0.0,0.0,0.0,0.0,0.0,0.0,0.0,0.0,0.0,0.0,0.0,0.0,0.0,0.0,0.0,0.0,0.0,0.0,0.0,0.0,0.0,0.0,0.0,0.0,0.0,0.0,0.0,0.0,0.0,0.0,0.0,0.0,0.0,0.0,0.0,0.0,0.0,0.0,0.0,0.0,0.0,0.0,0.0,0.0,0.0,0.0,0.0,0.0,0.0,0.0,0.0,0.0,0.0,0.0,0.0,0.0,0.0,2.956,2.9701,2.9701,2.9972,3.0144,3.0122,3.0469,3.0697,3.0697,3.0213,0.0,0.0,0.0,0.0,0.0,0.0,0.0,0.0,0.0,0.0,0.0,0.0,0.0,0.0,0.0,0.0,0.0,0.0,0.0,0.0,0.0,0.0,0.0,0.0,0.0,0.0,0.0,0.0,0.0,0.0,0.0,0.0,0.0,0.0,0.0,0.0,0.0,0.0,0.0,0.0,0.0,0.0,0.0,0.0,0.0,0.0,0.0,0.0,0.0,0.0,0.0,0.0,0.0,0.0,0.0,0.0,0.0,0.0,0.0,0.0,0.0,0.0,0.0,0.0,0.0,0.0,0.0,0.0,0.0,0.0,0.0,0.0,0.0,0.0,0.0,0.0,0.0,0.0,0.0,0.0,0.0,0.0,0.0,0.0,0.0,0.0,0.0,0.0,0.0,0.0,0.0,0.0,0.0,0.0,0.0,0.0,0.0,0.0,0.0,0.0,0.0,0.0,2.9974,3.0123,3.0293,3.078,3.1058,3.1027,3.1531,3.1857,3.1857,3.1229,0.0,0.0,0.0,0.0,0.0,0.0,0.0,0.0,0.0,0.0,0.0,0.0,0.0,0.0,0.0,0.0,0.0,0.0,0.0,0.0,0.0,0.0,0.0,0.0,0.0,0.0,0.0,0.0,0.0,0.0,0.0,0.0,0.0,0.0,0.0,0.0,0.0,0.0,0.0,0.0,0.0,0.0,0.0,0.0,0.0,0.0,0.0,0.0,0.0,0.0,0.0,0.0,0.0,0.0,0.0,0.0,0.0,0.0,0.0,0.0,0.0,0.0,0.0,0.0,0.0,0.0,0.0,0.0,0.0,0.0,0.0,0.0,0.0,0.0,0.0,0.0,0.0,0.0,0.0,0.0,0.0,0.0,0.0,0.0,0.0,0.0,0.0,0.0,0.0,0.0,0.0,0.0,0.0,0.0,0.0,0.0,0.0,0.0,0.0,0.0,0.0,0.0,3.1002,3.1369,3.2043,3.2166,3.2137,3.2012,3.1994,3.1987,3.1987,3.1823,0.0,0.0,0.0,0.0,0.0,0.0,0.0,0.0,0.0,0.0,0.0,0.0,0.0,0.0,0.0,0.0,0.0,0.0,0.0,0.0,0.0,0.0,0.0,0.0,0.0,0.0,0.0,0.0,0.0,0.0,0.0,0.0,0.0,0.0,0.0,0.0,0.0,0.0,0.0,0.0,0.0,0.0,0.0,0.0,0.0,0.0,0.0,0.0,0.0,0.0,0.0,0.0,0.0,0.0,0.0,0.0,0.0,0.0,0.0,0.0,0.0,0.0,0.0,0.0,0.0,0.0,0.0,0.0,0.0,0.0,0.0,0.0,0.0,0.0,0.0,0.0,0.0,0.0,0.0,0.0,0.0,0.0,0.0,0.0,0.0,0.0,0.0,0.0,0.0,0.0,0.0,0.0,0.0,0.0,0.0,0.0,0.0,0.0,0.0,0.0,0.0,0.0,3.1844,3.2013,3.2334,3.277,3.3024,3.2985,3.3373,3.3577,3.3512,0.0,0.0,0.0,0.0,0.0,0.0,0.0,0.0,0.0,0.0,0.0,0.0,0.0,0.0,0.0,0.0,0.0,0.0,0.0,0.0,0.0,0.0,0.0,0.0,0.0,0.0,0.0,0.0,0.0,0.0,0.0,0.0,0.0,0.0,0.0,0.0,0.0,0.0,0.0,0.0,0.0,0.0,0.0,0.0,0.0,0.0,0.0,0.0,0.0,0.0,0.0,0.0,0.0,0.0,0.0,0.0,0.0,0.0,0.0,0.0,0.0,0.0,0.0,0.0,0.0,0.0,0.0,0.0,0.0,0.0,0.0,0.0,0.0,0.0,0.0,0.0,0.0,0.0,0.0,0.0,0.0,0.0,0.0,0.0,0.0,0.0,0.0,0.0,0.0,0.0,0.0,0.0,0.0,0.0,0.0,0.0,0.0,0.0,0.0,0.0,0.0,0.0,3.2628,3.2732,3.2854,3.3155,3.3649,3.3951,3.3951,3.4379,3.4623,3.4528,0.0,0.0,0.0,0.0,0.0,0.0,0.0,0.0,0.0,0.0,0.0,0.0,0.0,0.0,0.0,0.0,0.0,0.0,0.0,0.0,0.0,0.0,0.0,0.0,0.0,0.0,0.0,0.0,0.0,0.0,0.0,0.0,0.0,0.0,0.0,0.0,0.0,0.0,0.0,0.0,0.0,0.0,0.0,0.0,0.0,0.0,0.0,0.0,0.0,0.0,0.0,0.0,0.0,0.0,0.0,0.0,0.0,0.0,0.0,0.0,0.0,0.0,0.0,0.0,0.0,0.0,0.0,0.0,0.0,0.0,0.0,0.0,0.0,0.0,0.0,0.0,0.0,0.0,0.0,0.0,0.0,0.0,0.0,0.0,0.0,0.0,0.0,0.0,0.0,0.0,0.0,0.0,0.0,0.0,0.0,0.0,0.0,0.0,0.0,0.0,0.0,0.0,3.3591,3.3714,3.4017,3.4813,3.4908,3.4908,3.4908,3.484,3.4798,0.0,0.0,0.0,0.0,0.0,0.0,0.0,0.0,0.0,0.0,0.0,0.0,0.0,0.0,0.0,0.0,0.0,0.0,0.0,0.0,0.0,0.0,0.0,0.0,0.0,0.0,0.0,0.0,0.0,0.0,0.0,0.0,0.0,0.0,0.0,0.0,0.0,0.0,0.0,0.0,0.0,0.0,0.0,0.0,0.0,0.0,0.0,0.0,0.0,0.0,0.0,0.0,0.0,0.0,0.0,0.0,0.0,0.0,0.0,0.0,0.0,0.0,0.0,0.0,0.0,0.0,0.0,0.0,0.0,0.0,0.0,0.0,0.0,0.0,0.0,0.0,0.0,0.0,0.0,0.0,0.0,0.0,0.0,0.0,0.0,0.0,0.0,0.0,0.0,0.0,0.0,0.0,0.0,0.0,0.0,0.0,0.0,0.0,0.0,0.0,0.0,0.0,0.0,3.4579,3.4683,3.4778,3.5025,3.4954,3.4908,3.4908,3.4879,3.4849,3.4798,0.0,0.0,0.0,0.0,0.0,0.0,0.0,0.0,0.0,0.0,0.0,0.0,0.0,0.0,0.0,0.0,0.0,0.0,0.0,0.0,0.0,0.0,0.0,0.0,0.0,0.0,0.0,0.0,0.0,0.0,0.0,0.0,0.0,0.0,0.0,0.0,0.0,0.0,0.0,0.0,0.0,0.0,0.0,0.0,0.0,0.0,0.0,0.0,0.0,0.0,0.0,0.0,0.0,0.0,0.0,0.0,0.0,0.0,0.0,0.0,0.0,0.0,0.0,0.0,0.0,0.0,0.0,0.0,0.0,0.0,0.0,0.0,0.0,0.0,0.0,0.0,0.0,0.0,0.0,0.0,0.0,0.0,0.0,0.0,0.0,0.0,0.0,0.0,0.0,0.0,0.0,0.0,0.0,0.0,0.0,0.0,0.0,0.0,0.0,0.0,0.0,0.0,3.5047,3.5147,3.5179,3.5179,3.5105,3.5035,3.4982,3.4973,3.4945,3.4849,0.0,0.0,0.0,0.0,0.0,0.0,0.0,0.0,0.0,0.0,0.0,0.0,0.0,0.0,0.0,0.0,0.0,0.0,0.0,0.0,0.0,0.0,0.0,0.0,0.0,0.0,0.0,0.0,0.0,0.0,0.0,0.0,0.0,0.0,0.0,0.0,0.0,0.0,0.0,0.0,0.0,0.0,0.0,0.0,0.0,0.0,0.0,0.0,0.0,0.0,0.0,0.0,0.0,0.0,0.0,0.0,0.0,0.0,0.0,0.0,0.0,0.0,0.0,0.0,0.0,0.0,0.0,0.0,0.0,0.0,0.0,0.0,0.0,0.0,0.0,0.0,0.0,0.0,0.0,0.0,0.0,0.0,0.0,0.0,0.0,0.0,0.0,0.0,0.0,0.0,0.0,0.0,0.0,0.0,0.0,0.0,0.0,0.0,0.0,0.0,0.0,0.0,3.5122,3.5235,3.5311,3.533,3.5315,3.5243,3.513,3.5122,3.5062,3.4936,0.0,0.0,0.0,0.0,0.0,0.0,0.0,0.0,0.0,0.0,0.0,0.0,0.0,0.0,0.0,0.0,0.0,0.0,0.0,0.0,0.0,0.0,0.0,0.0,0.0,0.0,0.0,0.0,0.0,0.0,0.0,0.0,0.0,0.0,0.0,0.0,0.0,0.0,0.0,0.0,0.0,0.0,0.0,0.0,0.0,0.0,0.0,0.0,0.0,0.0,0.0,0.0,0.0,0.0,0.0,0.0,0.0,0.0,0.0,0.0,2.7188,0.0,0.0,0.0,0.0,0.0,0.0,0.0,0.0,0.0,0.0,0.0,0.0,0.0,0.0,0.0,0.0,0.0,0.0,0.0,0.0,0.0,0.0,0.0,0.0,0.0,0.0,0.0,0.0,0.0,0.0,0.0,0.0,0.0,0.0,0.0,0.0,0.0,0.0,0.0,0.0,0.0,3.5258,3.5372,3.5451,3.5457,3.5367,3.53,3.5251,3.5251,3.5195,3.507,3.5138,0.0,0.0,0.0,0.0,0.0,0.0,0.0,0.0,0.0,0.0,0.0,0.0,0.0,0.0,0.0,0.0,0.0,0.0,0.0,0.0,0.0,0.0,0.0,0.0,0.0,0.0,0.0,0.0,0.0,0.0,0.0,0.0,0.0,0.0,0.0,0.0,0.0,0.0,0.0,0.0,0.0,0.0,0.0,0.0,0.0,0.0,0.0,0.0,0.0,0.0,0.0,0.0,0.0,0.0,0.0,0.0,0.0,0.0,0.0,0.0,2.7807,0.0,0.0,0.0,0.0,0.0,0.0,0.0,0.0,0.0,0.0,0.0,0.0,0.0,0.0,0.0,0.0,0.0,0.0,0.0,0.0,0.0,0.0,0.0,0.0,0.0,0.0,0.0,0.0,0.0,0.0,0.0,0.0,0.0,0.0,0.0,0.0,0.0,0.0,0.0,0.0,3.5445,3.5552,3.5635,3.5648,3.555,3.5464,3.5392,3.5397,3.5345,3.5203,3.5258,0.0,0.0,0.0,0.0,0.0,0.0,0.0,0.0,0.0,0.0,0.0,0.0,0.0,0.0,0.0,0.0,0.0,0.0,0.0,0.0,0.0,0.0,0.0,0.0,0.0,0.0,0.0,0.0,0.0,0.0,0.0,0.0,0.0,0.0,0.0,0.0,0.0,0.0,0.0,0.0,0.0,0.0,0.0,0.0,0.0,0.0,0.0,0.0,0.0,0.0,0.0,0.0,0.0,2.9548,2.9917,3.0551,3.0545,3.061,3.0623,2.9078,2.8404,2.838,2.8382,0.0,0.0,0.0,0.0,0.0,0.0,0.0,0.0,0.0,0.0,0.0,0.0,0.0,0.0,0.0,0.0,0.0,0.0,0.0,0.0,0.0,0.0,0.0,0.0,3.3491,3.3635,3.3451,0.0,0.0,0.0,0.0,0.0,0.0,0.0,0.0,0.0,0.0,0.0,3.5591,3.5721,3.5803,3.5795,3.5741,3.5674,3.5568,3.5556,3.5496,3.5328,3.5362,3.5348,0.0,0.0,0.0,0.0,0.0,0.0,0.0,0.0,0.0,0.0,0.0,0.0,0.0,0.0,0.0,0.0,0.0,0.0,0.0,0.0,0.0,0.0,0.0,0.0,0.0,0.0,0.0,0.0,0.0,0.0,0.0,0.0,2.4267,2.4964,0.0,0.0,0.0,0.0,0.0,0.0,0.0,0.0,0.0,0.0,0.0,0.0,0.0,2.9103,2.904,2.9844,3.0312,3.0429,3.0545,3.0662,3.0768,3.0752,3.077,3.0765,3.0526,0.0,3.0332,3.0331,0.0,0.0,0.0,0.0,0.0,0.0,0.0,0.0,0.0,0.0,0.0,0.0,0.0,0.0,0.0,0.0,0.0,0.0,0.0,0.0,0.0,0.0,3.4489,3.4484,3.5025,3.5543,0.0,3.4729,3.4268,3.5083,3.525,0.0,0.0,0.0,0.0,0.0,0.0,0.0,3.5616,3.5775,3.5861,3.5818,3.5791,3.5782,3.5754,3.5769,3.5674,3.5481,3.5588,3.5531,3.5304,3.5402,0.0,0.0,0.0,0.0,0.0,0.0,0.0,0.0,0.0,0.0,0.0,0.0,0.0,0.0,0.0,0.0,0.0,0.0,0.0,0.0,0.0,0.0,0.0,0.0,0.0,0.0,0.0,0.0,0.0,2.4614,2.5026,2.5411,2.5499,2.5503,0.0,0.0,0.0,0.0,0.0,0.0,0.0,0.0,0.0,2.8791,2.9637,3.0072,3.0037,3.0446,3.0661,3.0664,3.0754,3.0793,3.08,3.0797,3.0798,3.0801,3.0801,3.0781,3.0755,3.0751,3.0728,3.0667,0.0,0.0,0.0,0.0,3.052,3.0466,3.0532,3.0882,3.1301,3.1342,0.0,0.0,0.0,0.0,0.0,0.0,0.0,0.0,0.0,0.0,3.5366,3.5376,3.5634,3.5907,3.5949,3.5532,3.5262,0.0,3.567,3.5698,3.5764,0.0,0.0,0.0,0.0,3.581,3.5772,3.5846,3.5885,3.5866,3.5868,3.5853,3.5853,3.5811,3.5754,3.5665,3.5727,3.5694,3.5519,3.5507,3.5445,0.0,0.0,0.0,0.0,0.0,0.0,0.0,0.0,0.0,0.0,0.0,0.0,0.0,0.0,0.0,0.0,0.0,0.0,0.0,0.0,0.0,0.0,0.0,0.0,0.0,0.0,0.0,0.0,2.5476,2.5504,2.5559,2.5572,2.5608,0.0,0.0,0.0,0.0,0.0,0.0,2.8325,2.917,2.9654,2.9655,3.0289,3.0633,3.0665,3.0676,3.0687,3.0698,3.0732,3.076,3.0776,3.0768,3.0768,3.0777,3.0778,3.078,3.0783,3.0798,3.0805,3.0805,3.0783,3.0887,3.102,3.102,3.1118,3.1229,3.1324,3.1785,3.2336,3.2398,3.299,3.3712,3.3712,0.0,0.0,0.0,0.0,3.5078,3.5737,3.5909,3.5893,3.5898,3.5897,3.5916,3.5965,3.593,3.5911,0.0,3.5916,3.5894,3.5894,0.0,0.0,0.0,3.5908,3.5908,3.5908,3.5908,3.5908,3.5908,3.5908,3.5895,3.5895,3.5849,3.5823,3.5834,3.5834,3.5795,3.5727,3.563,3.5571,3.552,0.0,0.0,0.0,0.0,0.0,0.0,0.0,0.0,0.0,0.0,0.0,0.0,0.0,0.0,0.0,0.0,0.0,0.0,0.0,0.0,0.0,0.0,0.0,0.0,0.0,0.0,0.0,0.0,0.0,2.5682,2.5633,0.0,0.0,0.0,0.0,2.6893,2.8372,2.9201,2.9057,2.9885,3.0344,3.0348,3.0393,3.0477,3.0599,3.0618,3.0641,3.0706,3.0641,3.0643,3.07,3.0714,3.0718,3.0702,3.0711,3.0716,3.0716,3.077,3.0793,3.0793,3.0739,3.1208,3.1929,3.1929,3.2457,3.3159,3.3178,3.3197,3.3236,3.3236,3.3822,3.4546,3.4546,3.5113,0.0,0.0,3.583,3.5848,3.5899,3.5896,3.5896,3.5897,3.5902,3.5908,3.5909,3.5893,3.5918,0.0,3.5936,3.5909,3.5909,0.0,3.5908,3.5908,3.5908,3.5908,3.5908,3.5908,3.5908,3.5908,3.5908,3.5908,3.5908,3.5906,3.5891,3.5882,3.5898,3.5861,3.5795,3.5791,3.5736,3.56,3.5527,0.0,0.0,0.0,0.0,0.0,0.0,0.0,0.0,0.0,0.0,0.0,0.0,0.0,0.0,0.0,0.0,0.0,0.0,0.0,0.0,0.0,0.0,0.0,0.0,0.0,0.0,0.0,0.0,2.562,2.5614,0.0,2.6206,2.6523,2.7115,2.8111,2.8695,2.9222,2.9722,3.0047,3.0208,3.0203,3.0216,3.0228,3.0271,3.0314,3.0348,3.0372,3.0873,3.1195,3.1351,3.1873,3.218,3.2301,3.2308,3.2318,3.2312,3.2321,3.2062,3.1681,3.2171,3.2562,3.2834,3.2834,3.3028,3.3301,3.3301,3.3672,3.4239,3.4786,3.5178,3.5433,3.5433,3.5649,3.5899,3.5894,3.5906,3.5897,3.5852,3.584,3.5849,3.589,3.5875,3.5853,3.5892,3.5907,3.5907,3.5935,3.5914,3.5913,3.5964,3.5955,3.5951,3.5904,3.5902,3.5899,3.5892,3.5908,3.5908,3.5908,3.5908,3.5908,3.5908,3.5908,3.5906,3.5894,3.5894,3.5898,3.5861,3.5861,3.5815,3.5721,3.5703,3.562,0.0,0.0,0.0,0.0,0.0,0.0,0.0,0.0,0.0,0.0,0.0,0.0,0.0,0.0,0.0,0.0,0.0,0.0,0.0,0.0,0.0,0.0,0.0,0.0,0.0,2.5534,2.5602,2.5897,2.5921,2.6188,2.6863,2.7176,2.7766,2.8784,2.9091,2.947,2.9991,3.003,3.003,3.003,3.003,3.0052,3.0109,3.0435,3.0602,3.0602,3.1412,3.1877,3.2013,3.2564,3.2864,3.301,3.3077,3.3108,3.3127,3.3483,3.3354,3.2932,3.3195,3.3473,3.3706,3.3706,3.3899,3.4133,3.4133,3.4523,3.5091,3.5678,3.5873,3.5873,3.5873,3.5873,3.5866,3.5869,3.5876,3.5866,3.5811,3.5795,3.5811,3.5866,3.5838,3.5807,3.5858,3.5867,3.5875,3.5908,3.5891,3.5917,3.5966,3.5962,3.5957,3.5901,3.591,3.5907,3.5929,3.5914,3.5897,3.5899,3.5892,3.5908,3.5908,3.5908,3.5908,3.5908,3.5908,3.59,3.5898,3.5898,3.5885,3.5838,3.5827,3.5758,3.5595,0.0,0.0,0.0,0.0,0.0,0.0,0.0,0.0,0.0,0.0,0.0,0.0,0.0,0.0,0.0,0.0,0.0,0.0,0.0,0.0,0.0,0.0,0.0,2.5582,2.5561,2.5796,2.6515,2.6559,2.6814,2.7567,2.8324,2.8802,2.8814,2.961,3.0022,2.9897,2.9888,2.9888,2.9888,2.9926,2.9988,3.0114,3.0996,3.1428,3.1428,3.2241,3.2622,3.263,3.2668,3.2668,3.2684,3.2878,3.2974,3.305,3.4084,3.4526,3.4458,3.3677,3.3856,3.4536,3.4536,3.508,3.5795,3.5795,3.5795,3.5795,3.5795,3.5795,3.5795,3.5795,3.5795,3.5795,3.5795,3.5795,3.5795,3.5795,3.5795,3.5795,3.5795,3.5795,3.5795,3.5795,3.5795,3.5819,3.5875,3.5898,3.5905,3.5906,3.5891,3.5897,3.5896,3.5898,0.0,3.5999,3.5935,3.5917,3.5936,3.5938,3.595,3.5947,3.5947,3.5928,3.5908,3.5908,3.5908,3.5908,3.5908,3.5908,3.5908,3.5898,3.5861,3.5799,0.0,0.0,0.0,0.0,0.0,0.0,0.0,0.0,0.0,0.0,0.0,0.0,0.0,0.0,0.0,0.0,0.0,0.0,0.0,0.0,0.0,2.5235,2.5197,2.5362,2.5873,2.6265,2.6381,2.6929,2.7548,2.8188,2.8457,2.8807,2.9349,2.9568,2.969,2.9746,2.9701,2.9701,2.9746,3.032,3.064,3.0676,3.1506,3.1902,3.1921,3.277,3.3223,3.3358,3.3976,3.4331,3.4418,3.4473,3.4511,3.4587,3.4887,3.5006,3.5001,3.5025,3.5184,3.5378,3.5378,3.5542,3.5793,3.581,3.5795,3.5791,3.5797,3.5793,3.5788,3.5732,3.5727,3.5751,3.5784,3.5793,3.5793,3.5791,3.5795,3.5795,3.5795,3.5795,3.5795,3.5795,3.5795,3.5803,3.5827,3.5833,3.5841,3.589,3.59,3.5905,3.5894,3.5892,0.0,3.5937,3.5917,3.6149,3.6776,3.6836,3.6835,3.6846,3.6844,3.6571,3.5947,3.5908,3.5908,3.5908,3.5908,3.5908,3.5908,3.5898,3.5895,0.0,0.0,0.0,0.0,0.0,0.0,0.0,0.0,0.0,0.0,0.0,0.0,0.0,0.0,0.0,0.0,0.0,0.0,0.0,0.0,0.0,0.0,2.5588,2.5609,2.5894,2.621,2.6625,2.7165,2.7678,2.8176,2.8689,2.8755,2.8885,2.9204,2.918,2.9212,2.9363,2.9272,2.945,2.9946,3.0341,3.0719,3.1061,3.1872,3.2273,3.2273,3.3111,3.365,3.3907,3.4415,3.4743,3.4898,3.498,3.5032,3.5077,3.5133,3.5162,0.0,0.0,0.0,0.0,0.0,3.5718,3.577,3.5765,3.5769,3.5765,3.5751,3.5766,3.5747,3.5708,3.5708,3.5708,3.5742,3.5766,3.5751,3.5765,3.5769,3.5769,3.5769,3.5773,3.5801,3.5801,3.581,3.5795,3.5795,3.5795,0.0,3.585,3.586,3.5873,3.59,3.5888,3.5873,3.5905,3.5887,3.6069,3.6601,3.6654,3.6659,3.6653,3.666,0.0,0.0,0.0,3.5908,3.5908,3.5908,0.0,0.0,0.0,3.5901,3.5901,0.0,0.0,0.0,3.5811,3.5795,0.0,0.0,0.0,0.0,0.0,0.0,0.0,0.0,0.0,0.0,0.0,0.0,0.0,0.0,0.0,0.0,2.6154,2.6349,2.6795,2.6605,2.6911,2.8226,2.8486,2.8699,2.9012,2.9042,2.8934,2.8712,2.8688,2.8773,2.9012,2.8888,0.0,0.0,0.0,3.0693,3.1406,3.2227,3.2643,3.2643,3.3385,3.3917,3.4269,3.4293,3.4404,3.4572,3.4791,3.4879,3.4889,3.4978,3.5047,3.5037,3.5147,3.5292,3.5476,3.5607,3.5644,3.5649,3.563,0.0,0.0,3.5649,3.5644,3.5644,3.5625,3.5625,3.5625,3.5644,3.5644,3.5649,3.563,3.5635,3.5654,3.5669,3.5728,3.5766,3.5799,3.5797,3.5791,3.5795,3.5795,3.5795,3.5795,3.5795,3.5823,3.5872,3.5845,3.5829,3.5875,3.5921,3.6018,3.6173,0.0,0.0,3.6322,3.6327,3.6247,3.6068,3.5941,3.5894,3.5908,3.5908,3.5908,3.5908,3.5908,3.5908,3.5908,3.5908,3.5908,3.5908,3.5845,3.5811,0.0,0.0,0.0,0.0,0.0,0.0,0.0,0.0,0.0,0.0,0.0,0.0,0.0,0.0,0.0,2.5609,2.5898,2.6381,2.7098,2.7193,2.7317,2.7655,2.8468,2.8912,2.8724,2.8706,2.8682,2.8615,2.8578,2.8881,2.9667,2.9622,2.9986,3.0828,3.1521,3.1946,3.211,3.3012,3.3463,3.3463,0.0,0.0,3.4061,3.4221,3.4316,3.4363,3.4572,3.4658,3.4658,3.4699,3.4701,3.4713,3.5013,3.5135,3.5193,3.5273,3.5295,3.5302,3.5299,3.5294,3.5306,3.5309,3.5295,3.5288,3.5239,3.5231,0.0,3.5288,3.5295,3.5302,3.5306,3.5294,3.5341,3.5494,3.5556,3.5596,3.5761,3.5803,3.5793,3.5791,3.5795,3.5795,3.5795,3.5795,3.5799,3.5819,3.5807,3.5807,3.5818,3.6423,3.7121,3.7836,3.8541,3.8967,3.8961,3.8961,3.8387,3.7028,3.6286,3.5901,3.5892,3.5908,3.5908,3.5908,3.5908,3.5908,3.5908,3.5908,3.5908,3.5908,3.5897,3.5872,0.0,0.0,0.0,0.0,0.0,0.0,0.0,0.0,0.0,0.0,0.0,2.5238,2.5546,0.0,2.5939,2.6342,2.6584,2.6935,2.7615,2.7832,2.7961,2.7997,2.8499,2.8712,2.8376,2.835,2.8285,2.8156,2.8129,2.8496,2.9444,2.9396,2.9948,3.1308,3.1711,3.2077,3.2439,3.2922,3.3196,3.3302,3.3408,3.3578,3.3842,3.3947,3.4111,3.4305,3.4416,3.4506,3.4612,3.4612,3.4612,3.4615,3.4783,3.4907,3.5006,3.5117,3.5157,3.5146,3.5151,3.5159,3.5151,3.5146,3.5157,3.5138,3.5114,3.5106,3.5114,3.513,3.5157,3.5146,3.5151,3.5159,3.5182,3.5276,3.5331,3.5398,3.5519,3.5607,3.5659,3.5737,3.5773,3.5795,3.5795,3.6164,3.63,3.5872,3.6164,3.6459,3.6459,3.7214,3.7922,3.8348,3.8789,3.9053,3.9045,3.9058,3.8691,3.7848,3.7421,3.7002,3.6562,3.6554,3.6354,3.5963,3.5927,3.5899,3.5899,3.5899,3.5899,3.5899,3.5899,3.5908,0.0,0.0,0.0,0.0,0.0,0.0,0.0,2.5573,2.5431,2.5461,2.5428,2.5419,2.5444,2.5893,2.6465,2.7109,2.7306,2.7528,2.7958,2.8166,2.8298,2.8298,2.8415,2.8376,2.8047,2.802,2.794,2.773,2.7841,2.834,2.9253,2.9325,3.011,3.1779,3.1735,3.1954,3.2556,3.2589,3.2688,3.2852,3.2884,3.3147,3.3587,3.3611,3.3842,3.4185,3.4269,3.4386,3.4539,3.4572,3.4612,3.4612,3.4612,3.4699,3.4851,3.4971,3.5005,3.5005,3.5005,3.5005,3.5005,3.5005,3.5005,3.5005,3.5005,3.5005,3.5005,3.5005,3.5005,3.5005,3.5005,3.5005,3.5013,3.5047,3.51,3.5165,3.5254,3.5373,3.5469,3.5579,3.5684,3.5794,3.5978,3.6617,3.6863,3.6164,3.6789,3.7353,3.7353,3.811,3.8659,3.8659,3.8781,3.8886,3.8901,3.8746,3.8651,3.8642,3.8549,3.8162,3.746,3.7441,3.7146,3.6501,3.6273,3.6144,3.6144,3.6005,3.6005,3.6144,3.6142,3.607,2.3712,2.359,2.3912,2.5492,2.4838,2.4068,0.0,2.5173,2.533,2.5965,2.6095,2.6268,2.6916,2.6925,2.6835,2.6925,2.7341,2.7683,2.7742,2.7612,2.7524,2.7524,2.7911,2.8047,2.7771,2.7742,2.7728,2.7698,2.8351,2.9123,2.9946,3.0596,3.1369,3.2281,3.2299,3.2335,3.2422,3.254,3.2622,3.2639,3.2802,3.2977,3.3178,3.335,3.3564,3.3793,3.4148,3.4305,3.434,3.4528,3.4612,3.4612,3.4612,3.4604,3.4645,3.4658,3.4668,3.4668,3.4668,3.4668,3.4668,3.4668,3.4668,3.4668,3.4668,3.4668,3.4668,3.4668,3.4668,3.4668,3.4668,3.4668,3.4691,3.4879,3.4926,3.4972,3.5165,3.522,3.525,3.5244,3.5406,3.5774,3.6557,3.692,3.7078,3.696,3.7702,3.8251,3.8251,3.9023,3.9548,3.9548,4.0193,4.0649,4.07,4.001,3.955,3.954,3.8845,3.8373,3.8272,3.8318,3.83,3.8222,3.7458,3.7044,3.7044,3.6339,3.6358,3.7044,3.7043,3.6671,2.4021,2.3772,2.3781,2.5184,2.493,2.4606,2.5529,2.5619,2.5635,2.6096,2.6085,2.6104,2.6562,2.6819,2.6956,2.6956,2.7143,2.7291,2.7291,2.723,2.7166,2.7166,2.7336,2.7428,2.7307,2.7291,2.7353,2.7509,2.8239,2.9104,3.0055,3.0791,3.1563,3.2371,3.2406,3.2406,3.2406,3.2474,3.2523,3.2606,3.2688,3.2818,3.2995,3.3144,3.3397,3.3712,3.3998,3.4124,3.4136,3.4221,3.4316,3.4439,3.4439,3.4495,3.4612,3.4612,3.4612,3.4612,3.4612,3.4612,3.4612,3.4612,3.4612,3.4612,3.4612,3.4612,3.4612,3.4612,3.4612,3.4612,3.4612,3.4612,3.4615,3.471,3.473,3.4771,3.4926,3.4999,3.5039,3.5133,3.5246,3.5596,3.6488,3.7173,3.7796,3.8297,3.8821,3.9159,3.9159,3.9878,4.0402,4.0402,4.0694,4.0911,4.0937,4.0602,4.0404,4.0406,4.0094,3.9691,3.9182,3.9189,3.8986,3.8516,3.8108,3.7902,3.7902,3.7556,3.7596,3.7967,3.7969,3.7793,2.3778,2.3603,2.3577,2.4722,2.4782,2.481,2.5723,2.5855,2.5861,2.6046,2.611,2.6185,2.6371,2.6742,2.7006,2.7006,2.7006,2.7006,2.7006,2.6924,2.6875,2.6875,2.6825,2.6775,2.6775,2.6908,2.7103,2.7373,2.8289,2.9201,3.0055,3.1001,3.1757,3.2249,3.2354,3.2354,3.2249,3.2354,3.2457,3.254,3.254,3.2639,3.2818,3.3008,3.3298,3.3633,3.3815,3.3908,3.3921,3.3972,3.4086,3.4221,3.4221,3.4305,3.445,3.4495,3.455,3.4612,3.4612,3.4612,3.4612,3.4612,3.4612,3.4612,3.4612,3.4612,3.4612,3.4612,3.4612,3.4612,3.4612,3.4612,3.4612,3.4612,3.4612,3.4634,3.4708,3.4782,3.4841,3.4935,3.5058,3.5463,3.6553,3.741,3.8283,3.9383,3.9758,3.9941,4.0024,4.0538,4.0907,4.0907,4.0907,4.0907,4.0907,4.0907,4.0907,4.0907,4.0958,4.0684,4.0061,4.0041,3.9789,3.9198,3.8912,3.8753,3.8753,3.8539,3.8566,3.8835,3.8832,3.8984,2.2337,2.2584,2.3094,2.4246,2.4127,2.4001,2.4996,2.5526,2.5799,2.5814,2.6426,2.6971,2.6971,2.6989,2.7006,2.7006,2.7006,2.7006,2.7006,2.6775,2.6606,2.6606,2.638,2.6221,2.6221,2.6674,2.7103,2.7373,2.8808,2.9793,3.009,3.1545,3.2232,3.1912,3.2232,3.2249,3.1912,3.2232,3.2388,3.2423,3.2423,3.2473,3.2622,3.2961,3.3211,3.3408,3.3615,3.3712,3.3726,3.3921,3.3998,3.4011,3.4011,3.4011,3.4049,3.4233,3.442,3.4612,3.4612,3.4612,3.4612,3.4612,3.4612,3.4612,3.4612,3.4612,3.4612,3.4612,3.4612,3.4612,3.4612,3.4612,3.4612,3.4612,3.4612,3.4612,3.4612,3.4612,3.4604,3.4604,3.4762,3.5439,3.7091,3.7571,3.8274,3.9925,4.0346,4.0578,4.083,4.0888,4.0907,4.0907,4.0907,4.0907,4.0907,4.0907,4.0907,4.0907,4.0907,4.0888,4.0849,4.0937,4.0957,4.0918,4.0101,3.9669,3.9669,3.8886,3.8906,3.9652,3.9652,4.012,2.2557,2.2411,2.243,2.3915,2.3802,2.3585,2.4746,2.5109,2.5332,2.576,2.594,2.607,2.6247,2.6383,2.6365,2.6068,2.6261,2.6468,2.6468,2.6381,2.6328,2.6328,2.6257,2.6202,2.6202,2.6364,2.6774,2.7539,2.8525,2.9433,3.0178,3.1231,3.1764,3.1635,3.1912,3.202,3.1894,3.2232,3.2406,3.2406,3.249,3.264,3.282,3.3008,3.3211,3.3393,3.3466,3.3509,3.3509,3.3577,3.3671,3.3807,3.3807,3.3881,3.4011,3.4074,3.4148,3.4245,3.4506,3.4612,3.4612,3.4612,3.4612,3.4612,3.4612,3.4612,3.4612,3.4612,3.4612,3.4612,3.4612,3.4612,3.4612,3.4612,3.4612,3.4612,3.4612,3.4612,3.4612,3.4612,3.4647,3.5068,3.622,3.7002,3.8118,3.9924,4.0416,4.0642,4.0863,4.0898,4.0907,4.0907,4.0907,4.0907,4.0907,4.0907,4.0907,4.0907,4.0907,4.0907,4.0907,4.0921,4.093,4.093,4.0656,4.0505,4.0505,4.0213,4.0245,4.0567,4.0567,4.0717,2.1701,2.1812,2.2039,2.2903,2.3053,2.3211,2.3963,2.4415,2.4756,2.5211,2.5281,2.5351,2.5508,2.5647,2.5682,2.5538,2.574,2.6008,2.6184,2.6202,2.6202,2.6202,2.6202,2.6202,2.6202,2.6452,2.691,2.7632,2.8374,2.9245,3.0249,3.1056,3.1464,3.1329,3.1598,3.1765,3.1765,3.2073,3.2267,3.2406,3.254,3.2672,3.2786,3.3008,3.318,3.3304,3.3364,3.3393,3.3393,3.3393,3.3481,3.3591,3.3591,3.3671,3.3775,3.3855,3.3895,3.3947,3.4351,3.4495,3.4506,3.4591,3.4612,3.4612,3.4612,3.4612,3.4612,3.4612,3.4612,3.4612,3.4612,3.4612,3.4612,3.4612,3.4612,3.4612,3.4612,3.4612,3.4612,3.4612,3.4612,3.4883,3.5747,3.6914,3.8147,3.9433,4.0045,4.0465,4.0761,4.0782,4.0814,4.0883,4.0907,4.0907,4.0907,4.0907,4.0907,4.0907,4.0907,4.0907,4.0907,4.0907,4.0907,4.0907,4.0907,4.0907,4.0907,4.0907,4.0921,4.0952,4.0952,4.0968,1.9912,2.0758,2.1848,2.1304,2.1928,2.2698,2.2743,2.3447,2.4112,2.4132,2.4511,2.4823,2.4843,2.4863,2.502,2.5389,2.5484,2.5649,2.6061,2.6168,2.6185,2.6168,2.6202,2.6202,2.6252,2.6901,2.7426,2.7765,2.844,2.9259,3.0263,3.1035,3.1293,3.0975,3.131,3.1466,3.1466,3.1765,3.2073,3.2406,3.254,3.2606,3.2622,3.2945,3.3086,3.3101,3.3304,3.3378,3.3393,3.3393,3.3393,3.3393,3.3393,3.3393,3.3422,3.3601,3.3684,3.3739,3.4136,3.4281,3.4316,3.4517,3.4572,3.4591,3.4602,3.4612,3.4612,3.4612,3.4612,3.4612,3.4612,3.4612,3.4612,3.4612,3.4612,3.4612,3.4612,3.4612,3.4612,3.4612,3.4612,3.4883,3.5747,3.7174,3.827,3.8542,3.9298,3.9996,4.0516,4.059,4.0655,4.0859,4.0898,4.0883,4.0883,4.0903,4.0907,4.0907,4.0907,4.0907,4.0907,4.0907,4.0907,4.0907,4.0907,4.0907,4.0907,4.0907,4.0907,4.0907,4.0907,4.0907,1.9746,2.0052,2.0445,2.0682,2.0954,2.1363,2.21,2.2469,2.2727,2.3076,2.3483,2.3797,2.3846,2.4353,2.4728,2.4619,2.5118,2.5427,2.5269,2.5789,2.6061,2.5721,2.599,2.6419,2.6967,2.7182,2.7767,2.8868,2.9154,2.9589,3.0419,3.0636,3.0716,3.063,3.0938,3.1134,3.1134,3.1637,3.2073,3.2406,3.254,3.2606,3.2622,3.2834,3.3011,3.3101,3.3147,3.3256,3.3393,3.3393,3.3393,3.3393,3.3393,3.3393,3.3411,3.3452,3.3481,3.3506,3.3766,3.3947,3.4111,3.4305,3.4393,3.4397,3.455,3.4612,3.4612,3.4612,3.4612,3.4612,3.4612,3.4612,3.4612,3.4612,3.4612,3.4612,3.4612,3.4612,3.4612,3.4612,3.4612,3.4883,3.5747,3.6235,3.6953,3.8195,3.8576,3.9091,4.0159,4.0385,4.046,4.0511,4.0706,4.0834,4.0834,4.0873,4.0907,4.0907,4.0907,4.0907,4.0907,4.0907,4.0907,4.0907,4.0907,4.0907,4.0907,4.0907,4.0907,4.0907,4.0907,4.0907,1.8992,1.9251,1.9578,2.0105,2.0207,2.0383,2.1286,2.1599,2.1785,2.2025,2.25,2.2898,2.3121,2.352,2.3912,2.4162,2.4583,2.4867,2.4808,2.5288,2.5607,2.5503,2.6034,2.6615,2.7249,2.7862,2.8539,2.933,2.9397,2.9711,3.0456,3.0506,3.0506,3.0506,3.0692,3.0855,3.0995,3.16,3.2002,3.2179,3.2472,3.2573,3.2523,3.2787,3.2882,3.2898,3.2961,3.3088,3.3165,3.3165,3.3165,3.3198,3.3259,3.3488,3.381,3.3888,3.4154,3.4422,3.4175,3.4177,3.4238,3.4185,3.4173,3.4209,3.4416,3.4473,3.4484,3.4591,3.4612,3.4612,3.4612,3.4612,3.4612,3.4612,3.4612,3.4612,3.4612,3.4612,3.4612,3.4612,3.4612,3.4752,3.524,3.5653,3.6216,3.7117,3.785,3.8568,3.9262,3.9843,4.0208,4.029,4.0494,4.061,4.061,4.0712,4.0796,4.0853,4.0853,4.0868,4.0907,4.0907,4.0907,4.0907,4.0907,4.0907,4.0907,4.0907,4.0907,4.0907,4.0907,4.0907,1.8076,1.847,1.8975,1.954,1.9526,1.9604,2.0448,2.0809,2.1004,2.1066,2.1537,2.2058,2.2443,2.2581,2.292,2.3788,2.4021,2.4209,2.4471,2.4728,2.5005,2.5351,2.6115,2.6811,2.7394,2.8638,2.943,2.9529,2.9546,2.9827,3.0472,3.0506,3.0506,3.0506,3.0506,3.0654,3.0995,3.1506,3.1821,3.1894,3.2318,3.2473,3.2423,3.2707,3.2755,3.2622,3.2786,3.2884,3.29,3.29,3.2953,3.3059,3.3169,3.373,3.4479,3.4659,3.5173,3.5677,3.4881,3.4606,3.4522,3.4104,3.3959,3.3998,3.4197,3.4281,3.4328,3.4506,3.4591,3.4612,3.4612,3.4612,3.4612,3.4612,3.4612,3.4612,3.4612,3.4612,3.4612,3.4612,3.4612,3.4612,3.4612,3.5221,3.5766,3.5878,3.7099,3.8019,3.8131,3.9146,3.9944,4.0108,4.0268,4.0353,4.0353,4.0484,4.0615,4.0739,4.0757,4.0798,4.0854,4.0859,4.0864,4.0893,4.0893,4.0898,4.0907,4.0907,4.0907,4.0907,4.0907,4.0907,1.7843,1.8101,1.8224,1.883,1.859,1.8563,1.9965,2.0067,1.9978,2.0308,2.0795,2.1248,2.1441,2.1964,2.2512,2.2875,2.358,2.3973,2.361,2.4338,2.4867,2.4831,2.5881,2.7026,2.8105,2.8936,2.9645,3.0257,3.0307,3.0357,3.0489,3.0506,3.0506,3.0506,3.0506,3.0654,3.0995,3.1098,3.1408,3.1894,3.1984,3.2144,3.2406,3.2457,3.2541,3.2606,3.2639,0.0,3.29,3.29,3.3259,3.3813,3.3828,3.4427,3.531,3.5326,3.5548,3.5677,3.4881,3.4606,3.4525,3.3945,3.3753,3.3793,3.3985,3.4173,3.4305,3.434,3.4473,3.4612,3.4612,3.4612,3.4612,3.4612,3.4612,3.4612,3.4612,3.4612,3.4612,3.4612,3.4612,3.4612,3.4612,3.4733,3.5071,3.5784,3.6141,3.6554,3.7223,3.8735,3.9743,3.978,4.0012,4.0148,4.0148,4.0323,4.0442,4.0465,4.0568,4.0648,4.0649,4.0649,4.0707,4.0818,4.0823,4.0837,4.0907,4.0907,4.0907,4.0907,4.0907,4.0907,1.7224,1.7429,1.7457,1.8077,1.7952,1.8061,1.9449,1.9592,1.954,2.0003,2.0346,2.0684,2.0944,2.1503,2.2049,2.2443,2.3091,2.3516,2.3319,2.3745,2.4173,2.4456,2.5483,2.6684,2.7925,2.8867,2.9694,3.0439,3.0506,3.0506,3.0506,3.0506,3.0506,3.0506,3.0506,3.0589,3.0753,3.0915,3.1235,3.1674,3.1821,3.209,3.2406,3.2406,3.244,3.2507,3.2507,3.2558,3.2641,3.2641,3.3067,3.3757,3.386,3.4673,3.5828,3.5932,3.6355,3.6776,3.5964,3.5487,3.5111,3.44,3.388,3.3577,3.3793,3.3908,3.4036,3.4245,3.4363,3.4473,3.4561,3.4612,3.4612,3.4612,3.4612,3.4612,3.4612,3.4612,3.4612,3.4612,3.4612,3.4612,3.4612,3.4612,3.4733,3.5165,3.5615,3.6047,3.6423,3.757,3.8519,3.8922,3.9531,3.9886,3.9886,4.0042,4.0194,4.0345,4.0414,4.0485,4.0607,4.0595,4.0635,4.0681,4.0707,4.0707,4.0736,4.0736,4.0779,4.0842,4.0842,4.0868,1.6557,1.6731,1.6791,1.7479,1.7484,1.765,1.9004,1.9174,1.92,1.9823,2.0054,2.0258,2.056,2.1031,2.1541,2.2072,2.2586,2.3,2.3187,2.3253,2.3523,2.4099,2.5025,2.6157,2.7514,2.8612,2.9576,3.0439,3.0506,3.0506,3.0506,3.0506,3.0506,3.0506,3.0506,3.0506,3.0506,3.0773,3.1075,3.1406,3.1691,3.1984,3.2301,3.2371,3.2406,3.2406,3.2406,3.2406,3.2406,3.2406,3.295,3.3775,3.3935,3.496,3.6395,3.6541,3.7113,3.772,3.6895,3.6349,3.5828,3.4852,3.4015,3.3422,3.3591,3.3657,3.3766,3.4086,3.4233,3.4328,3.4495,3.458,3.4612,3.4612,3.4612,3.4612,3.4612,3.4612,3.4612,3.4612,3.4612,3.4612,3.4612,3.4612,3.4612,3.4612,3.5184,3.5615,3.5615,3.6329,3.708,3.7718,3.8752,3.9395,3.9395,3.9668,3.9956,4.0196,4.0243,4.0332,4.0527,4.0534,4.0549,4.0552,4.0552,4.0566,4.0595,4.0595,4.0655,4.077,4.077,4.0798,1.6031,1.6169,1.6227,1.7274,1.7106,1.7095,1.8682,1.8685,1.8661,1.9618,1.9926,2.0042,2.0067,2.0422,2.0908,2.1554,2.2049,2.2503,2.2888,2.3142,2.3414,2.3715,2.4535,2.5712,2.7359,2.8209,2.9186,3.0398,3.0506,3.0506,3.0506,3.0506,3.0506,3.0506,3.0506,3.0506,3.0506,3.0531,3.0716,3.1055,3.137,3.1673,3.1966,3.2249,3.2406,3.2406,3.2406,3.2406,0.0,3.2406,3.3266,3.4582,3.4619,3.568,3.719,3.7209,3.7376,3.7506,3.672,3.6503,3.6369,3.4841,3.3908,3.3393,3.3422,3.3549,3.3712,3.3739,3.4023,3.4305,3.4316,3.4461,3.4612,3.4612,3.4612,3.4612,3.4612,3.4612,3.4612,3.4612,3.4612,3.4612,3.4612,3.4612,3.4612,3.4612,3.4658,3.4714,3.4714,3.5465,3.6047,3.6104,3.7505,3.8425,3.8425,3.9232,3.9773,3.9933,4.0057,4.0186,4.0319,4.0328,4.0353,4.0422,4.0422,4.0485,4.0595,4.0595,4.0614,4.0628,4.0628,4.0681,1.5844,1.6126,1.6304,1.6747,1.6648,1.6722,1.771,1.8054,1.839,1.916,1.9604,1.9888,1.9888,2.0258,2.0784,2.1382,2.1921,2.2426,2.2947,2.3045,2.3164,2.3421,2.3906,2.4943,2.6792,2.7439,2.8479,3.0175,3.0316,3.038,3.0489,3.0506,3.0506,3.0506,3.0506,3.0506,3.0506,3.0506,3.0671,3.0995,3.1134,3.1447,3.1894,3.2037,3.2214,3.2406,3.2406,3.2406,0.0,3.2406,3.302,3.4038,3.4512,3.5411,3.6453,3.6948,3.7259,3.7304,3.6505,3.6025,3.5627,3.463,3.381,3.3241,3.3364,3.3452,3.3534,3.3657,3.382,3.3972,3.4086,3.4269,3.445,3.4561,3.4612,3.4612,3.4612,3.4612,3.4612,3.4612,3.4612,3.4612,3.4612,3.4612,3.4612,3.4612,3.4612,3.4612,3.4612,3.4902,3.5108,3.5108,3.6592,3.7568,3.7568,3.8367,3.8954,3.9161,3.9678,4.0086,4.0301,4.0301,4.031,4.0335,4.0335,4.0362,4.0422,4.0422,4.0444,4.0485,4.0485,4.0581,1.5494,1.5848,1.606,1.634,1.6413,1.6534,1.7073,1.7534,1.8066,1.8854,1.9291,1.9618,1.9773,2.0105,2.0535,2.1091,2.1612,2.2184,2.2752,2.2865,2.2978,2.3157,2.3334,2.4235,2.6164,2.7133,2.8323,2.9957,2.9979,3.0065,3.0384,3.0422,3.0443,3.0506,3.0506,3.0506,3.0506,3.0506,3.063,3.0855,3.0955,3.1215,3.1637,3.1747,3.1948,3.2249,3.2249,3.2319,0.0,3.2406,3.2827,3.3564,3.4126,3.4811,3.5548,3.611,3.6399,3.6461,3.5878,3.5456,3.5028,3.4376,3.3815,3.3394,3.3328,3.3349,3.3422,3.3577,3.3643,3.3753,3.3947,3.4148,3.4328,3.4484,3.455,3.4612,3.4612,3.4612,3.4612,3.4612,3.4612,3.4612,3.4612,3.4612,3.4612,3.4612,3.4612,3.4612,3.4612,3.4612,3.4612,3.4612,3.5664,3.6472,3.6716,3.7509,3.8177,3.8679,3.926,3.9791,4.0272,4.0301,4.0301,4.0301,4.0301,4.0301,4.0301,4.0301,4.0318,4.0358,4.0358,4.0481,1.4924,1.5123,1.5235,1.6184,1.6413,1.6534,1.7073,1.7202,1.7534,1.8735,1.8987,1.9172,1.9708,1.9798,1.9978,2.051,2.1068,2.1616,2.2137,2.2615,2.2888,2.2888,2.2925,2.3663,2.5613,2.7558,2.8996,2.975,2.9445,2.9506,3.0167,3.0189,3.0295,3.0489,3.0506,3.0506,3.0506,3.0506,3.0506,3.0506,3.0855,3.0995,3.1015,3.1351,3.1654,3.1894,3.1894,3.209,0.0,3.2406,3.2827,3.3511,3.3511,3.3985,3.4705,3.4724,3.4741,3.4741,3.4724,3.4852,3.4854,3.4075,3.3928,3.3968,3.3306,3.3241,3.3393,3.3393,3.3549,3.3753,3.3947,3.4148,3.4293,3.4305,3.4461,3.4612,3.4612,3.4612,3.4612,3.4612,3.4612,3.4612,3.4612,3.4612,3.4612,3.4612,3.4612,3.4612,3.4612,3.4612,3.4612,3.4612,3.4631,3.4977,3.5841,3.6712,3.7643,3.8641,3.8763,3.9261,4.0263,4.0301,4.0301,4.0301,4.0301,4.0301,4.0301,4.0301,4.0301,4.031,4.031,4.0345,1.4306,1.4921,1.5526,1.5686,1.6048,1.6431,1.6609,1.6944,1.7424,1.8228,1.8709,1.9172,1.9708,1.9798,1.9978,2.051,2.0734,2.1031,2.1575,2.21,2.2417,2.2417,2.372,2.4836,2.5472,2.7109,2.8312,2.874,2.8896,2.9143,2.9506,2.9957,3.0295,3.0489,3.0506,3.0506,3.0506,3.0506,3.0506,3.0506,3.0609,3.0794,3.0995,3.1114,3.1332,3.1635,3.1635,3.1784,3.2073,3.2073,3.2336,3.2792,3.3301,3.3652,3.3951,3.4513,3.4706,3.4636,3.4074,3.3917,3.3864,3.3209,3.3011,3.3057,3.2987,3.3055,3.3226,3.3364,3.3452,3.3534,3.3739,3.3842,3.3959,3.4233,3.434,3.442,3.4561,3.4612,3.4612,3.4612,3.4612,3.4612,3.4612,3.4612,3.4612,3.4612,3.4612,3.4612,3.4612,3.4612,3.4612,3.4612,3.4612,3.4714,3.4977,3.5818,3.6511,3.6973,3.8095,3.8945,3.9384,3.9976,4.0301,4.0301,4.0301,4.0301,4.0301,4.0301,4.0301,4.031,4.0353,4.0383,1.4333,1.4901,1.5495,1.5714,1.6105,1.6413,1.6413,1.6666,1.714,1.7929,1.8402,1.8883,1.9669,1.9798,1.9901,2.0232,2.0459,2.0795,2.1321,2.1851,2.2278,2.244,2.3865,2.4982,2.536,2.6439,2.7394,2.8103,2.8376,2.8701,2.9074,2.9633,3.0022,3.0236,3.0405,3.0447,3.0401,3.0447,3.0506,3.0506,3.0506,3.0609,3.0814,3.0814,3.0978,3.131,3.131,3.1485,0.0,3.1858,3.202,3.2284,3.2862,3.309,3.3161,3.3634,3.3828,3.3757,3.3248,3.309,3.302,3.2648,3.2556,3.2605,3.2753,3.293,3.3132,3.3349,3.3393,3.3422,3.3549,3.3629,3.3793,3.4111,3.4245,3.4351,3.455,3.4612,3.4612,3.4612,3.4612,3.4612,3.4612,3.4612,3.4612,3.4612,3.4612,3.4612,3.4612,3.4612,3.4612,3.4612,3.4612,3.4612,3.4612,3.5133,3.5671,3.6099,3.7183,3.8118,3.8899,3.9489,3.9957,4.0282,4.0301,4.0301,4.0301,4.0301,4.0301,4.031,4.0344,4.036,0.0,1.494,1.5214,1.602,1.6324,1.6413,1.6413,1.6413,0.0,1.7804,1.8066,1.8444,1.954,1.9773,1.9798,1.9798,2.0232,2.0734,2.1224,2.1779,2.2324,2.2797,2.3476,2.4265,2.5222,2.5609,2.6354,2.7705,2.7839,2.8158,2.8787,2.9243,2.956,2.9728,3.0215,3.038,3.0189,3.0401,3.0506,3.0506,3.0506,3.0506,3.0506,3.0506,3.0671,0.0,3.0955,3.1154,3.1466,3.173,3.1858,3.193,3.2249,3.2371,3.2406,3.2406,3.2406,3.2406,3.2406,3.2406,3.2406,3.2406,3.249,3.2589,3.2606,3.2832,3.3132,3.3334,3.3378,3.3393,3.3393,3.3534,3.3726,3.3934,3.4124,3.4316,3.4528,3.4591,3.4572,3.4602,3.4612,3.4612,3.4612,3.4612,3.4612,3.4612,3.4612,3.4612,3.4612,3.4612,3.4612,3.4612,3.4612,3.4612,3.4612,3.4708,3.5109,3.5874,3.615,3.7005,3.8642,3.8899,3.9403,4.0282,4.0301,4.0301,4.0301,4.0301,4.0301,4.0301,4.0301,4.0301,1.3705,0.0,1.491,1.458,1.5462,1.6413,0.0,1.6413,1.6591,1.7268,1.7781,1.8309,1.9054,1.9526,1.9798,1.9798,1.9901,2.0029,2.0144,2.0979,2.1766,2.2301,2.3276,2.4028,2.4365,2.5236,2.6156,2.6993,2.7346,2.771,2.811,2.8701,2.9106,2.9259,2.9722,3.0044,3.0189,3.0253,3.0359,3.0506,3.0506,3.0506,3.0506,3.0506,3.0531,3.063,3.063,3.0814,3.1134,3.1193,3.1468,3.1894,3.1984,3.2161,3.2406,3.2406,3.2406,3.2406,3.2406,3.2406,3.2406,3.2406,3.2422,3.2456,3.2573,3.2832,3.3101,3.3165,3.3271,3.3393,3.3393,3.3437,3.352,3.3726,3.382,3.3934,3.4293,3.4363,3.4427,3.4561,3.4612,3.4612,3.4612,3.4612,3.4612,3.4612,3.4612,3.4612,3.4612,3.4612,3.4612,3.4612,3.4612,3.4612,3.4612,3.4634,3.4762,3.5052,3.5689,3.6613,3.7823,3.8499,3.93,4.0282,4.0301,4.0301,4.0301,4.0301,4.0301,4.0301,4.0301,4.0301,1.3105,1.389,1.4577,1.4389,1.5382,1.6413,1.6413,1.6413,1.6563,1.7101,1.7672,1.8201,1.8521,1.9253,1.9721,1.9474,1.9656,1.9901,2.0131,2.0881,2.1503,2.1803,2.2837,2.3692,2.4055,2.5124,2.6094,2.6762,2.717,2.7549,2.7889,2.8439,2.8834,2.9075,2.9357,2.9649,3.0022,3.0146,3.0295,3.0506,3.0506,3.0506,3.0506,3.0506,3.0506,3.0506,3.0506,3.0609,3.0794,3.0935,3.1176,3.1487,3.1654,3.1893,3.2161,3.2161,3.2267,3.2406,3.2406,3.2406,3.2406,3.2406,3.2406,3.2405,3.249,3.269,3.2896,3.3055,3.3241,3.3393,3.3393,3.3393,3.3452,3.3643,3.3698,3.382,3.4209,3.4293,3.4351,3.455,3.4612,3.4612,3.4612,3.4612,3.4612,3.4612,3.4612,3.4612,3.4612,3.4612,3.4612,3.4612,3.4612,3.4612,3.4612,3.4612,3.4634,3.4697,3.5164,3.6049,3.7421,3.7897,3.8803,4.0177,4.0282,4.0301,4.0301,4.0301,4.0301,4.0301,4.0301,4.0301,1.2691,1.3432,1.4316,1.469,1.5596,1.6413,1.6413,1.6413,1.6534,1.6972,1.7545,1.7957,1.7957,1.8845,1.941,1.9066,1.9448,1.9978,2.051,2.0993,2.1272,2.1272,2.2284,2.3238,2.3915,2.4973,2.5952,2.6747,2.7119,2.7448,2.7805,2.8198,2.8583,2.9006,2.9075,2.9312,2.9766,2.9979,3.021,3.0464,3.0464,3.0485,3.0506,3.0506,3.0506,3.0506,3.0506,0.0,3.051,3.0814,3.0955,3.1035,3.131,3.1617,3.1894,3.1894,3.2108,3.2406,3.2406,3.2406,3.2406,3.2406,3.2406,3.2406,3.2406,3.249,3.2672,3.2928,3.318,3.3349,3.3349,3.3364,3.3437,3.3601,3.3643,3.3766,3.4124,3.4233,3.4305,3.4517,3.4591,3.4612,3.4612,3.4612,3.4612,3.4612,3.4612,3.4612,3.4612,3.4612,3.4612,3.4612,3.4612,3.4612,3.4612,3.4612,3.4612,3.4612,3.4716,3.5533,3.7225,3.7625,3.8524,4.0068,4.0234,4.0301,4.0301,4.0301,4.0301,4.0301,4.0301,4.0301,1.2246,1.3151,1.4211,1.428,1.5363,1.6413,1.6413,1.6413,1.6431,1.6516,1.6955,1.7341,1.7341,1.7891,1.8498,1.8934,1.9448,1.9978,2.051,2.0684,2.0734,2.0734,2.1671,2.2616,2.3363,2.4362,2.5462,2.6718,2.6858,2.7052,2.7463,2.7805,2.8183,2.8574,2.892,2.9236,2.9538,2.9582,2.9804,3.0253,3.0253,3.0338,3.0506,3.0506,3.0506,3.0506,0.0,3.0506,3.0489,3.0568,3.0736,3.0995,3.1055,3.1411,3.1894,3.1894,3.2108,3.2406,3.2406,3.2406,3.2406,3.2406,3.2406,3.2406,3.2406,3.249,3.2622,3.2654,3.2914,3.315,3.315,3.3256,3.3411,3.3437,3.3452,3.3506,3.3739,3.3921,3.4111,3.4305,3.4484,3.4612,3.4612,3.4612,3.4612,3.4612,3.4612,3.4612,3.4612,3.4612,3.4612,3.4612,3.4612,3.4612,3.4612,3.4612,3.4612,3.4612,3.4623,3.544,3.7225,3.8835,3.983,4.0087,4.0234,4.0301,4.0301,4.0301,4.0301,4.0301,4.0301,4.0301,1.2408,1.309,1.3924,1.4503,1.5516,1.6413,1.6413,1.6413,1.6413,1.6413,1.6814,1.7101,1.6814,1.7501,1.8294,1.8907,1.9448,1.9901,2.0131,2.0156,2.0156,2.0156,2.1186,2.2101,2.2707,2.3764,2.4808,2.572,2.5749,2.5896,2.6287,2.6452,2.6836,2.7388,2.7586,2.7866,2.8208,2.8192,2.88,2.9979,2.9979,3.0108,3.0338,3.0338,3.0401,3.0506,0.0,3.0506,3.0506,3.0506,3.0593,3.0733,3.0733,3.1117,3.1728,3.2055,3.2267,3.2406,3.2406,3.2406,3.2406,3.2406,3.2406,3.2406,3.2406,3.244,3.249,3.249,3.2787,3.3101,3.3101,3.3241,3.3393,3.3393,3.3393,3.3452,3.3675,3.3873,3.4061,3.4257,3.4461,3.4612,3.4612,3.4612,3.4612,3.4612,3.4612,3.4612,3.4612,3.4612,3.4612,3.4612,3.4612,3.4789,3.5259,3.5296,3.5296,3.5296,3.5709,3.6513,3.7792,3.9234,3.9986,3.9994,4.0186,4.0301,4.0301,4.0301,4.0301,4.0301,4.0301,4.0301,1.2482,1.3116,1.3924,1.4751,1.5691,1.6413,1.6413,1.6413,1.6413,1.6413,1.674,1.6899,1.6488,1.7207,1.8093,1.8682,1.9265,1.9656,1.9773,1.9798,1.9798,1.9798,2.0733,2.1611,2.2251,2.3256,2.4145,2.4853,2.4839,2.4956,2.5248,2.5367,2.5656,2.622,2.6415,2.6667,2.6954,2.7056,2.7822,2.9243,2.9243,2.9388,2.9634,2.9861,3.0032,3.0179,3.0402,3.0506,3.0506,3.0506,3.0506,3.0506,3.0506,3.0918,3.156,3.209,3.2336,3.2406,3.2406,3.2406,3.2406,3.2406,3.2406,3.2406,3.2406,3.2406,3.2406,3.2406,3.2673,3.2993,3.3039,3.3196,3.3334,3.3378,3.3393,3.3437,3.3605,3.3793,3.3972,3.4136,3.4351,3.4528,3.4528,3.4561,3.4612,3.4612,3.4612,3.4612,3.4612,3.4612,3.4677,3.4883,3.4902,3.524,3.6104,3.6179,3.6254,3.646,3.7042,3.7662,3.8281,3.9294,3.987,3.99,4.0137,4.0282,4.0301,4.0301,4.0301,4.0301,4.0301,4.0301,1.2024,1.316,1.4724,1.4803,1.5608,1.6413,1.6413,1.6413,1.6413,1.6413,1.6431,1.6459,1.6402,1.687,1.7451,1.8066,1.8682,1.9225,1.9721,1.9798,1.9798,1.9798,2.0322,2.1098,2.2196,2.2817,2.3642,2.481,2.4892,2.4863,2.4844,2.52,2.5422,2.5469,2.6153,2.6503,2.6541,2.6895,2.7259,2.7565,2.7565,2.7706,2.8001,2.8805,2.9202,2.9256,3.0129,3.0506,3.0506,3.0506,3.0506,3.0506,3.0506,3.0918,3.154,3.1839,3.2126,3.2406,3.2406,3.2406,3.2406,3.2406,3.2406,3.2406,3.2406,3.2406,3.2406,3.2406,3.2506,3.2688,3.2868,3.3026,3.318,3.3349,3.3393,3.3393,3.3408,3.3577,3.3726,3.3739,3.4061,3.4316,3.4316,3.4484,3.4612,3.4612,3.4612,3.4612,3.4612,3.4612,3.4902,3.5728,3.5803,3.6122,3.6941,3.7016,3.7336,3.8075,3.8188,3.8244,3.83,3.9213,3.9762,3.99,4.0036,4.0186,4.0301,4.0301,4.0301,4.0301,4.0301,4.0301,1.2613,1.3413,1.434,1.4562,1.5206,1.5894,1.6288,1.6413,1.6413,1.6413,1.6413,1.6413,1.6413,1.6842,1.7396,1.8011,1.8602,1.9198,1.9721,1.9798,1.9798,1.9798,1.9978,2.0411,2.1174,2.1425,2.1866,2.2675,2.3031,2.3212,2.3198,2.3606,2.3937,2.4149,2.4439,2.4804,2.5242,2.5399,2.5628,2.5918,2.6788,2.7327,2.7577,2.8496,2.8972,2.9153,3.0075,3.0506,3.0506,3.0506,3.0506,3.0531,3.0958,3.1274,3.156,3.2037,3.2284,3.2406,3.2406,3.2406,3.2406,3.2406,3.2406,3.2406,3.2406,3.2406,3.2406,3.2406,3.244,3.2524,3.2672,3.2914,3.3117,3.3196,3.3319,3.3393,3.3393,3.3549,3.3698,3.3698,3.4023,3.4293,3.4293,3.4473,3.4612,3.4612,3.4612,3.4612,3.4612,3.5071,3.5522,3.5859,3.6798,3.753,3.7812,3.835,3.8782,3.9101,3.8601,3.8544,3.9101,3.9484,3.9751,3.99,4.0036,4.0157,4.0301,4.0301,4.0301,4.0301,4.0301,4.0301,1.2868,1.3396,1.4045,1.4482,1.4962,1.5536,1.623,1.623,1.6134,1.6345,1.6413,1.6413,1.6413,1.6694,1.714,1.7738,1.8321,1.8922,1.9474,1.9695,1.9798,1.9798,1.9798,2.0003,2.0535,2.061,2.082,2.1369,2.1742,2.203,2.2184,2.2486,2.2851,2.3238,2.3341,2.3638,2.4156,2.4276,2.4503,2.4842,2.5816,2.6404,2.6657,2.7621,2.8244,2.862,2.9626,3.0191,3.0422,3.0468,3.0506,3.0568,3.1018,3.1312,3.1559,3.1947,3.2249,3.2406,3.2406,3.2406,3.2406,3.2406,3.2406,3.2406,3.2406,3.2406,3.2406,3.2406,3.2406,3.2422,3.2506,3.2737,3.2961,3.3024,3.318,3.3319,3.3319,3.3462,3.3619,3.3619,3.3868,3.4111,3.4111,3.4328,3.4506,3.4506,3.455,3.4612,3.4612,3.5353,3.6085,3.661,3.7887,3.8713,3.8713,3.927,3.9589,3.9589,3.9045,3.8976,3.957,3.9637,3.9735,3.99,3.9994,4.0127,4.0301,4.0301,4.0301,4.0301,4.0301,4.0301,1.2604,1.3116,1.3978,1.4619,1.4998,1.541,1.6202,1.5894,1.5594,1.6259,1.6413,1.6413,1.6413,1.6413,1.6591,1.7101,1.7699,1.8282,1.8907,1.9448,1.9798,1.9798,1.9798,2.0003,2.0535,2.0585,2.0795,2.1345,2.1393,2.1623,2.2147,2.2208,2.2417,2.2888,2.3224,2.3406,2.3406,2.3797,2.4151,2.4498,2.4498,2.4681,2.5037,2.5971,2.6775,2.7453,2.8604,2.9505,3.021,3.0405,3.0506,3.0506,3.0489,3.0918,3.1502,3.1485,3.1874,3.2406,3.2406,3.2406,3.2406,3.2406,3.2406,3.2406,3.2406,3.2406,3.2406,3.2406,3.2406,3.2406,3.2406,3.2507,3.2655,3.2852,3.2993,3.3101,3.3101,3.3256,3.3393,3.3393,3.3563,3.3698,3.3698,3.4036,3.4293,3.4305,3.4473,3.4612,3.4631,3.5371,3.6535,3.815,3.9082,3.9589,3.9589,3.9589,3.9589,3.9589,3.9589,3.9589,3.9589,3.9589,3.971,3.9889,3.99,4.0036,4.0301,4.0301,4.0301,4.0301,4.0301,4.0301,1.3635,1.4031,1.4429,1.4798,1.5109,1.5381,1.5536,1.5836,1.6163,1.6345,1.6413,1.6413,1.6413,1.6413,1.6591,1.7101,1.7341,1.7847,1.8854,1.9146,1.937,1.9759,1.9798,1.985,2.0029,2.0029,2.0105,2.027,2.0622,2.1066,2.1599,2.2006,2.2417,2.2888,2.3,2.3172,2.3406,2.353,2.376,2.4151,2.4395,2.4681,2.5037,2.5971,2.6775,2.7453,2.8604,2.9405,2.9941,3.0189,3.038,3.051,3.0773,3.0975,3.1173,3.1408,3.1728,3.2037,3.2037,3.2214,3.2406,3.2406,3.2406,3.2406,3.2406,3.2406,3.2406,3.2406,3.2406,3.2406,3.2406,3.2422,3.2507,3.2639,3.2818,3.2995,3.307,3.315,3.3226,3.3364,3.3563,3.3739,3.3881,3.4124,3.434,3.4495,3.4561,3.5026,3.6209,3.708,3.8019,3.9101,3.9458,3.9589,3.9589,3.9589,3.9589,3.9589,3.9589,3.9589,3.9589,3.9637,3.9735,3.99,3.9994,4.0127,4.0301,4.0301,4.0301,4.0301,4.0301,4.0301,1.4113,1.432,1.4502,1.5075,1.5254,1.5352,1.5526,1.5941,1.6306,1.6374,1.6413,1.6413,1.6413,1.6413,1.6516,1.6842,1.7073,1.7451,1.8174,1.8709,1.9119,1.9448,1.9669,1.9798,1.9798,1.9798,1.9798,1.9798,2.0105,2.0535,2.1066,2.1396,2.1874,2.2615,2.2615,2.2806,2.3194,2.3194,2.3392,2.376,2.3967,2.4323,2.4838,2.5544,2.6202,2.6924,2.8362,2.9401,3.0092,3.0258,3.0401,3.0526,3.0716,3.0875,3.1015,3.1232,3.156,3.1894,3.1894,3.2126,3.2406,3.2406,3.2406,3.2406,3.2406,3.2406,3.2406,3.2406,3.2406,3.2406,3.2406,3.2406,3.2422,3.2507,3.2639,3.2802,3.2882,3.3008,3.315,3.3256,3.3448,3.3633,3.3739,3.3998,3.4221,3.434,3.4795,3.5597,3.6922,3.7793,3.8638,3.9514,3.9589,3.9589,3.9589,3.9589,3.9589,3.9589,3.9589,3.9614,3.9644,3.9677,3.9751,3.99,4.0036,4.0157,4.0301,4.0301,4.0301,4.0301,4.0301,4.0301,1.4157,1.4192,1.4336,1.5444,1.5507,1.5439,1.596,1.6114,1.6153,1.6374,1.6413,1.6413,1.6413,1.6413,1.6413,1.6413,1.6814,1.7146,1.7202,1.8147,1.8854,1.8907,1.9396,1.9721,1.9721,1.9773,1.9798,1.9798,1.9798,2.0029,2.056,2.061,2.1104,2.2184,2.2208,2.2417,2.2888,2.2888,2.3053,2.3341,2.3384,2.3745,2.44,2.4786,2.5377,2.6229,2.7981,2.937,3.0426,3.0426,3.0447,3.0468,3.0489,3.0692,3.0955,3.0955,3.1332,3.1821,3.1858,3.209,3.2354,3.2388,3.2406,3.2406,3.2406,3.2406,3.2406,3.2406,3.2406,3.2406,3.2406,3.2406,3.2406,3.2406,3.249,3.2589,3.2606,3.2848,3.3086,3.3101,3.3256,3.3411,3.3422,3.3753,3.4011,3.4049,3.5165,3.6273,3.7016,3.7868,3.8713,3.9514,3.9589,3.9589,3.9589,3.9589,3.9589,3.9589,3.9589,3.9631,3.9693,3.9717,3.9792,3.9911,4.0046,4.0166,4.0301,4.0301,4.0301,4.0301,4.0301,4.0301,1.4307,1.459,1.4854,1.5767,1.5957,1.5941,1.6085,1.6114,1.6153,1.6374,1.6413,1.6413,1.6413,1.6413,1.6413,1.6413,1.6488,1.6712,1.7146,1.7424,1.7754,1.824,1.8804,1.9172,1.9172,1.9552,1.9798,1.9798,1.9798,2.0029,2.056,2.061,2.1104,2.2184,2.2208,2.2417,2.2888,2.2888,2.2933,2.3023,2.3268,2.3471,2.3659,2.4302,2.5523,2.7141,2.7911,2.8902,2.9962,2.9962,3.007,3.0274,3.0443,3.0531,3.0609,3.0609,3.0858,3.1235,3.1485,3.1765,3.2037,3.2319,3.2406,3.2406,3.2406,3.2406,3.2406,3.2406,3.2406,3.2406,3.2406,3.2406,3.2406,3.2406,3.2422,3.2473,3.2573,3.2786,3.2961,3.307,3.3256,3.3452,3.3619,3.3847,3.4111,3.4409,3.5814,3.6904,3.7073,3.8406,3.9383,3.957,3.9589,3.9589,3.9589,3.9589,3.9589,3.9589,3.9589,3.9631,3.9693,3.9804,3.9922,4.0046,4.0195,4.0263,4.0301,4.0301,4.0301,4.0301,4.0301,4.0301,1.4505,1.4967,1.5358,1.5875,1.6066,1.6085,1.6009,1.6066,1.6153,1.6374,1.6413,1.6413,1.6413,1.6413,1.6413,1.6413,1.6413,1.6506,1.6768,1.7045,1.7313,1.7617,1.8456,1.8987,1.8987,1.95,1.9798,1.9798,1.9798,1.9927,2.0207,2.0207,2.0597,2.142,2.1684,2.2077,2.2555,2.2797,2.2888,2.2888,2.3075,2.3246,2.3428,2.4156,2.5305,2.6729,2.7445,2.8361,2.9362,2.9811,3.0065,3.021,3.0422,3.0506,3.0506,3.0506,3.0712,3.1055,3.137,3.1673,3.1966,3.2284,3.2406,3.2406,3.2406,3.2406,3.2406,3.2406,3.2406,3.2406,3.2406,3.2406,3.2406,3.2406,3.2406,3.2422,3.249,3.2706,3.2916,3.2977,3.3211,3.3437,3.3534,3.3788,3.4136,3.4539,3.604,3.711,3.711,3.8556,3.9589,3.9589,3.9589,3.9589,3.9589,3.9589,3.9589,3.9589,3.9589,3.9656,3.9792,3.9848,3.9954,4.0106,4.0234,4.0301,4.0301,4.0301,4.0301,4.0301,4.0301,4.0301,1.4628,1.5283,1.5842,1.5881,1.6019,1.6124,1.5943,1.6019,1.621,1.6374,1.6413,1.6413,1.6413,1.6413,1.6413,1.6413,1.6413,1.6413,1.6413,1.6768,1.7073,1.7073,1.8131,1.8842,1.8842,1.9422,1.9798,1.9798,1.9798,1.9798,1.9798,1.9798,2.0055,2.0585,2.1115,2.167,2.2194,2.2684,2.2888,2.2888,2.2888,2.3053,2.3334,2.4073,2.4937,2.59,2.6925,2.7859,2.8753,2.9745,3.0124,3.0167,3.0405,3.0506,3.0506,3.0506,3.0692,3.0975,3.131,3.156,3.182,3.2196,3.2319,3.2319,3.2371,3.2406,3.2406,3.2406,3.2406,3.2406,3.2406,3.2406,3.2406,3.2406,3.2406,3.2406,3.2406,3.2658,3.29,3.29,3.3165,3.3408,3.3452,3.3766,3.4124,3.4495,3.5998,3.711,3.711,3.8556,3.9589,3.9589,3.9589,3.9589,3.9589,3.9589,3.9589,3.9589,3.9589,3.9668,3.9867,3.9889,3.9954,4.0106,4.0234,4.0301,4.0301,4.0301,4.0301,4.0301,4.0301,4.0301,1.4498,1.5454,1.6244,1.5961,1.6116,1.6288,1.5972,1.6144,1.6374,1.6374,1.6413,1.6413,1.6413,1.6413,1.6413,1.6413,1.6413,1.6413,1.6413,1.6459,1.6516,1.6516,1.7512,1.8228,1.8228,1.9188,1.9798,1.9798,1.9798,1.9798,1.9798,1.9798,2.0055,2.0585,2.1115,2.167,2.2194,2.2684,2.2888,2.2888,2.2888,2.291,2.3,2.3732,2.4608,2.5611,2.6682,2.7543,2.8275,2.9387,2.9853,2.9897,3.0342,3.0506,3.0506,3.0506,3.0531,3.0593,3.0955,3.1095,3.1215,3.1766,3.1966,3.202,3.2319,3.2406,3.2406,3.2406,3.2406,3.2406,3.2406,3.2406,3.2406,3.2406,3.2406,3.2406,3.2406,3.2658,3.29,3.29,3.3165,3.3452,3.3633,3.3842,3.4074,3.4305,3.5899,3.711,3.711,3.8556,3.9589,3.9589,3.9589,3.9589,3.9589,3.9589,3.9589,3.9589,3.9589,3.9631,3.9717,3.9826,3.9954,4.0106,4.0234,4.0301,4.0301,4.0301,4.0301,4.0301,4.0301,4.0301,1.5376,1.5912,1.6192,1.6048,1.6124,1.6181,1.6048,1.622,1.6413,1.6413,1.6413,1.6413,1.6413,1.6413,1.6413,1.6413,1.6413,1.6413,1.6413,1.6413,1.6413,1.6413,1.7123,1.7727,1.8066,1.8857,1.9474,1.9773,1.9798,1.9798,1.9798,1.9798,1.9901,2.0131,2.0671,2.1066,2.1299,2.21,2.2638,2.2888,2.2888,2.2888,2.2925,2.3661,2.424,2.4731,2.5958,2.6893,2.7611,2.8612,2.9329,2.9853,3.0194,3.0401,3.0506,3.0506,3.0506,3.0568,3.0875,3.0995,3.1114,3.1693,3.1894,3.1966,3.2301,3.2406,3.2406,3.2406,3.2406,3.2406,3.2406,3.2406,3.2406,3.2406,3.2406,3.2406,3.2406,3.2557,3.2786,3.2995,3.3135,3.3345,3.3643,3.3855,3.4074,3.4269,3.5907,3.711,3.711,3.8556,3.9589,3.9589,3.9589,3.9589,3.9589,3.9589,3.9589,3.9589,3.9589,3.9631,3.9693,3.9826,3.9954,4.0106,4.0234,4.0301,4.0301,4.0301,4.0301,4.0301,4.0301,4.0301,1.6061,1.621,1.6114,1.6114,1.6114,1.6114,1.6114,1.6249,1.6413,1.6413,1.6413,1.6413,1.6413,1.6413,1.6413,1.6413,1.6413,1.6413,1.6413,1.6413,1.6413,1.6413,1.687,1.7368,1.7847,1.8575,1.9172,1.9578,1.9721,1.9798,1.9798,1.9798,1.9798,1.9798,2.0334,2.061,2.061,2.166,2.244,2.2888,2.2888,2.2888,2.291,2.356,2.3903,2.4076,2.5404,2.6325,2.6915,2.7955,2.8811,2.9485,3.0,3.0295,3.0443,3.0468,3.0506,3.0547,3.0794,3.0875,3.0975,3.16,3.1785,3.1875,3.2284,3.2406,3.2406,3.2406,3.2406,3.2406,3.2406,3.2406,3.2406,3.2406,3.2406,3.2405,3.244,3.2523,3.2688,3.2993,3.307,3.3193,3.3502,3.3748,3.4059,3.4476,3.5948,3.7108,3.7361,3.8688,3.9589,3.9589,3.9589,3.9589,3.9589,3.9589,3.9589,3.9589,3.9589,3.9619,3.9677,3.9823,3.9962,4.0046,4.0215,4.0301,4.0301,4.0301,4.0301,4.0301,4.0301,4.0301,1.5991,1.6114,1.6114,1.6114,1.6114,1.6114,1.6114,1.6249,1.6413,1.6413,1.6413,1.6413,1.6413,1.6413,1.6413,1.6413,1.6413,1.6413,1.6413,1.6413,1.6413,1.6413,1.687,1.7202,1.723,1.8321,1.9013,1.904,1.9526,1.9798,1.9798,1.9798,1.9798,1.9798,2.0334,2.061,2.061,2.166,2.244,2.2888,2.2888,2.2888,2.291,2.3268,2.3653,2.4076,2.5404,2.6024,2.6187,2.7748,2.843,2.8591,2.974,3.021,3.0231,3.0443,3.0506,3.0506,3.0526,3.0526,3.0634,3.1312,3.1504,3.1617,3.2231,3.2406,3.2406,3.2406,3.2406,3.2406,3.2406,3.2406,3.2406,3.2406,3.2406,3.244,3.2556,3.2606,3.2655,3.2868,3.3008,3.3101,3.3132,3.3459,3.4032,3.5,3.6105,3.715,3.8107,3.9045,3.9589,3.9589,3.9589,3.9589,3.9589,3.9589,3.9589,3.9589,3.9589,3.9589,3.9602,3.9789,3.99,3.9911,4.0166,4.0301,4.0301,4.0301,4.0301,4.0301,4.0301,4.0301,1.634,1.621,1.6114,1.6114,1.6114,1.6114,1.6114,1.6249,1.6413,1.6413,1.6413,1.6413,1.6413,1.6413,1.6413,1.6413,1.6413,1.6413,1.6413,1.6413,1.6413,1.6413,1.6563,1.6814,1.7174,1.7589,1.8011,1.8402,1.8975,1.9303,1.9303,1.9618,1.9798,1.9798,1.9978,2.0421,2.1115,2.1503,2.2086,2.2888,2.2888,2.2888,2.291,2.3246,2.3616,2.404,2.4746,2.5393,2.6088,2.7137,2.8003,2.8732,2.9616,3.013,3.0401,3.0468,3.0506,3.0506,3.0506,3.0506,3.0589,3.1018,3.1173,3.1293,3.1893,3.209,3.2126,3.2336,3.2406,3.2406,3.2406,3.2406,3.2406,3.2406,3.2406,3.2405,3.2456,3.2473,3.2558,3.2836,3.2948,3.3042,3.3259,3.352,3.4037,3.5043,3.6098,3.7169,3.8164,3.9051,3.9589,3.9589,3.9589,3.9589,3.9589,3.9589,3.9589,3.9589,3.9589,3.9589,3.9589,3.9708,3.9815,3.99,4.0067,4.0215,4.0301,4.0301,4.0301,4.0301,4.0301,4.0301,1.6467,1.6163,1.6038,1.6038,1.6009,1.5999,1.6085,1.621,1.6316,1.6374,1.6413,1.6413,1.6413,1.6413,1.6413,1.6413,1.6413,1.6413,1.6413,1.6413,1.6413,1.6413,1.6413,1.6534,1.6899,1.7101,1.7368,1.7754,1.8536,1.8987,1.8987,1.9526,1.9798,1.9798,1.9798,2.0321,2.1393,2.1407,2.1898,2.2888,2.2888,2.2888,2.2925,2.3127,2.3436,2.3818,2.4172,2.4849,2.5708,2.6435,2.7323,2.8324,2.9151,2.9794,3.0279,3.0447,3.0506,3.0506,3.0506,3.0506,3.0568,3.0895,3.0995,3.1114,3.1711,3.1894,3.1966,3.2319,3.2406,3.2406,3.2406,3.2406,3.2406,3.2406,3.2406,3.2406,3.2406,3.2406,3.2457,3.2691,3.282,3.2979,3.318,3.3488,3.4037,3.5043,3.6098,3.7169,3.8164,3.9051,3.9589,3.9589,3.9589,3.9589,3.9589,3.9589,3.9589,3.9589,3.9589,3.9589,3.9589,3.9708,3.9815,3.99,4.0086,4.0215,4.0301,4.0301,4.0301,4.0301,4.0301,4.0301,0.0,0.0,0.0,1.5885,1.5798,1.5759,1.6028,1.6085,1.6153,1.6345,1.6374,1.6374,1.6413,1.6413,1.6413,1.6413,1.6413,1.6413,1.6413,1.6413,1.6413,1.6413,1.6413,1.6413,1.6413,1.687,1.7174,1.7174,1.8294,1.896,1.896,1.95,1.9798,1.9798,1.9798,2.0321,2.1369,2.1396,2.1902,2.2865,2.2888,2.2888,2.2888,2.2888,2.3083,2.3428,2.3839,2.4364,2.5049,2.5724,2.6435,2.7195,2.8345,2.9216,2.9843,3.0305,3.0506,3.0506,3.0506,3.0506,3.0551,3.0875,3.0995,3.1114,3.1693,3.1894,3.1966,3.2301,3.2406,3.2406,3.2406,3.2406,3.2406,3.2406,3.2406,3.2406,3.2406,3.2406,3.2406,3.2423,3.2674,3.29,3.29,3.3342,3.4041,3.5043,3.6098,3.7119,3.8164,3.9045,3.957,3.9589,3.9589,3.9589,3.9589,3.9589,3.9589,3.9589,3.9589,3.9589,3.9589,3.9796,3.9889,3.99,4.0157,4.0301,4.0301,4.0301,4.0301,4.0301,4.0301,4.0301,1.6655,0.0,0.0,0.0,0.0,0.0,1.5817,1.5875,1.599,1.6153,1.6181,1.622,1.6374,1.6413,1.6413,1.6413,1.6413,1.6413,1.6413,1.6413,1.6413,1.6413,1.6413,1.6413,1.6413,1.6534,1.6609,0.0,1.7279,1.7902,1.8321,1.9267,1.9798,1.9798,1.9798,2.0131,2.082,2.1213,2.1732,2.2394,2.2752,2.2888,2.2888,2.2888,2.3083,2.3428,2.3839,2.4234,2.4708,2.5622,2.6222,2.6741,2.822,2.9014,2.9398,3.0207,3.0506,3.0506,3.0506,3.0506,3.0526,3.0609,3.0651,3.0757,3.1411,3.1617,3.171,3.2249,3.2406,3.2406,3.2406,3.2406,3.2406,3.2406,3.2406,3.2406,3.2406,3.2406,3.2422,3.2523,3.2606,3.277,3.2993,3.3178,3.3713,3.5003,3.5449,3.6285,3.8064,3.8507,3.8901,3.9533,3.9589,3.9589,3.9589,3.9589,3.9589,3.9589,3.9589,3.9589,3.9589,3.965,3.975,3.99,3.9965,4.0117,4.0301,4.0301,4.0301,4.0301,4.0301,4.0301,0.0,0.0,0.0,1.5604,0.0,0.0,1.6085,1.6019,1.6019,1.6475,1.6371,1.6249,1.6374,1.6413,1.6413,1.6413,1.6413,1.6413,1.6413,1.6413,1.6413,1.6413,1.6413,1.6413,1.6413,1.6413,1.6413,1.6413,1.7123,1.7945,1.8765,1.9436,1.9798,1.9798,1.9798,2.0055,2.0585,2.114,2.167,2.2208,2.2684,2.2888,2.2888,2.2888,2.3023,2.3216,2.3754,2.4024,2.4109,2.5149,2.5898,2.6471,2.7514,2.8404,2.9165,2.9815,3.0241,3.0506,3.0506,3.0506,3.0506,3.0506,3.0506,3.063,3.1293,3.1485,3.1634,3.2231,3.2406,3.2406,3.2406,3.2406,3.2406,3.2406,3.2406,3.2406,3.2406,3.2406,3.2422,3.2507,3.264,3.2786,3.2977,3.3265,3.3757,3.4587,3.515,3.5932,3.7139,3.7887,3.8488,3.9007,3.9383,3.9589,3.9589,3.9589,3.9589,3.9589,3.9589,3.9589,3.9589,3.9619,3.9696,3.9815,3.9922,4.0096,4.0301,4.0301,4.0301,4.0301,4.0301,4.0301,0.0,0.0,0.0,0.0,1.5468,0.0,1.6539,1.6285,1.6095,1.6961,1.6712,1.6316,1.6345,1.6345,1.6345,1.6345,1.6345,1.6374,1.6413,1.6413,1.6413,1.6413,1.6413,1.6413,1.6413,1.6413,1.6413,1.6413,1.7457,1.8551,1.9566,1.9721,1.9798,1.9798,1.9798,2.0029,2.051,2.1028,2.1575,2.2123,2.2578,2.2843,2.2888,2.2888,2.2888,2.2933,2.3683,2.3797,2.3551,2.4589,2.5429,2.6142,2.6521,2.7602,2.8993,2.9263,2.986,3.0506,3.0506,3.0506,3.0506,3.0506,3.0526,3.0654,3.1254,3.1485,3.1654,3.2249,3.2406,3.2406,3.2406,3.2406,3.2406,3.2406,3.2406,3.2406,3.2406,3.2406,3.2406,3.2406,3.2658,3.2884,3.29,3.3465,3.3959,3.3998,3.4969,3.5762,3.5878,3.723,3.8206,3.83,3.9082,3.9589,3.9589,3.9589,3.9589,3.9589,3.9589,3.9589,3.9589,3.9661,3.9693,3.9705,3.9965,4.0157,4.0282,4.0301,4.0301,4.0301,4.0301,4.0301,0.0,0.0,0.0,0.0,1.5874,0.0,1.6368,1.5921,1.5739,1.6531,1.6239,1.5885,1.5972,1.6,1.6,1.6,1.6105,1.621,1.6374,1.6413,1.6413,1.6413,1.6413,1.6413,1.6413,1.6413,1.6413,1.6413,1.7457,1.8201,1.8417,1.9293,1.9798,1.9798,1.9798,1.985,1.9952,2.0497,2.1017,2.1575,2.21,2.2532,2.2888,2.2888,2.2888,2.2933,2.3683,2.3961,2.3946,2.469,2.4925,2.4951,2.6046,2.7106,2.814,2.8882,2.972,3.0506,3.0506,3.0506,3.0506,3.0506,3.0692,3.0935,3.1055,3.1447,3.1912,3.2301,3.2406,3.2406,3.2406,3.2406,3.2406,3.2406,3.2406,3.2406,3.2406,3.2406,3.2406,3.2406,3.254,3.2705,3.2868,3.3247,3.363,3.3959,3.4358,3.4913,3.5781,3.6742,3.7568,3.8244,3.9082,3.9589,3.9589,3.9589,3.9589,3.9589,3.9589,3.9589,3.9589,3.9614,3.9637,3.9705,3.9965,4.0117,4.0137,4.0244,4.0301,4.0301,4.0301,4.0301,0.0,0.0,0.0,1.6492,1.6595,0.0,0.0,1.6838,1.6624,1.7429,1.7123,1.6729,1.6797,1.6552,1.6335,1.6335,1.6457,1.6457,1.6202,1.6288,1.6413,1.6413,1.6637,1.6786,1.6786,1.7067,1.7374,1.7661,1.7941,1.8363,1.8924,1.9488,1.9798,1.9798,1.9798,1.9798,1.9798,2.0334,2.087,2.1417,2.1945,2.244,2.2888,2.2888,2.2888,2.2933,2.3683,2.3882,2.376,2.465,2.4786,2.459,2.5517,2.6493,2.7503,2.8305,2.9169,2.9992,3.0373,3.0506,3.0506,3.0506,3.0733,3.1035,3.1213,3.1673,3.2179,3.2354,3.2406,3.2406,3.2406,3.2406,3.2406,3.2406,3.2406,3.2406,3.2406,3.2406,3.2406,3.2406,3.2591,3.277,3.2884,3.3335,3.377,3.3972,3.4257,3.4634,3.5173,3.5972,3.6798,3.7624,3.845,3.9138,3.9552,3.9589,3.9589,3.9589,3.9589,3.9589,3.9589,3.9589,3.9656,3.9804,3.9933,4.0076,4.0205,4.0282,4.0301,4.0301,4.0301,4.0301,0.0,0.0,0.0,0.0,0.0,1.7545,0.0,0.0,0.0,1.836,1.8023,1.76,1.76,1.7207,1.6803,1.6634,1.6789,1.6652,1.585,1.6065,0.0,1.6288,1.6842,1.7146,1.7006,1.7462,1.8023,1.8602,1.8321,1.8551,1.9592,1.9747,1.9798,1.9798,1.9798,1.9798,1.9798,2.0232,2.0771,2.1393,2.1851,2.2347,2.2888,2.2888,2.2888,2.2933,2.3683,2.3818,2.3595,2.4594,2.4826,2.4641,2.5064,2.5921,2.6964,2.7552,2.8447,2.9439,3.0034,3.0352,3.051,3.0589,3.0818,3.1173,3.1559,3.1965,3.2319,3.2371,3.2406,3.2406,3.2406,3.2406,3.2406,3.2406,3.2406,3.2406,3.2406,3.2406,3.2406,3.2406,3.269,3.2961,3.2961,3.3536,3.4011,3.4049,3.4381,3.4612,3.4612,3.5353,3.6216,3.7016,3.7812,3.8657,3.9533,3.9589,3.9589,3.9589,3.9589,3.9589,3.9589,3.9589,3.9686,3.9834,3.9878,4.0015,4.0225,4.0263,4.0301,4.0301,4.0301,4.0301,0.0,0.0,0.0,0.0,1.7335,0.0,1.8093,0.0,1.7396,1.8038,0.0,1.7257,1.7257,0.0,0.0,1.5976,1.6297,1.6282,1.5259,1.5605,1.5953,1.5953,1.6691,1.6933,1.6304,1.6438,1.6825,1.7368,1.7847,1.8402,1.9066,1.9552,1.9798,1.9798,1.9798,1.9798,1.9798,1.985,2.0396,2.1393,2.1465,2.1992,2.2888,2.2888,2.2888,2.2933,2.3683,2.3982,2.4003,2.469,2.4966,2.4946,2.5005,2.5628,2.6487,2.6567,2.7668,2.9157,2.9239,2.9803,3.0568,3.0855,3.1173,3.1559,3.2126,3.2126,3.202,3.2319,3.2406,3.2406,3.2406,3.2406,3.2406,3.2406,3.2406,3.2406,3.2406,3.2406,3.2406,3.2406,3.28,3.3169,3.3169,3.363,3.4061,3.4245,3.4461,3.4612,3.4612,3.5353,3.6216,3.7016,3.7812,3.8657,3.9533,3.9589,3.9589,3.9589,3.9589,3.9589,3.9589,3.9589,3.9602,3.9638,3.9819,3.9911,3.9962,4.0176,4.0301,4.0301,4.0301,4.0301,0.0,0.0,0.0,0.0,0.0,0.0,1.8548,0.0,1.8321,0.0,0.0,0.0,0.0,0.0,0.0,0.0,1.7113,1.6928,1.6356,1.6961,1.7082,1.6017,0.0,0.0,1.7118,1.6899,1.7151,1.8186,1.8093,1.8417,1.9422,1.9682,1.9798,1.9798,1.9798,1.9798,1.9798,1.9798,2.0346,2.1393,2.1393,2.1931,2.2888,2.2888,2.2888,2.2933,2.3436,2.3782,2.4046,2.4503,2.4806,2.5005,2.5005,2.5314,2.581,2.6246,2.7041,2.7997,2.8821,2.9436,3.0028,3.0982,3.1387,3.1615,3.2231,3.2301,3.2214,3.2354,3.2406,3.2406,3.2406,3.2406,3.2406,3.2406,3.2406,3.2406,3.2406,3.2406,3.2406,3.2406,3.2639,3.2954,3.3314,3.3818,3.4209,3.4281,3.4473,3.4612,3.4612,3.4921,3.5465,3.631,3.7117,3.7943,3.877,3.9308,3.9589,3.9589,3.9589,3.9589,3.9589,3.9589,3.9626,3.9661,3.9823,3.9933,4.0015,4.0215,4.0301,4.0301,4.0301,4.0301,1.6054,0.0,0.0,0.0,0.0,0.0,0.0,0.0,0.0,0.0,0.0,0.0,0.0,0.0,0.0,0.0,0.0,1.7299,1.6884,1.7358,1.7407,1.6384,1.6531,0.0,0.0,1.6944,1.7251,1.859,1.819,1.8447,1.9721,1.9798,1.9798,1.9798,1.9798,1.9798,1.9798,1.9798,2.027,2.1175,2.1321,2.186,2.2706,2.2843,2.2888,2.291,2.3246,2.3616,2.4024,2.4354,2.4701,2.5005,2.5005,2.5084,2.5265,2.5811,2.6369,2.699,2.8081,2.8929,2.9732,3.0961,3.1466,3.1691,3.2143,3.2336,3.2406,3.2406,3.2406,3.2406,3.2406,3.2406,3.2406,3.2406,3.2406,3.2406,3.2406,3.2406,3.2406,3.2406,3.2539,3.2829,3.3328,3.3813,3.4191,3.4351,3.4506,3.4612,3.4612,3.4612,3.4921,3.5803,3.6423,3.7192,3.8206,3.8882,3.9345,3.957,3.9589,3.9589,3.9589,3.9589,3.9619,3.9665,3.9834,3.9943,4.0046,4.0225,4.0301,4.0301,4.0301,4.0301,0.0,0.0,0.0,1.709,0.0,0.0,0.0,0.0,1.8987,0.0,0.0,0.0,0.0,0.0,0.0,0.0,0.0,0.0,0.0,1.5763,1.6064,1.7037,1.6842,0.0,0.0,1.5943,1.6485,1.7825,1.7907,1.8447,1.9721,1.9798,1.9798,1.9798,1.9798,1.9798,1.9798,1.9798,2.008,2.0635,2.1151,2.1694,2.2254,2.2684,2.2888,2.291,2.3246,2.3616,2.4024,2.4354,2.4701,2.5005,2.5005,2.5005,2.5005,2.5037,2.562,2.6447,2.6681,2.8144,3.0003,3.078,3.1411,3.1894,3.1912,3.2144,3.2406,3.2406,3.2406,3.2406,3.2406,3.2406,3.2406,3.2406,3.2406,3.2406,3.2406,3.2406,3.2406,3.2406,3.267,3.295,3.3166,3.3482,3.3911,3.4487,3.4602,3.4612,3.4612,3.4612,3.4921,3.5803,3.5916,3.6592,3.8169,3.8338,3.8694,3.9552,3.9589,3.9589,3.9589,3.9589,3.9589,3.9602,3.9808,3.99,3.99,4.0166,4.0301,4.0301,4.0301,4.0301,0.0,0.0,1.5864,1.6443,0.0,0.0,0.0,0.0,0.0,0.0,0.0,0.0,0.0,0.0,0.0,0.0,0.0,0.0,0.0,1.7033,1.6765,1.6739,1.6018,1.56,0.0,1.621,1.6888,1.7825,1.8232,1.8821,1.9747,1.9798,1.9798,1.9798,1.9798,1.9798,1.9798,1.9798,2.008,2.061,2.0771,2.1348,2.2208,2.237,2.2615,2.2925,2.3008,2.326,2.3595,2.3724,2.4135,2.4681,2.4681,2.4806,2.5005,2.5005,2.5282,2.5769,2.6471,2.7879,2.9453,2.9922,3.0772,3.1673,3.1857,3.2126,3.2406,3.2406,3.2406,3.2406,3.2406,3.2406,3.2406,3.2406,3.2406,3.2406,3.2406,3.2406,3.2406,3.2406,3.249,3.2703,3.3124,3.3284,3.3593,3.4305,3.4281,3.4293,3.458,3.4484,3.4574,3.4985,3.5559,3.6122,3.6667,3.7699,3.8676,3.9533,3.9589,3.9589,3.9589,3.9589,3.9589,3.9589,3.9708,3.9815,3.99,4.0067,4.0215,4.0301,4.0301,4.0301,1.5089,1.5235,0.0,1.614,1.6312,0.0,1.7562,0.0,1.8147,0.0,0.0,0.0,0.0,0.0,0.0,0.0,0.0,0.0,0.0,1.7194,1.6714,1.6276,1.5801,1.5669,1.5986,1.6214,1.6851,1.8085,1.8259,1.8741,1.9747,1.9798,1.9798,1.9798,1.9798,1.9798,1.9798,1.9798,1.9978,2.0308,2.051,2.0957,2.1636,2.1827,2.2086,2.2379,2.2578,2.2836,2.3165,2.3341,2.3745,2.4317,2.4317,2.4539,2.4842,2.4946,2.5139,2.541,2.6292,2.7534,2.8829,2.9281,3.0281,3.1387,3.1673,3.1983,3.2249,3.2371,3.2406,3.2406,3.2406,3.2406,3.2406,3.2406,3.2406,3.2406,3.2406,3.2406,3.2406,3.2406,3.2406,3.2541,3.3003,3.3096,3.3346,3.408,3.4086,3.4124,3.445,3.4374,3.4393,3.4591,3.509,3.5559,3.5878,3.7117,3.8225,3.9082,3.9138,3.9289,3.9589,3.9589,3.9721,4.0021,3.9804,3.9902,4.0336,4.0169,4.0166,4.0301,4.0318,4.0345]}]]